Wetterdaten: Dienstag, 08.08.2017
Datum Zeit Temp. A. Pool Temp. Feuchte A. Luftdruck Regen Wind Richtung Richtung Sonnenschein ET UV Solar Taupunkt Windchill Windben Empfang
08.08.2017 00:00 16,8 C 23,9 C 75 % 1014,6 hPa 0,0 l/m 6,6 km/h (2 Bft) O-NO 59 0 min 0,000 mm 0,0 UV-I 0 W/m 12,3 C 16,7 C 9,7 km/h (2 Bft) 100,00 %
08.08.2017 00:02 16,8 C 23,9 C 75 % 1014,6 hPa 0,0 l/m 5,0 km/h (1 Bft) NO 48 0 min 0,000 mm 0,0 UV-I 0 W/m 12,3 C 16,8 C 8,0 km/h (2 Bft) 12,50 %
08.08.2017 00:04 16,7 C 23,9 C 76 % 1014,6 hPa 0,0 l/m 6,2 km/h (2 Bft) O-NO 57 0 min 0,000 mm 0,0 UV-I 0 W/m 12,4 C 16,7 C 8,0 km/h (2 Bft) 84,62 %
08.08.2017 00:06 16,7 C 23,9 C 76 % 1014,6 hPa 0,0 l/m 6,2 km/h (2 Bft) O-NO 59 0 min 0,000 mm 0,0 UV-I 0 W/m 12,4 C 16,7 C 9,7 km/h (2 Bft) 100,00 %
08.08.2017 00:08 16,6 C 23,9 C 76 % 1014,6 hPa 0,0 l/m 5,3 km/h (1 Bft) O-NO 68 0 min 0,000 mm 0,0 UV-I 0 W/m 12,3 C 16,6 C 6,4 km/h (2 Bft) 100,00 %
08.08.2017 00:10 16,6 C 23,9 C 76 % 1014,6 hPa 0,0 l/m 5,7 km/h (1 Bft) O-NO 63 0 min 0,000 mm 0,0 UV-I 0 W/m 12,3 C 16,6 C 8,0 km/h (2 Bft) 100,00 %
08.08.2017 00:12 16,5 C 23,9 C 76 % 1014,5 hPa 0,0 l/m 6,1 km/h (2 Bft) O-NO 65 0 min 0,000 mm 0,0 UV-I 0 W/m 12,3 C 16,5 C 11,3 km/h (2 Bft) 100,00 %
08.08.2017 00:14 16,4 C 23,9 C 76 % 1014,5 hPa 0,0 l/m 7,1 km/h (2 Bft) O-NO 74 0 min 0,000 mm 0,0 UV-I 0 W/m 12,2 C 16,0 C 11,3 km/h (2 Bft) 98,00 %
08.08.2017 00:16 16,4 C 23,9 C 77 % 1014,5 hPa 0,0 l/m 6,8 km/h (2 Bft) O-NO 66 0 min 0,000 mm 0,0 UV-I 0 W/m 12,4 C 16,2 C 9,7 km/h (2 Bft) 100,00 %
08.08.2017 00:18 16,3 C 23,9 C 77 % 1014,6 hPa 0,0 l/m 6,4 km/h (2 Bft) O 80 0 min 0,000 mm 0,0 UV-I 0 W/m 12,3 C 16,3 C 11,3 km/h (2 Bft) 100,00 %
08.08.2017 00:20 16,3 C 23,9 C 77 % 1014,6 hPa 0,0 l/m 6,7 km/h (2 Bft) O 90 0 min 0,000 mm 0,0 UV-I 0 W/m 12,3 C 16,2 C 12,9 km/h (3 Bft) 100,00 %
08.08.2017 00:22 16,3 C 23,9 C 77 % 1014,5 hPa 0,0 l/m 8,1 km/h (2 Bft) O-NO 70 0 min 0,000 mm 0,0 UV-I 0 W/m 12,3 C 15,4 C 12,9 km/h (3 Bft) 97,14 %
08.08.2017 00:24 16,3 C 23,9 C 77 % 1014,5 hPa 0,0 l/m 8,0 km/h (2 Bft) O 88 0 min 0,000 mm 0,0 UV-I 0 W/m 12,3 C 15,5 C 11,3 km/h (2 Bft) 98,00 %
08.08.2017 00:26 16,3 C 23,9 C 77 % 1014,5 hPa 0,0 l/m 7,5 km/h (2 Bft) O-NO 67 0 min 0,000 mm 0,0 UV-I 0 W/m 12,3 C 15,7 C 11,3 km/h (2 Bft) 98,11 %
08.08.2017 00:28 16,3 C 23,9 C 77 % 1014,5 hPa 0,0 l/m 7,9 km/h (2 Bft) O 81 0 min 0,000 mm 0,0 UV-I 0 W/m 12,3 C 15,5 C 12,9 km/h (3 Bft) 97,62 %
08.08.2017 00:30 16,3 C 23,9 C 77 % 1014,5 hPa 0,0 l/m 6,5 km/h (2 Bft) O 88 0 min 0,000 mm 0,0 UV-I 0 W/m 12,3 C 16,3 C 9,7 km/h (2 Bft) 98,11 %
08.08.2017 00:32 16,3 C 23,9 C 77 % 1014,5 hPa 0,0 l/m 7,1 km/h (2 Bft) O 82 0 min 0,000 mm 0,0 UV-I 0 W/m 12,3 C 15,9 C 11,3 km/h (2 Bft) 97,37 %
08.08.2017 00:34 16,3 C 23,9 C 77 % 1014,5 hPa 0,0 l/m 8,6 km/h (2 Bft) O-NO 77 0 min 0,000 mm 0,0 UV-I 0 W/m 12,3 C 15,2 C 12,9 km/h (3 Bft) 96,23 %
08.08.2017 00:36 16,3 C 23,9 C 77 % 1014,5 hPa 0,0 l/m 7,2 km/h (2 Bft) O 88 0 min 0,000 mm 0,0 UV-I 0 W/m 12,3 C 15,9 C 12,9 km/h (3 Bft) 94,00 %
08.08.2017 00:38 16,3 C 23,9 C 77 % 1014,5 hPa 0,0 l/m 7,2 km/h (2 Bft) O-NO 63 0 min 0,000 mm 0,0 UV-I 0 W/m 12,3 C 15,9 C 14,5 km/h (3 Bft) 100,00 %
08.08.2017 00:40 16,3 C 23,9 C 77 % 1014,4 hPa 0,0 l/m 10,4 km/h (2 Bft) O-NO 69 0 min 0,000 mm 0,0 UV-I 0 W/m 12,3 C 14,4 C 14,5 km/h (3 Bft) 96,77 %
08.08.2017 00:42 16,3 C 23,9 C 77 % 1014,4 hPa 0,0 l/m 9,6 km/h (2 Bft) O-NO 65 0 min 0,000 mm 0,0 UV-I 0 W/m 12,3 C 14,7 C 14,5 km/h (3 Bft) 98,11 %
08.08.2017 00:44 16,3 C 23,9 C 77 % 1014,4 hPa 0,0 l/m 8,5 km/h (2 Bft) O 84 0 min 0,000 mm 0,0 UV-I 0 W/m 12,3 C 15,2 C 12,9 km/h (3 Bft) 97,56 %
08.08.2017 00:46 16,3 C 23,9 C 77 % 1014,4 hPa 0,0 l/m 10,1 km/h (2 Bft) NO 54 0 min 0,000 mm 0,0 UV-I 0 W/m 12,3 C 14,5 C 14,5 km/h (3 Bft) 98,11 %
08.08.2017 00:48 16,3 C 23,9 C 77 % 1014,5 hPa 0,0 l/m 6,9 km/h (2 Bft) O 87 0 min 0,000 mm 0,0 UV-I 0 W/m 12,3 C 16,0 C 14,5 km/h (3 Bft) 97,37 %
08.08.2017 00:50 16,3 C 23,9 C 77 % 1014,5 hPa 0,0 l/m 6,9 km/h (2 Bft) O-NO 77 0 min 0,000 mm 0,0 UV-I 0 W/m 12,3 C 16,0 C 12,9 km/h (3 Bft) 94,00 %
08.08.2017 00:52 16,3 C 23,9 C 77 % 1014,4 hPa 0,0 l/m 6,4 km/h (2 Bft) O-NO 67 0 min 0,000 mm 0,0 UV-I 0 W/m 12,3 C 16,3 C 12,9 km/h (3 Bft) 97,73 %
08.08.2017 00:54 16,3 C 23,9 C 77 % 1014,4 hPa 0,0 l/m 7,2 km/h (2 Bft) O 90 0 min 0,000 mm 0,0 UV-I 0 W/m 12,3 C 15,9 C 12,9 km/h (3 Bft) 96,00 %
08.08.2017 00:56 16,2 C 23,9 C 77 % 1014,4 hPa 0,0 l/m 9,6 km/h (2 Bft) O-NO 63 0 min 0,000 mm 0,0 UV-I 0 W/m 12,2 C 14,6 C 12,9 km/h (3 Bft) 97,87 %
08.08.2017 00:58 16,2 C 23,9 C 77 % 1014,4 hPa 0,0 l/m 8,5 km/h (2 Bft) O 81 0 min 0,000 mm 0,0 UV-I 0 W/m 12,2 C 15,1 C 12,9 km/h (3 Bft) 97,87 %
08.08.2017 01:00 16,2 C 23,9 C 77 % 1014,3 hPa 0,0 l/m 6,6 km/h (2 Bft) O-NO 61 0 min 0,025 mm 0,0 UV-I 0 W/m 12,2 C 16,1 C 12,9 km/h (3 Bft) 92,68 %
08.08.2017 01:02 16,2 C 23,9 C 77 % 1014,3 hPa 0,0 l/m 8,0 km/h (2 Bft) O-NO 69 0 min 0,000 mm 0,0 UV-I 0 W/m 12,2 C 15,4 C 12,9 km/h (3 Bft) 98,04 %
08.08.2017 01:04 16,2 C 23,9 C 77 % 1014,3 hPa 0,0 l/m 7,6 km/h (2 Bft) O-NO 78 0 min 0,000 mm 0,0 UV-I 0 W/m 12,2 C 15,6 C 11,3 km/h (2 Bft) 100,00 %
08.08.2017 01:06 16,2 C 23,9 C 77 % 1014,3 hPa 0,0 l/m 11,3 km/h (2 Bft) O 91 0 min 0,000 mm 0,0 UV-I 0 W/m 12,2 C 13,9 C 16,1 km/h (3 Bft) 98,18 %
08.08.2017 01:08 16,2 C 23,9 C 77 % 1014,3 hPa 0,0 l/m 10,8 km/h (2 Bft) O 82 0 min 0,000 mm 0,0 UV-I 0 W/m 12,2 C 14,1 C 14,5 km/h (3 Bft) 98,11 %
08.08.2017 01:10 16,2 C 23,9 C 77 % 1014,2 hPa 0,0 l/m 9,0 km/h (2 Bft) O-NO 59 0 min 0,000 mm 0,0 UV-I 0 W/m 12,2 C 14,9 C 14,5 km/h (3 Bft) 100,00 %
08.08.2017 01:12 16,2 C 23,3 C 77 % 1014,2 hPa 0,0 l/m 6,8 km/h (2 Bft) O-NO 63 0 min 0,000 mm 0,0 UV-I 0 W/m 12,2 C 16,0 C 11,3 km/h (2 Bft) 100,00 %
08.08.2017 01:14 16,2 C 23,3 C 77 % 1014,2 hPa 0,0 l/m 7,3 km/h (2 Bft) O-NO 72 0 min 0,000 mm 0,0 UV-I 0 W/m 12,2 C 15,7 C 12,9 km/h (3 Bft) 100,00 %
08.08.2017 01:16 16,2 C 23,3 C 77 % 1014,1 hPa 0,0 l/m 4,9 km/h (1 Bft) O 92 0 min 0,000 mm 0,0 UV-I 0 W/m 12,2 C 16,2 C 9,7 km/h (2 Bft) 100,00 %
08.08.2017 01:18 16,1 C 23,3 C 77 % 1014,1 hPa 0,0 l/m 6,4 km/h (2 Bft) O-NO 62 0 min 0,000 mm 0,0 UV-I 0 W/m 12,1 C 16,1 C 12,9 km/h (3 Bft) 100,00 %
08.08.2017 01:20 16,1 C 23,3 C 78 % 1014,1 hPa 0,0 l/m 5,7 km/h (1 Bft) O-NO 61 0 min 0,000 mm 0,0 UV-I 0 W/m 12,3 C 16,1 C 8,0 km/h (2 Bft) 100,00 %
08.08.2017 01:22 15,9 C 23,3 C 78 % 1014,1 hPa 0,0 l/m 3,7 km/h (1 Bft) O-NO 71 0 min 0,000 mm 0,0 UV-I 0 W/m 12,1 C 15,9 C 8,0 km/h (2 Bft) 100,00 %
08.08.2017 01:24 15,8 C 23,3 C 79 % 1014,1 hPa 0,0 l/m 4,5 km/h (1 Bft) O-NO 69 0 min 0,000 mm 0,0 UV-I 0 W/m 12,2 C 15,8 C 8,0 km/h (2 Bft) 97,87 %
08.08.2017 01:26 15,6 C 23,3 C 79 % 1014,1 hPa 0,0 l/m 3,6 km/h (1 Bft) O-NO 69 0 min 0,000 mm 0,0 UV-I 0 W/m 12,0 C 15,6 C 4,8 km/h (1 Bft) 100,00 %
08.08.2017 01:28 15,4 C 23,3 C 80 % 1014,0 hPa 0,0 l/m 3,3 km/h (1 Bft) O-NO 71 0 min 0,000 mm 0,0 UV-I 0 W/m 12,0 C 15,4 C 6,4 km/h (2 Bft) 100,00 %
08.08.2017 01:30 15,3 C 23,3 C 81 % 1014,0 hPa 0,0 l/m 4,5 km/h (1 Bft) NO 56 0 min 0,000 mm 0,0 UV-I 0 W/m 12,1 C 15,3 C 8,0 km/h (2 Bft) 100,00 %
08.08.2017 01:32 15,2 C 23,3 C 81 % 1014,0 hPa 0,0 l/m 4,3 km/h (1 Bft) O-NO 57 0 min 0,000 mm 0,0 UV-I 0 W/m 12,0 C 15,2 C 6,4 km/h (2 Bft) 100,00 %
08.08.2017 01:34 15,1 C 23,3 C 82 % 1014,0 hPa 0,0 l/m 4,5 km/h (1 Bft) O-NO 57 0 min 0,000 mm 0,0 UV-I 0 W/m 12,0 C 15,1 C 6,4 km/h (2 Bft) 100,00 %
08.08.2017 01:36 15,0 C 23,3 C 82 % 1014,0 hPa 0,0 l/m 4,3 km/h (1 Bft) O-NO 62 0 min 0,000 mm 0,0 UV-I 0 W/m 12,0 C 15,0 C 6,4 km/h (2 Bft) 96,00 %
08.08.2017 01:38 14,9 C 23,3 C 83 % 1014,0 hPa 0,0 l/m 2,8 km/h (1 Bft) O-NO 62 0 min 0,000 mm 0,0 UV-I 0 W/m 12,0 C 14,9 C 4,8 km/h (1 Bft) 100,00 %
08.08.2017 01:40 14,8 C 23,3 C 83 % 1013,9 hPa 0,0 l/m 3,8 km/h (1 Bft) O-NO 61 0 min 0,000 mm 0,0 UV-I 0 W/m 11,9 C 14,8 C 4,8 km/h (1 Bft) 100,00 %
08.08.2017 01:42 14,8 C 23,3 C 83 % 1013,9 hPa 0,0 l/m 4,5 km/h (1 Bft) O-NO 61 0 min 0,000 mm 0,0 UV-I 0 W/m 11,9 C 14,8 C 6,4 km/h (2 Bft) 100,00 %
08.08.2017 01:44 14,7 C 23,3 C 83 % 1013,9 hPa 0,0 l/m 4,4 km/h (1 Bft) O-NO 61 0 min 0,000 mm 0,0 UV-I 0 W/m 11,8 C 14,7 C 6,4 km/h (2 Bft) 100,00 %
08.08.2017 01:46 14,7 C 23,3 C 84 % 1013,8 hPa 0,0 l/m 3,8 km/h (1 Bft) O-NO 61 0 min 0,000 mm 0,0 UV-I 0 W/m 12,0 C 14,7 C 6,4 km/h (2 Bft) 100,00 %
08.08.2017 01:48 14,7 C 23,3 C 84 % 1013,8 hPa 0,0 l/m 3,9 km/h (1 Bft) O-NO 61 0 min 0,000 mm 0,0 UV-I 0 W/m 12,0 C 14,7 C 6,4 km/h (2 Bft) 100,00 %
08.08.2017 01:50 14,7 C 23,3 C 84 % 1013,8 hPa 0,0 l/m 3,3 km/h (1 Bft) O-NO 61 0 min 0,000 mm 0,0 UV-I 0 W/m 12,0 C 14,7 C 4,8 km/h (1 Bft) 100,00 %
08.08.2017 01:52 14,7 C 23,3 C 84 % 1013,8 hPa 0,0 l/m 5,0 km/h (1 Bft) O-NO 61 0 min 0,000 mm 0,0 UV-I 0 W/m 12,0 C 14,7 C 6,4 km/h (2 Bft) 97,62 %
08.08.2017 01:54 14,7 C 23,3 C 84 % 1013,7 hPa 0,0 l/m 5,0 km/h (1 Bft) O-NO 60 0 min 0,000 mm 0,0 UV-I 0 W/m 12,0 C 14,7 C 6,4 km/h (2 Bft) 100,00 %
08.08.2017 01:56 14,7 C 23,3 C 84 % 1013,7 hPa 0,0 l/m 5,1 km/h (1 Bft) O-NO 61 0 min 0,000 mm 0,0 UV-I 0 W/m 12,0 C 14,7 C 6,4 km/h (2 Bft) 100,00 %
08.08.2017 01:58 14,8 C 23,3 C 84 % 1013,6 hPa 0,0 l/m 5,6 km/h (1 Bft) O-NO 60 0 min 0,000 mm 0,0 UV-I 0 W/m 12,1 C 14,8 C 8,0 km/h (2 Bft) 97,87 %
08.08.2017 02:00 14,8 C 23,3 C 83 % 1013,6 hPa 0,0 l/m 6,1 km/h (2 Bft) O-NO 60 0 min 0,026 mm 0,0 UV-I 0 W/m 11,9 C 14,8 C 8,0 km/h (2 Bft) 97,92 %
08.08.2017 02:02 14,7 C 23,3 C 83 % 1013,6 hPa 0,0 l/m 5,2 km/h (1 Bft) O-NO 60 0 min 0,000 mm 0,0 UV-I 0 W/m 11,8 C 14,7 C 8,0 km/h (2 Bft) 100,00 %
08.08.2017 02:04 14,7 C 23,3 C 83 % 1013,5 hPa 0,0 l/m 4,3 km/h (1 Bft) O-NO 60 0 min 0,000 mm 0,0 UV-I 0 W/m 11,8 C 14,7 C 6,4 km/h (2 Bft) 100,00 %
08.08.2017 02:06 14,7 C 23,3 C 83 % 1013,6 hPa 0,0 l/m 4,8 km/h (1 Bft) O-NO 60 0 min 0,000 mm 0,0 UV-I 0 W/m 11,8 C 14,7 C 8,0 km/h (2 Bft) 97,87 %
08.08.2017 02:08 14,7 C 23,3 C 83 % 1013,6 hPa 0,0 l/m 3,4 km/h (1 Bft) O-NO 60 0 min 0,000 mm 0,0 UV-I 0 W/m 11,8 C 14,7 C 4,8 km/h (1 Bft) 97,87 %
08.08.2017 02:10 14,7 C 23,3 C 83 % 1013,6 hPa 0,0 l/m 2,2 km/h (1 Bft) O-NO 60 0 min 0,000 mm 0,0 UV-I 0 W/m 11,8 C 14,7 C 3,2 km/h (1 Bft) 100,00 %
08.08.2017 02:12 14,7 C 23,3 C 84 % 1013,6 hPa 0,0 l/m 2,2 km/h (1 Bft) O-NO 60 0 min 0,000 mm 0,0 UV-I 0 W/m 12,0 C 14,7 C 3,2 km/h (1 Bft) 100,00 %
08.08.2017 02:14 14,6 C 23,3 C 84 % 1013,5 hPa 0,0 l/m 2,5 km/h (1 Bft) O-NO 60 0 min 0,000 mm 0,0 UV-I 0 W/m 11,9 C 14,6 C 3,2 km/h (1 Bft) 100,00 %
08.08.2017 02:16 14,6 C 23,3 C 84 % 1013,6 hPa 0,0 l/m 2,4 km/h (1 Bft) O-NO 60 0 min 0,000 mm 0,0 UV-I 0 W/m 11,9 C 14,6 C 3,2 km/h (1 Bft) 100,00 %
08.08.2017 02:18 14,6 C 23,3 C 84 % 1013,6 hPa 0,0 l/m 2,4 km/h (1 Bft) O-NO 60 0 min 0,000 mm 0,0 UV-I 0 W/m 11,9 C 14,6 C 3,2 km/h (1 Bft) 98,00 %
08.08.2017 02:20 14,5 C 23,3 C 84 % 1013,6 hPa 0,0 l/m 1,6 km/h (1 Bft) O-NO 60 0 min 0,000 mm 0,0 UV-I 0 W/m 11,8 C 14,5 C 3,2 km/h (1 Bft) 97,87 %
08.08.2017 02:22 14,5 C 23,3 C 84 % 1013,6 hPa 0,0 l/m 2,1 km/h (1 Bft) O-NO 60 0 min 0,000 mm 0,0 UV-I 0 W/m 11,8 C 14,5 C 3,2 km/h (1 Bft) 94,74 %
08.08.2017 02:24 14,5 C 23,3 C 84 % 1013,6 hPa 0,0 l/m 1,5 km/h (1 Bft) O-NO 60 0 min 0,000 mm 0,0 UV-I 0 W/m 11,8 C 14,5 C 3,2 km/h (1 Bft) 98,00 %
08.08.2017 02:26 14,4 C 23,3 C 84 % 1013,6 hPa 0,0 l/m 3,2 km/h (1 Bft) O-NO 60 0 min 0,000 mm 0,0 UV-I 0 W/m 11,7 C 14,4 C 6,4 km/h (2 Bft) 98,00 %
08.08.2017 02:28 14,4 C 23,3 C 84 % 1013,5 hPa 0,0 l/m 3,6 km/h (1 Bft) O-NO 60 0 min 0,000 mm 0,0 UV-I 0 W/m 11,7 C 14,4 C 6,4 km/h (2 Bft) 95,24 %
08.08.2017 02:30 14,4 C 23,3 C 84 % 1013,5 hPa 0,0 l/m 3,6 km/h (1 Bft) O-NO 60 0 min 0,000 mm 0,0 UV-I 0 W/m 11,7 C 14,4 C 4,8 km/h (1 Bft) 97,96 %
08.08.2017 02:32 14,4 C 23,3 C 85 % 1013,5 hPa 0,0 l/m 4,2 km/h (1 Bft) O-NO 60 0 min 0,000 mm 0,0 UV-I 0 W/m 11,9 C 14,4 C 6,4 km/h (2 Bft) 94,23 %
08.08.2017 02:34 14,4 C 23,3 C 85 % 1013,5 hPa 0,0 l/m 3,4 km/h (1 Bft) O-NO 60 0 min 0,000 mm 0,0 UV-I 0 W/m 11,9 C 14,4 C 4,8 km/h (1 Bft) 97,22 %
08.08.2017 02:36 14,4 C 23,3 C 85 % 1013,5 hPa 0,0 l/m 4,2 km/h (1 Bft) O-NO 61 0 min 0,000 mm 0,0 UV-I 0 W/m 11,9 C 14,4 C 6,4 km/h (2 Bft) 91,49 %
08.08.2017 02:38 14,4 C 23,3 C 85 % 1013,5 hPa 0,0 l/m 3,4 km/h (1 Bft) O-NO 61 0 min 0,000 mm 0,0 UV-I 0 W/m 11,9 C 14,4 C 4,8 km/h (1 Bft) 94,64 %
08.08.2017 02:40 14,4 C 23,3 C 85 % 1013,5 hPa 0,0 l/m 3,9 km/h (1 Bft) O-NO 61 0 min 0,000 mm 0,0 UV-I 0 W/m 11,9 C 14,4 C 4,8 km/h (1 Bft) 97,37 %
08.08.2017 02:42 14,4 C 23,3 C 85 % 1013,5 hPa 0,0 l/m 4,5 km/h (1 Bft) O-NO 70 0 min 0,000 mm 0,0 UV-I 0 W/m 11,9 C 14,4 C 8,0 km/h (2 Bft) 92,45 %
08.08.2017 02:44 14,4 C 23,3 C 85 % 1013,4 hPa 0,0 l/m 4,2 km/h (1 Bft) O 84 0 min 0,000 mm 0,0 UV-I 0 W/m 11,9 C 14,4 C 8,0 km/h (2 Bft) 95,12 %
08.08.2017 02:46 14,4 C 23,3 C 84 % 1013,4 hPa 0,0 l/m 5,4 km/h (1 Bft) O 87 0 min 0,000 mm 0,0 UV-I 0 W/m 11,7 C 14,4 C 8,0 km/h (2 Bft) 95,74 %
08.08.2017 02:48 14,5 C 23,3 C 84 % 1013,4 hPa 0,0 l/m 5,9 km/h (2 Bft) O-NO 74 0 min 0,000 mm 0,0 UV-I 0 W/m 11,8 C 14,5 C 11,3 km/h (2 Bft) 94,00 %
08.08.2017 02:50 14,5 C 23,3 C 84 % 1013,3 hPa 0,0 l/m 5,9 km/h (2 Bft) O 90 0 min 0,000 mm 0,0 UV-I 0 W/m 11,8 C 14,5 C 12,9 km/h (3 Bft) 94,34 %
08.08.2017 02:52 14,5 C 23,3 C 84 % 1013,3 hPa 0,0 l/m 6,0 km/h (2 Bft) O-NO 70 0 min 0,000 mm 0,0 UV-I 0 W/m 11,8 C 14,5 C 12,9 km/h (3 Bft) 97,37 %
08.08.2017 02:54 14,6 C 23,3 C 84 % 1013,3 hPa 0,0 l/m 3,3 km/h (1 Bft) O-NO 70 0 min 0,000 mm 0,0 UV-I 0 W/m 11,9 C 14,6 C 4,8 km/h (1 Bft) 94,00 %
08.08.2017 02:56 14,6 C 23,3 C 84 % 1013,3 hPa 0,0 l/m 5,8 km/h (2 Bft) NO 49 0 min 0,000 mm 0,0 UV-I 0 W/m 11,9 C 14,6 C 8,0 km/h (2 Bft) 95,83 %
08.08.2017 02:58 14,6 C 23,3 C 84 % 1013,3 hPa 0,0 l/m 7,0 km/h (2 Bft) NO 50 0 min 0,000 mm 0,0 UV-I 0 W/m 11,9 C 14,3 C 11,3 km/h (2 Bft) 95,12 %
08.08.2017 03:00 14,6 C 23,3 C 84 % 1013,3 hPa 0,0 l/m 6,0 km/h (2 Bft) O 84 0 min 0,000 mm 0,0 UV-I 0 W/m 11,9 C 14,6 C 9,7 km/h (2 Bft) 96,00 %
08.08.2017 03:02 14,7 C 23,3 C 84 % 1013,3 hPa 0,0 l/m 5,4 km/h (1 Bft) O 84 0 min 0,000 mm 0,0 UV-I 0 W/m 12,0 C 14,7 C 8,0 km/h (2 Bft) 94,00 %
08.08.2017 03:04 14,7 C 23,3 C 84 % 1013,3 hPa 0,0 l/m 5,0 km/h (1 Bft) O-NO 69 0 min 0,000 mm 0,0 UV-I 0 W/m 12,0 C 14,7 C 8,0 km/h (2 Bft) 97,87 %
08.08.2017 03:06 14,7 C 23,3 C 84 % 1013,3 hPa 0,0 l/m 6,3 km/h (2 Bft) O 80 0 min 0,000 mm 0,0 UV-I 0 W/m 12,0 C 14,7 C 8,0 km/h (2 Bft) 97,44 %
08.08.2017 03:08 14,7 C 23,3 C 84 % 1013,3 hPa 0,0 l/m 8,1 km/h (2 Bft) O-NO 75 0 min 0,000 mm 0,0 UV-I 0 W/m 12,0 C 13,7 C 12,9 km/h (3 Bft) 96,36 %
08.08.2017 03:10 14,8 C 23,3 C 84 % 1013,3 hPa 0,0 l/m 6,8 km/h (2 Bft) O-NO 76 0 min 0,000 mm 0,0 UV-I 0 W/m 12,1 C 14,6 C 12,9 km/h (3 Bft) 96,00 %
08.08.2017 03:12 14,8 C 23,3 C 83 % 1013,3 hPa 0,0 l/m 8,3 km/h (2 Bft) O 80 0 min 0,000 mm 0,0 UV-I 0 W/m 11,9 C 13,7 C 12,9 km/h (3 Bft) 97,44 %
08.08.2017 03:14 14,7 C 23,3 C 83 % 1013,3 hPa 0,0 l/m 6,2 km/h (2 Bft) O-NO 67 0 min 0,000 mm 0,0 UV-I 0 W/m 11,8 C 14,7 C 9,7 km/h (2 Bft) 98,00 %
08.08.2017 03:16 14,7 C 23,3 C 83 % 1013,2 hPa 0,0 l/m 9,9 km/h (2 Bft) O-NO 67 0 min 0,000 mm 0,0 UV-I 0 W/m 11,8 C 12,8 C 14,5 km/h (3 Bft) 98,11 %
08.08.2017 03:18 14,8 C 23,3 C 83 % 1013,2 hPa 0,0 l/m 8,6 km/h (2 Bft) O-NO 70 0 min 0,000 mm 0,0 UV-I 0 W/m 11,9 C 13,6 C 12,9 km/h (3 Bft) 100,00 %
08.08.2017 03:20 14,8 C 23,3 C 83 % 1013,1 hPa 0,0 l/m 10,5 km/h (2 Bft) O-NO 70 0 min 0,000 mm 0,0 UV-I 0 W/m 11,9 C 12,7 C 14,5 km/h (3 Bft) 100,00 %
08.08.2017 03:22 14,8 C 23,3 C 83 % 1013,1 hPa 0,0 l/m 9,9 km/h (2 Bft) O-NO 71 0 min 0,000 mm 0,0 UV-I 0 W/m 11,9 C 12,9 C 14,5 km/h (3 Bft) 100,00 %
08.08.2017 03:24 14,8 C 23,3 C 83 % 1013,0 hPa 0,0 l/m 8,9 km/h (2 Bft) O-SO 113 0 min 0,000 mm 0,0 UV-I 0 W/m 11,9 C 13,4 C 14,5 km/h (3 Bft) 100,00 %
08.08.2017 03:26 14,8 C 23,3 C 83 % 1013,1 hPa 0,0 l/m 6,8 km/h (2 Bft) O 95 0 min 0,000 mm 0,0 UV-I 0 W/m 11,9 C 14,6 C 12,9 km/h (3 Bft) 100,00 %
08.08.2017 03:28 14,8 C 23,3 C 83 % 1013,0 hPa 0,0 l/m 8,3 km/h (2 Bft) O 89 0 min 0,000 mm 0,0 UV-I 0 W/m 11,9 C 13,7 C 12,9 km/h (3 Bft) 97,87 %
08.08.2017 03:30 14,8 C 23,3 C 83 % 1013,0 hPa 0,0 l/m 6,9 km/h (2 Bft) O-NO 70 0 min 0,000 mm 0,0 UV-I 0 W/m 11,9 C 14,5 C 12,9 km/h (3 Bft) 100,00 %
08.08.2017 03:32 14,8 C 23,3 C 83 % 1013,0 hPa 0,0 l/m 6,9 km/h (2 Bft) O-NO 73 0 min 0,000 mm 0,0 UV-I 0 W/m 11,9 C 14,5 C 12,9 km/h (3 Bft) 100,00 %
08.08.2017 03:34 14,8 C 23,3 C 83 % 1013,0 hPa 0,0 l/m 9,4 km/h (2 Bft) O-SO 103 0 min 0,000 mm 0,0 UV-I 0 W/m 11,9 C 13,2 C 14,5 km/h (3 Bft) 100,00 %
08.08.2017 03:36 14,8 C 23,3 C 83 % 1013,0 hPa 0,0 l/m 10,2 km/h (2 Bft) O 92 0 min 0,000 mm 0,0 UV-I 0 W/m 11,9 C 12,8 C 14,5 km/h (3 Bft) 97,87 %
08.08.2017 03:38 14,7 C 23,3 C 84 % 1012,9 hPa 0,0 l/m 10,4 km/h (2 Bft) O 87 0 min 0,000 mm 0,0 UV-I 0 W/m 12,0 C 12,6 C 16,1 km/h (3 Bft) 100,00 %
08.08.2017 03:40 14,7 C 23,3 C 84 % 1012,9 hPa 0,0 l/m 8,1 km/h (2 Bft) O 89 0 min 0,000 mm 0,0 UV-I 0 W/m 12,0 C 13,7 C 14,5 km/h (3 Bft) 100,00 %
08.08.2017 03:42 14,7 C 23,3 C 84 % 1012,9 hPa 0,0 l/m 8,0 km/h (2 Bft) O-NO 69 0 min 0,000 mm 0,0 UV-I 0 W/m 12,0 C 13,8 C 12,9 km/h (3 Bft) 98,00 %
08.08.2017 03:44 14,7 C 23,3 C 84 % 1013,0 hPa 0,0 l/m 11,5 km/h (2 Bft) O 85 0 min 0,000 mm 0,0 UV-I 0 W/m 12,0 C 12,1 C 17,7 km/h (3 Bft) 97,87 %
08.08.2017 03:46 14,7 C 23,3 C 84 % 1013,0 hPa 0,0 l/m 12,1 km/h (2 Bft) O 88 0 min 0,000 mm 0,0 UV-I 0 W/m 12,0 C 11,9 C 17,7 km/h (3 Bft) 100,00 %
08.08.2017 03:48 14,7 C 23,3 C 83 % 1013,0 hPa 0,0 l/m 6,7 km/h (2 Bft) O 81 0 min 0,000 mm 0,0 UV-I 0 W/m 11,8 C 14,5 C 12,9 km/h (3 Bft) 100,00 %
08.08.2017 03:50 14,8 C 23,3 C 83 % 1013,0 hPa 0,0 l/m 9,8 km/h (2 Bft) O-NO 66 0 min 0,000 mm 0,0 UV-I 0 W/m 11,9 C 13,0 C 14,5 km/h (3 Bft) 100,00 %
08.08.2017 03:52 14,7 C 23,3 C 83 % 1013,0 hPa 0,0 l/m 8,0 km/h (2 Bft) O 84 0 min 0,000 mm 0,0 UV-I 0 W/m 11,8 C 13,8 C 12,9 km/h (3 Bft) 100,00 %
08.08.2017 03:54 14,7 C 23,3 C 83 % 1012,9 hPa 0,0 l/m 9,7 km/h (2 Bft) O 86 0 min 0,000 mm 0,0 UV-I 0 W/m 11,8 C 12,9 C 12,9 km/h (3 Bft) 95,74 %
08.08.2017 03:56 14,7 C 23,3 C 84 % 1012,9 hPa 0,0 l/m 8,3 km/h (2 Bft) O-NO 74 0 min 0,000 mm 0,0 UV-I 0 W/m 12,0 C 13,6 C 14,5 km/h (3 Bft) 100,00 %
08.08.2017 03:58 14,7 C 23,3 C 84 % 1012,8 hPa 0,0 l/m 9,0 km/h (2 Bft) O-NO 67 0 min 0,000 mm 0,0 UV-I 0 W/m 12,0 C 13,3 C 12,9 km/h (3 Bft) 100,00 %
08.08.2017 04:00 14,7 C 23,3 C 84 % 1012,9 hPa 0,0 l/m 8,8 km/h (2 Bft) NO 54 0 min 0,025 mm 0,0 UV-I 0 W/m 12,0 C 13,4 C 12,9 km/h (3 Bft) 97,37 %
08.08.2017 04:02 14,7 C 23,3 C 84 % 1012,9 hPa 0,0 l/m 8,6 km/h (2 Bft) O 85 0 min 0,000 mm 0,0 UV-I 0 W/m 12,0 C 13,5 C 12,9 km/h (3 Bft) 100,00 %
08.08.2017 04:04 14,6 C 23,3 C 84 % 1012,9 hPa 0,0 l/m 8,0 km/h (2 Bft) NO 48 0 min 0,000 mm 0,0 UV-I 0 W/m 11,9 C 13,7 C 11,3 km/h (2 Bft) 100,00 %
08.08.2017 04:06 14,6 C 23,3 C 84 % 1012,8 hPa 0,0 l/m 8,5 km/h (2 Bft) O-NO 65 0 min 0,000 mm 0,0 UV-I 0 W/m 11,9 C 13,4 C 12,9 km/h (3 Bft) 98,00 %
08.08.2017 04:08 14,6 C 23,3 C 84 % 1012,7 hPa 0,0 l/m 10,1 km/h (2 Bft) O-NO 63 0 min 0,000 mm 0,0 UV-I 0 W/m 11,9 C 12,6 C 14,5 km/h (3 Bft) 100,00 %
08.08.2017 04:10 14,6 C 23,3 C 84 % 1012,6 hPa 0,0 l/m 9,9 km/h (2 Bft) O-NO 74 0 min 0,000 mm 0,0 UV-I 0 W/m 11,9 C 12,7 C 14,5 km/h (3 Bft) 100,00 %
08.08.2017 04:12 14,6 C 23,3 C 84 % 1012,6 hPa 0,0 l/m 12,4 km/h (3 Bft) O 89 0 min 0,000 mm 0,0 UV-I 0 W/m 11,9 C 11,7 C 17,7 km/h (3 Bft) 100,00 %
08.08.2017 04:14 14,5 C 23,3 C 84 % 1012,6 hPa 0,0 l/m 8,4 km/h (2 Bft) SO 128 0 min 0,000 mm 0,0 UV-I 0 W/m 11,8 C 13,4 C 14,5 km/h (3 Bft) 100,00 %
08.08.2017 04:16 14,5 C 23,3 C 85 % 1012,6 hPa 0,0 l/m 8,3 km/h (2 Bft) O 84 0 min 0,000 mm 0,0 UV-I 0 W/m 12,0 C 13,4 C 12,9 km/h (3 Bft) 100,00 %
08.08.2017 04:18 14,4 C 23,3 C 85 % 1012,5 hPa 0,0 l/m 7,3 km/h (2 Bft) O-NO 75 0 min 0,000 mm 0,0 UV-I 0 W/m 11,9 C 13,9 C 12,9 km/h (3 Bft) 100,00 %
08.08.2017 04:20 14,4 C 23,3 C 85 % 1012,5 hPa 0,0 l/m 9,1 km/h (2 Bft) O-NO 61 0 min 0,000 mm 0,0 UV-I 0 W/m 11,9 C 12,9 C 16,1 km/h (3 Bft) 100,00 %
08.08.2017 04:22 14,4 C 23,3 C 85 % 1012,5 hPa 0,0 l/m 11,7 km/h (2 Bft) O 86 0 min 0,000 mm 0,0 UV-I 0 W/m 11,9 C 11,7 C 17,7 km/h (3 Bft) 93,62 %
08.08.2017 04:24 14,4 C 23,3 C 85 % 1012,5 hPa 0,0 l/m 8,9 km/h (2 Bft) O-NO 74 0 min 0,000 mm 0,0 UV-I 0 W/m 11,9 C 13,0 C 16,1 km/h (3 Bft) 100,00 %
08.08.2017 04:26 14,4 C 23,3 C 85 % 1012,5 hPa 0,0 l/m 8,0 km/h (2 Bft) O-SO 108 0 min 0,000 mm 0,0 UV-I 0 W/m 11,9 C 13,5 C 12,9 km/h (3 Bft) 98,00 %
08.08.2017 04:28 14,4 C 22,8 C 85 % 1012,5 hPa 0,0 l/m 8,0 km/h (2 Bft) SO 126 0 min 0,000 mm 0,0 UV-I 0 W/m 11,9 C 13,5 C 14,5 km/h (3 Bft) 100,00 %
08.08.2017 04:30 14,4 C 22,8 C 85 % 1012,5 hPa 0,0 l/m 6,4 km/h (2 Bft) O-SO 119 0 min 0,000 mm 0,0 UV-I 0 W/m 11,9 C 14,4 C 12,9 km/h (3 Bft) 94,87 %
08.08.2017 04:32 14,3 C 23,3 C 85 % 1012,5 hPa 0,0 l/m 5,9 km/h (2 Bft) O-NO 65 0 min 0,000 mm 0,0 UV-I 0 W/m 11,8 C 14,3 C 14,5 km/h (3 Bft) 98,04 %
08.08.2017 04:34 14,3 C 23,3 C 85 % 1012,5 hPa 0,0 l/m 7,0 km/h (2 Bft) O-NO 71 0 min 0,000 mm 0,0 UV-I 0 W/m 11,8 C 13,9 C 12,9 km/h (3 Bft) 97,87 %
08.08.2017 04:36 14,3 C 22,8 C 85 % 1012,5 hPa 0,0 l/m 7,3 km/h (2 Bft) O-NO 75 0 min 0,000 mm 0,0 UV-I 0 W/m 11,8 C 13,8 C 12,9 km/h (3 Bft) 94,00 %
08.08.2017 04:38 14,2 C 22,8 C 85 % 1012,5 hPa 0,0 l/m 7,1 km/h (2 Bft) O 98 0 min 0,000 mm 0,0 UV-I 0 W/m 11,7 C 13,8 C 11,3 km/h (2 Bft) 97,37 %
08.08.2017 04:40 14,2 C 22,8 C 86 % 1012,4 hPa 0,0 l/m 6,5 km/h (2 Bft) O 82 0 min 0,000 mm 0,0 UV-I 0 W/m 11,9 C 14,2 C 12,9 km/h (3 Bft) 97,87 %
08.08.2017 04:42 14,2 C 22,8 C 86 % 1012,4 hPa 0,0 l/m 6,5 km/h (2 Bft) O 86 0 min 0,000 mm 0,0 UV-I 0 W/m 11,9 C 14,2 C 14,5 km/h (3 Bft) 97,87 %
08.08.2017 04:44 14,2 C 22,8 C 86 % 1012,4 hPa 0,0 l/m 7,2 km/h (2 Bft) O-NO 74 0 min 0,000 mm 0,0 UV-I 0 W/m 11,9 C 13,7 C 11,3 km/h (2 Bft) 97,87 %
08.08.2017 04:46 14,2 C 22,8 C 86 % 1012,4 hPa 0,0 l/m 7,1 km/h (2 Bft) O-NO 67 0 min 0,000 mm 0,0 UV-I 0 W/m 11,9 C 13,8 C 11,3 km/h (2 Bft) 98,00 %
08.08.2017 04:48 14,2 C 22,8 C 86 % 1012,4 hPa 0,0 l/m 7,6 km/h (2 Bft) NO 50 0 min 0,000 mm 0,0 UV-I 0 W/m 11,9 C 13,5 C 11,3 km/h (2 Bft) 97,87 %
08.08.2017 04:50 14,2 C 22,8 C 86 % 1012,5 hPa 0,0 l/m 8,6 km/h (2 Bft) O-NO 67 0 min 0,000 mm 0,0 UV-I 0 W/m 11,9 C 12,9 C 14,5 km/h (3 Bft) 98,00 %
08.08.2017 04:52 14,2 C 22,8 C 86 % 1012,4 hPa 0,0 l/m 7,3 km/h (2 Bft) O 79 0 min 0,000 mm 0,0 UV-I 0 W/m 11,9 C 13,7 C 12,9 km/h (3 Bft) 98,00 %
08.08.2017 04:54 14,2 C 22,8 C 86 % 1012,5 hPa 0,0 l/m 7,1 km/h (2 Bft) O 82 0 min 0,000 mm 0,0 UV-I 0 W/m 11,9 C 13,8 C 12,9 km/h (3 Bft) 97,87 %
08.08.2017 04:56 14,2 C 22,8 C 86 % 1012,4 hPa 0,0 l/m 7,3 km/h (2 Bft) NO 54 0 min 0,000 mm 0,0 UV-I 0 W/m 11,9 C 13,7 C 12,9 km/h (3 Bft) 95,74 %
08.08.2017 04:58 14,1 C 22,8 C 86 % 1012,4 hPa 0,0 l/m 9,9 km/h (2 Bft) O 93 0 min 0,000 mm 0,0 UV-I 0 W/m 11,8 C 12,2 C 16,1 km/h (3 Bft) 97,37 %
08.08.2017 05:00 14,1 C 22,8 C 86 % 1012,4 hPa 0,0 l/m 9,7 km/h (2 Bft) O 82 0 min 0,026 mm 0,0 UV-I 0 W/m 11,8 C 12,3 C 16,1 km/h (3 Bft) 97,87 %
08.08.2017 05:02 14,1 C 22,8 C 86 % 1012,4 hPa 0,0 l/m 9,7 km/h (2 Bft) NO 49 0 min 0,000 mm 0,0 UV-I 0 W/m 11,8 C 12,3 C 16,1 km/h (3 Bft) 95,83 %
08.08.2017 05:04 14,1 C 22,8 C 86 % 1012,4 hPa 0,0 l/m 7,1 km/h (2 Bft) O-NO 65 0 min 0,000 mm 0,0 UV-I 0 W/m 11,8 C 13,7 C 14,5 km/h (3 Bft) 100,00 %
08.08.2017 05:06 14,2 C 22,8 C 86 % 1012,3 hPa 0,0 l/m 9,9 km/h (2 Bft) O-NO 71 0 min 0,000 mm 0,0 UV-I 0 W/m 11,9 C 12,3 C 16,1 km/h (3 Bft) 98,00 %
08.08.2017 05:08 14,1 C 22,8 C 86 % 1012,3 hPa 0,0 l/m 8,7 km/h (2 Bft) O-NO 75 0 min 0,000 mm 0,0 UV-I 0 W/m 11,8 C 12,8 C 16,1 km/h (3 Bft) 100,00 %
08.08.2017 05:10 14,1 C 22,8 C 86 % 1012,3 hPa 0,0 l/m 9,1 km/h (2 Bft) O-SO 102 0 min 0,000 mm 0,0 UV-I 0 W/m 11,8 C 12,6 C 14,5 km/h (3 Bft) 100,00 %
08.08.2017 05:12 14,1 C 22,8 C 86 % 1012,4 hPa 0,0 l/m 6,7 km/h (2 Bft) O 84 0 min 0,000 mm 0,0 UV-I 0 W/m 11,8 C 13,9 C 14,5 km/h (3 Bft) 100,00 %
08.08.2017 05:14 14,1 C 22,8 C 86 % 1012,4 hPa 0,0 l/m 8,8 km/h (2 Bft) O-NO 71 0 min 0,000 mm 0,0 UV-I 0 W/m 11,8 C 12,7 C 12,9 km/h (3 Bft) 97,87 %
08.08.2017 05:16 14,1 C 22,8 C 86 % 1012,3 hPa 0,0 l/m 8,9 km/h (2 Bft) O 82 0 min 0,000 mm 0,0 UV-I 0 W/m 11,8 C 12,7 C 16,1 km/h (3 Bft) 97,14 %
08.08.2017 05:18 14,0 C 22,8 C 86 % 1012,4 hPa 0,0 l/m 8,2 km/h (2 Bft) O 92 0 min 0,000 mm 0,0 UV-I 0 W/m 11,7 C 12,9 C 11,3 km/h (2 Bft) 100,00 %
08.08.2017 05:20 14,1 C 22,8 C 86 % 1012,4 hPa 0,0 l/m 8,2 km/h (2 Bft) O 90 0 min 0,000 mm 0,0 UV-I 0 W/m 11,8 C 13,0 C 14,5 km/h (3 Bft) 100,00 %
08.08.2017 05:23 14,1 C 22,8 C 86 % 1012,4 hPa 0,0 l/m 8,7 km/h (2 Bft) O 90 0 min 0,000 mm 0,0 UV-I 0 W/m 11,8 C 12,8 C 16,1 km/h (3 Bft) 98,63 %
08.08.2017 05:24 14,1 C 22,8 C 86 % 1012,4 hPa 0,0 l/m 6,1 km/h (2 Bft) O-SO 102 0 min 0,000 mm 0,0 UV-I 0 W/m 11,8 C 14,1 C 11,3 km/h (2 Bft) 100,00 %
08.08.2017 05:26 14,0 C 22,8 C 86 % 1012,4 hPa 0,0 l/m 7,9 km/h (2 Bft) O-SO 119 0 min 0,000 mm 0,0 UV-I 0 W/m 11,7 C 13,1 C 14,5 km/h (3 Bft) 100,00 %
08.08.2017 05:28 14,0 C 22,8 C 87 % 1012,4 hPa 0,0 l/m 7,0 km/h (2 Bft) O-NO 67 0 min 0,000 mm 0,0 UV-I 0 W/m 11,9 C 13,6 C 12,9 km/h (3 Bft) 100,00 %
08.08.2017 05:30 14,0 C 22,8 C 87 % 1012,4 hPa 0,0 l/m 9,7 km/h (2 Bft) O-SO 102 0 min 0,000 mm 0,0 UV-I 0 W/m 11,9 C 12,2 C 14,5 km/h (3 Bft) 97,87 %
08.08.2017 05:32 14,0 C 22,8 C 87 % 1012,3 hPa 0,0 l/m 9,9 km/h (2 Bft) O-SO 109 0 min 0,000 mm 0,0 UV-I 0 W/m 11,9 C 12,1 C 14,5 km/h (3 Bft) 95,74 %
08.08.2017 05:34 14,0 C 22,8 C 87 % 1012,3 hPa 0,0 l/m 6,1 km/h (2 Bft) O-NO 76 0 min 0,000 mm 0,0 UV-I 0 W/m 11,9 C 14,0 C 8,0 km/h (2 Bft) 97,87 %
08.08.2017 05:36 13,9 C 22,8 C 87 % 1012,4 hPa 0,0 l/m 8,2 km/h (2 Bft) O 94 0 min 0,000 mm 0,0 UV-I 5 W/m 11,8 C 12,8 C 14,5 km/h (3 Bft) 100,00 %
08.08.2017 05:38 13,9 C 22,8 C 87 % 1012,3 hPa 0,0 l/m 8,8 km/h (2 Bft) O 84 0 min 0,000 mm 0,0 UV-I 5 W/m 11,8 C 12,5 C 12,9 km/h (3 Bft) 100,00 %
08.08.2017 05:40 13,9 C 22,8 C 87 % 1012,4 hPa 0,0 l/m 10,2 km/h (2 Bft) NO 54 0 min 0,000 mm 0,0 UV-I 5 W/m 11,8 C 11,8 C 17,7 km/h (3 Bft) 100,00 %
08.08.2017 05:42 13,9 C 22,8 C 87 % 1012,4 hPa 0,0 l/m 9,9 km/h (2 Bft) O-NO 69 0 min 0,000 mm 0,0 UV-I 5 W/m 11,8 C 12,0 C 14,5 km/h (3 Bft) 100,00 %
08.08.2017 05:44 13,9 C 22,8 C 87 % 1012,3 hPa 0,0 l/m 9,4 km/h (2 Bft) O 84 0 min 0,000 mm 0,0 UV-I 7 W/m 11,8 C 12,2 C 12,9 km/h (3 Bft) 100,00 %
08.08.2017 05:46 13,9 C 22,8 C 87 % 1012,3 hPa 0,0 l/m 8,0 km/h (2 Bft) O 89 0 min 0,000 mm 0,0 UV-I 7 W/m 11,8 C 12,9 C 12,9 km/h (3 Bft) 100,00 %
08.08.2017 05:48 13,9 C 22,8 C 87 % 1012,3 hPa 0,0 l/m 6,3 km/h (2 Bft) O-NO 68 0 min 0,000 mm 0,0 UV-I 7 W/m 11,8 C 13,9 C 9,7 km/h (2 Bft) 100,00 %
08.08.2017 05:50 13,9 C 22,8 C 87 % 1012,3 hPa 0,0 l/m 6,2 km/h (2 Bft) O-NO 68 0 min 0,000 mm 0,0 UV-I 9 W/m 11,8 C 13,9 C 9,7 km/h (2 Bft) 97,87 %
08.08.2017 05:52 13,9 C 22,8 C 87 % 1012,3 hPa 0,0 l/m 5,7 km/h (1 Bft) O-NO 76 0 min 0,000 mm 0,0 UV-I 9 W/m 11,8 C 13,9 C 11,3 km/h (2 Bft) 97,87 %
08.08.2017 05:54 13,8 C 22,8 C 87 % 1012,3 hPa 0,0 l/m 7,1 km/h (2 Bft) O 81 0 min 0,000 mm 0,0 UV-I 11 W/m 11,7 C 13,4 C 9,7 km/h (2 Bft) 97,44 %
08.08.2017 05:56 13,8 C 22,8 C 87 % 1012,3 hPa 0,0 l/m 6,6 km/h (2 Bft) O 85 0 min 0,000 mm 0,0 UV-I 12 W/m 11,7 C 13,7 C 12,9 km/h (3 Bft) 98,00 %
08.08.2017 05:58 13,8 C 22,8 C 87 % 1012,3 hPa 0,0 l/m 6,1 km/h (2 Bft) O-NO 71 0 min 0,000 mm 0,0 UV-I 16 W/m 11,7 C 13,8 C 8,0 km/h (2 Bft) 95,74 %
08.08.2017 06:00 13,8 C 22,8 C 87 % 1012,3 hPa 0,0 l/m 5,6 km/h (1 Bft) O-NO 71 2 min 0,000 mm 0,0 UV-I 19 W/m 11,7 C 13,8 C 11,3 km/h (2 Bft) 97,87 %
08.08.2017 06:02 13,8 C 22,8 C 87 % 1012,2 hPa 0,0 l/m 6,8 km/h (2 Bft) O-NO 65 2 min 0,025 mm 0,0 UV-I 19 W/m 11,7 C 13,6 C 9,7 km/h (2 Bft) 97,87 %
08.08.2017 06:04 13,7 C 22,8 C 87 % 1012,3 hPa 0,0 l/m 6,8 km/h (2 Bft) O-NO 74 2 min 0,000 mm 0,0 UV-I 17 W/m 11,6 C 13,5 C 9,7 km/h (2 Bft) 98,00 %
08.08.2017 06:06 13,7 C 22,8 C 87 % 1012,2 hPa 0,0 l/m 6,7 km/h (2 Bft) O-NO 68 0 min 0,000 mm 0,0 UV-I 16 W/m 11,6 C 13,5 C 12,9 km/h (3 Bft) 97,87 %
08.08.2017 06:08 13,7 C 22,8 C 88 % 1012,3 hPa 0,0 l/m 7,0 km/h (2 Bft) O-NO 69 0 min 0,000 mm 0,0 UV-I 17 W/m 11,7 C 13,3 C 11,3 km/h (2 Bft) 97,87 %
08.08.2017 06:10 13,7 C 22,8 C 88 % 1012,3 hPa 0,0 l/m 5,8 km/h (2 Bft) O-NO 61 0 min 0,000 mm 0,0 UV-I 19 W/m 11,7 C 13,7 C 11,3 km/h (2 Bft) 95,74 %
08.08.2017 06:12 13,7 C 22,8 C 88 % 1012,3 hPa 0,0 l/m 6,1 km/h (2 Bft) O-NO 78 2 min 0,000 mm 0,0 UV-I 30 W/m 11,7 C 13,7 C 9,7 km/h (2 Bft) 95,74 %
08.08.2017 06:14 13,7 C 22,8 C 88 % 1012,3 hPa 0,0 l/m 6,0 km/h (2 Bft) O-NO 67 2 min 0,000 mm 0,0 UV-I 31 W/m 11,7 C 13,7 C 11,3 km/h (2 Bft) 97,87 %
08.08.2017 06:16 13,7 C 22,8 C 88 % 1012,3 hPa 0,0 l/m 7,9 km/h (2 Bft) O 86 0 min 0,000 mm 0,0 UV-I 29 W/m 11,7 C 12,8 C 12,9 km/h (3 Bft) 97,87 %
08.08.2017 06:18 13,7 C 22,8 C 88 % 1012,3 hPa 0,0 l/m 7,8 km/h (2 Bft) O 92 2 min 0,000 mm 0,0 UV-I 46 W/m 11,7 C 12,9 C 11,3 km/h (2 Bft) 97,87 %
08.08.2017 06:20 13,8 C 22,8 C 88 % 1012,3 hPa 0,0 l/m 5,2 km/h (1 Bft) O 86 2 min 0,000 mm 0,0 UV-I 51 W/m 11,8 C 13,8 C 11,3 km/h (2 Bft) 97,22 %
08.08.2017 06:22 13,8 C 22,8 C 88 % 1012,3 hPa 0,0 l/m 5,6 km/h (1 Bft) O-NO 72 2 min 0,000 mm 0,0 UV-I 53 W/m 11,8 C 13,8 C 9,7 km/h (2 Bft) 98,00 %
08.08.2017 06:24 13,8 C 22,8 C 88 % 1012,3 hPa 0,0 l/m 4,0 km/h (1 Bft) O-NO 76 2 min 0,000 mm 0,0 UV-I 55 W/m 11,8 C 13,8 C 6,4 km/h (2 Bft) 97,87 %
08.08.2017 06:26 13,8 C 22,8 C 88 % 1012,3 hPa 0,0 l/m 5,2 km/h (1 Bft) O 86 2 min 0,000 mm 0,0 UV-I 60 W/m 11,8 C 13,8 C 9,7 km/h (2 Bft) 97,87 %
08.08.2017 06:30 13,8 C 22,8 C 88 % 1012,3 hPa 0,0 l/m 7,0 km/h (2 Bft) O-NO 67 4 min 0,000 mm 0,0 UV-I 68 W/m 11,8 C 13,4 C 14,5 km/h (3 Bft) 100,00 %
08.08.2017 06:32 13,9 C 22,8 C 88 % 1012,3 hPa 0,0 l/m 4,7 km/h (1 Bft) O-NO 75 2 min 0,000 mm 0,0 UV-I 72 W/m 11,9 C 13,9 C 8,0 km/h (2 Bft) 96,23 %
08.08.2017 06:34 13,9 C 22,8 C 88 % 1012,4 hPa 0,0 l/m 7,8 km/h (2 Bft) O-NO 76 2 min 0,000 mm 0,0 UV-I 76 W/m 11,9 C 13,1 C 14,5 km/h (3 Bft) 94,44 %
08.08.2017 06:36 13,9 C 22,8 C 88 % 1012,3 hPa 0,0 l/m 5,4 km/h (1 Bft) O-NO 65 2 min 0,000 mm 0,0 UV-I 80 W/m 11,9 C 13,9 C 9,7 km/h (2 Bft) 94,34 %
08.08.2017 06:38 13,9 C 22,8 C 88 % 1012,3 hPa 0,0 l/m 6,2 km/h (2 Bft) O 80 2 min 0,000 mm 0,0 UV-I 85 W/m 11,9 C 13,9 C 9,7 km/h (2 Bft) 94,00 %
08.08.2017 06:40 13,9 C 22,8 C 88 % 1012,2 hPa 0,0 l/m 8,8 km/h (2 Bft) O-NO 74 2 min 0,000 mm 0,0 UV-I 89 W/m 11,9 C 12,5 C 12,9 km/h (3 Bft) 94,29 %
08.08.2017 06:42 14,0 C 22,8 C 88 % 1012,2 hPa 0,0 l/m 7,7 km/h (2 Bft) O-NO 71 2 min 0,000 mm 0,0 UV-I 93 W/m 12,0 C 13,2 C 12,9 km/h (3 Bft) 96,23 %
08.08.2017 06:44 14,0 C 22,8 C 88 % 1012,2 hPa 0,0 l/m 8,8 km/h (2 Bft) O-NO 67 2 min 0,000 mm 0,0 UV-I 97 W/m 12,0 C 12,6 C 12,9 km/h (3 Bft) 95,74 %
08.08.2017 06:46 14,1 C 22,8 C 88 % 1012,2 hPa 0,0 l/m 8,5 km/h (2 Bft) O-NO 76 2 min 0,000 mm 0,0 UV-I 101 W/m 12,1 C 12,9 C 12,9 km/h (3 Bft) 96,00 %
08.08.2017 06:48 14,1 C 22,8 C 88 % 1012,2 hPa 0,0 l/m 7,4 km/h (2 Bft) O-NO 73 2 min 0,000 mm 0,0 UV-I 105 W/m 12,1 C 13,5 C 14,5 km/h (3 Bft) 96,00 %
08.08.2017 06:50 14,1 C 22,8 C 88 % 1012,2 hPa 0,0 l/m 7,9 km/h (2 Bft) O 81 2 min 0,000 mm 0,0 UV-I 110 W/m 12,1 C 13,2 C 12,9 km/h (3 Bft) 94,74 %
08.08.2017 06:52 14,1 C 22,8 C 88 % 1012,2 hPa 0,0 l/m 7,5 km/h (2 Bft) O-NO 66 2 min 0,000 mm 0,0 UV-I 115 W/m 12,1 C 13,4 C 11,3 km/h (2 Bft) 96,43 %
08.08.2017 06:54 14,1 C 22,8 C 88 % 1012,2 hPa 0,0 l/m 7,4 km/h (2 Bft) O 85 2 min 0,000 mm 0,0 UV-I 120 W/m 12,1 C 13,5 C 11,3 km/h (2 Bft) 97,73 %
08.08.2017 06:56 14,2 C 22,8 C 88 % 1012,2 hPa 0,0 l/m 7,9 km/h (2 Bft) O-NO 69 2 min 0,000 mm 0,0 UV-I 124 W/m 12,2 C 13,3 C 11,3 km/h (2 Bft) 97,56 %
08.08.2017 06:58 14,2 C 22,8 C 88 % 1012,0 hPa 0,0 l/m 8,0 km/h (2 Bft) O-NO 78 2 min 0,000 mm 0,0 UV-I 129 W/m 12,2 C 13,3 C 12,9 km/h (3 Bft) 96,00 %
08.08.2017 07:00 14,2 C 22,8 C 88 % 1012,1 hPa 0,0 l/m 10,1 km/h (2 Bft) O-NO 61 2 min 0,051 mm 0,0 UV-I 134 W/m 12,2 C 12,2 C 16,1 km/h (3 Bft) 98,00 %
08.08.2017 07:02 14,3 C 22,8 C 88 % 1012,0 hPa 0,0 l/m 9,5 km/h (2 Bft) O-NO 69 2 min 0,000 mm 0,0 UV-I 140 W/m 12,3 C 12,6 C 16,1 km/h (3 Bft) 95,74 %
08.08.2017 07:04 14,3 C 22,8 C 88 % 1012,0 hPa 0,0 l/m 9,2 km/h (2 Bft) O-NO 57 2 min 0,000 mm 0,0 UV-I 144 W/m 12,3 C 12,7 C 14,5 km/h (3 Bft) 97,56 %
08.08.2017 07:06 14,3 C 22,8 C 88 % 1012,0 hPa 0,0 l/m 11,4 km/h (2 Bft) O-NO 71 2 min 0,000 mm 0,0 UV-I 149 W/m 12,3 C 11,7 C 17,7 km/h (3 Bft) 98,00 %
08.08.2017 07:08 14,4 C 22,8 C 87 % 1011,9 hPa 0,0 l/m 13,1 km/h (3 Bft) O-NO 59 2 min 0,000 mm 0,0 UV-I 154 W/m 12,3 C 11,1 C 16,1 km/h (3 Bft) 97,44 %
08.08.2017 07:10 14,5 C 22,8 C 87 % 1011,9 hPa 0,0 l/m 9,6 km/h (2 Bft) O 88 2 min 0,000 mm 0,0 UV-I 159 W/m 12,4 C 12,8 C 14,5 km/h (3 Bft) 100,00 %
08.08.2017 07:12 14,6 C 22,8 C 87 % 1011,8 hPa 0,0 l/m 9,9 km/h (2 Bft) O-NO 69 2 min 0,000 mm 0,0 UV-I 165 W/m 12,5 C 12,7 C 16,1 km/h (3 Bft) 100,00 %
08.08.2017 07:14 14,7 C 22,8 C 87 % 1011,8 hPa 0,0 l/m 11,1 km/h (2 Bft) O-NO 71 2 min 0,000 mm 0,0 UV-I 171 W/m 12,6 C 12,3 C 17,7 km/h (3 Bft) 97,96 %
08.08.2017 07:16 14,7 C 22,8 C 87 % 1011,8 hPa 0,0 l/m 12,5 km/h (3 Bft) O 91 2 min 0,000 mm 0,0 UV-I 176 W/m 12,6 C 11,7 C 17,7 km/h (3 Bft) 100,00 %
08.08.2017 07:18 14,8 C 22,8 C 86 % 1011,8 hPa 0,0 l/m 12,3 km/h (3 Bft) O-NO 74 2 min 0,000 mm 0,0 UV-I 182 W/m 12,5 C 11,9 C 17,7 km/h (3 Bft) 100,00 %
08.08.2017 07:20 14,8 C 22,8 C 86 % 1011,7 hPa 0,0 l/m 9,7 km/h (2 Bft) O 81 2 min 0,000 mm 0,0 UV-I 188 W/m 12,5 C 13,0 C 19,3 km/h (3 Bft) 100,00 %
08.08.2017 07:22 14,9 C 22,8 C 86 % 1011,7 hPa 0,0 l/m 12,3 km/h (3 Bft) O-NO 76 2 min 0,000 mm 0,0 UV-I 194 W/m 12,6 C 12,0 C 16,1 km/h (3 Bft) 100,00 %
08.08.2017 07:24 15,0 C 22,8 C 86 % 1011,7 hPa 0,0 l/m 12,8 km/h (3 Bft) O-NO 64 2 min 0,000 mm 0,0 UV-I 199 W/m 12,7 C 12,0 C 19,3 km/h (3 Bft) 100,00 %
08.08.2017 07:26 15,1 C 22,8 C 86 % 1011,6 hPa 0,0 l/m 10,3 km/h (2 Bft) O-NO 67 2 min 0,000 mm 0,0 UV-I 205 W/m 12,8 C 13,1 C 16,1 km/h (3 Bft) 98,00 %
08.08.2017 07:28 15,2 C 22,8 C 86 % 1011,6 hPa 0,0 l/m 10,6 km/h (2 Bft) NO 54 2 min 0,000 mm 0,0 UV-I 211 W/m 12,9 C 13,1 C 16,1 km/h (3 Bft) 98,11 %
08.08.2017 07:30 15,2 C 22,8 C 86 % 1011,6 hPa 0,0 l/m 8,9 km/h (2 Bft) O-NO 62 2 min 0,000 mm 0,0 UV-I 216 W/m 12,9 C 13,9 C 12,9 km/h (3 Bft) 100,00 %
08.08.2017 07:32 15,3 C 22,8 C 86 % 1011,6 hPa 0,0 l/m 8,4 km/h (2 Bft) O-NO 61 2 min 0,000 mm 0,0 UV-I 222 W/m 13,0 C 14,2 C 14,5 km/h (3 Bft) 98,11 %
08.08.2017 07:34 15,4 C 22,8 C 86 % 1011,6 hPa 0,0 l/m 8,7 km/h (2 Bft) O-NO 63 2 min 0,000 mm 0,0 UV-I 227 W/m 13,1 C 14,2 C 14,5 km/h (3 Bft) 100,00 %
08.08.2017 07:36 15,4 C 22,8 C 85 % 1011,7 hPa 0,0 l/m 11,0 km/h (2 Bft) O-NO 57 2 min 0,000 mm 0,0 UV-I 234 W/m 12,9 C 13,1 C 16,1 km/h (3 Bft) 98,00 %
08.08.2017 07:38 15,5 C 22,8 C 85 % 1011,7 hPa 0,0 l/m 10,3 km/h (2 Bft) NO 54 2 min 0,000 mm 0,2 UV-I 240 W/m 13,0 C 13,5 C 16,1 km/h (3 Bft) 100,00 %
08.08.2017 07:40 15,6 C 22,8 C 84 % 1011,7 hPa 0,0 l/m 9,5 km/h (2 Bft) NO 48 2 min 0,000 mm 0,5 UV-I 245 W/m 12,9 C 14,0 C 14,5 km/h (3 Bft) 100,00 %
08.08.2017 07:42 15,6 C 22,8 C 85 % 1011,7 hPa 0,0 l/m 8,7 km/h (2 Bft) O-NO 59 2 min 0,000 mm 0,5 UV-I 251 W/m 13,1 C 14,4 C 12,9 km/h (3 Bft) 100,00 %
08.08.2017 07:44 15,7 C 22,8 C 85 % 1011,8 hPa 0,0 l/m 8,7 km/h (2 Bft) O-NO 59 2 min 0,000 mm 0,5 UV-I 256 W/m 13,2 C 14,5 C 14,5 km/h (3 Bft) 100,00 %
08.08.2017 07:46 15,7 C 22,8 C 84 % 1011,8 hPa 0,0 l/m 14,7 km/h (3 Bft) O-NO 67 2 min 0,000 mm 0,5 UV-I 263 W/m 13,0 C 12,1 C 22,5 km/h (4 Bft) 97,87 %
08.08.2017 07:48 15,8 C 22,8 C 84 % 1011,9 hPa 0,0 l/m 12,1 km/h (2 Bft) NO 46 2 min 0,000 mm 0,5 UV-I 268 W/m 13,1 C 13,2 C 19,3 km/h (3 Bft) 98,11 %
08.08.2017 07:50 15,8 C 22,8 C 84 % 1011,9 hPa 0,0 l/m 7,7 km/h (2 Bft) NO 50 2 min 0,000 mm 0,6 UV-I 275 W/m 13,1 C 15,1 C 14,5 km/h (3 Bft) 100,00 %
08.08.2017 07:52 15,9 C 22,8 C 84 % 1011,9 hPa 0,0 l/m 7,4 km/h (2 Bft) O-NO 63 2 min 0,000 mm 0,6 UV-I 281 W/m 13,2 C 15,4 C 9,7 km/h (2 Bft) 100,00 %
08.08.2017 07:54 16,0 C 22,8 C 84 % 1012,0 hPa 0,0 l/m 6,7 km/h (2 Bft) NO 47 2 min 0,000 mm 0,6 UV-I 286 W/m 13,3 C 15,8 C 11,3 km/h (2 Bft) 98,00 %
08.08.2017 07:56 16,1 C 22,8 C 84 % 1011,9 hPa 0,0 l/m 11,2 km/h (2 Bft) NO 49 2 min 0,000 mm 0,6 UV-I 291 W/m 13,4 C 13,8 C 17,7 km/h (3 Bft) 100,00 %
08.08.2017 07:58 16,2 C 22,8 C 83 % 1011,9 hPa 0,0 l/m 8,9 km/h (2 Bft) O-NO 67 2 min 0,000 mm 0,7 UV-I 297 W/m 13,3 C 14,9 C 14,5 km/h (3 Bft) 100,00 %
08.08.2017 08:00 16,2 C 22,8 C 83 % 1011,8 hPa 0,0 l/m 9,8 km/h (2 Bft) NO 48 2 min 0,127 mm 0,7 UV-I 304 W/m 13,3 C 14,5 C 14,5 km/h (3 Bft) 100,00 %
08.08.2017 08:02 16,3 C 22,8 C 83 % 1011,8 hPa 0,0 l/m 10,9 km/h (2 Bft) NO 54 2 min 0,000 mm 0,7 UV-I 310 W/m 13,4 C 14,2 C 17,7 km/h (3 Bft) 100,00 %
08.08.2017 08:04 16,3 C 22,8 C 83 % 1011,8 hPa 0,0 l/m 11,5 km/h (2 Bft) O 81 2 min 0,000 mm 0,7 UV-I 316 W/m 13,4 C 14,0 C 17,7 km/h (3 Bft) 100,00 %
08.08.2017 08:06 16,4 C 22,8 C 82 % 1011,8 hPa 0,0 l/m 11,4 km/h (2 Bft) NO 51 2 min 0,000 mm 0,8 UV-I 321 W/m 13,3 C 14,1 C 16,1 km/h (3 Bft) 97,37 %
08.08.2017 08:08 16,5 C 22,8 C 83 % 1011,8 hPa 0,0 l/m 9,0 km/h (2 Bft) NO 55 2 min 0,000 mm 0,8 UV-I 327 W/m 13,6 C 15,2 C 14,5 km/h (3 Bft) 98,21 %
08.08.2017 08:10 16,7 C 22,8 C 83 % 1011,8 hPa 0,0 l/m 9,8 km/h (2 Bft) O-NO 57 2 min 0,000 mm 0,8 UV-I 333 W/m 13,8 C 15,1 C 20,9 km/h (4 Bft) 100,00 %
08.08.2017 08:12 16,7 C 22,8 C 82 % 1011,8 hPa 0,0 l/m 13,6 km/h (3 Bft) O-NO 73 2 min 0,000 mm 0,9 UV-I 339 W/m 13,6 C 13,7 C 19,3 km/h (3 Bft) 100,00 %
08.08.2017 08:14 16,7 C 22,8 C 82 % 1011,9 hPa 0,0 l/m 11,3 km/h (2 Bft) O-NO 78 2 min 0,000 mm 0,9 UV-I 345 W/m 13,6 C 14,5 C 16,1 km/h (3 Bft) 100,00 %
08.08.2017 08:16 16,8 C 22,8 C 82 % 1011,8 hPa 0,0 l/m 12,2 km/h (2 Bft) NO 44 2 min 0,000 mm 0,9 UV-I 352 W/m 13,7 C 14,3 C 16,1 km/h (3 Bft) 100,00 %
08.08.2017 08:18 16,8 C 22,8 C 81 % 1011,8 hPa 0,0 l/m 12,9 km/h (3 Bft) O 83 2 min 0,000 mm 0,9 UV-I 356 W/m 13,5 C 14,0 C 17,7 km/h (3 Bft) 100,00 %
08.08.2017 08:20 16,9 C 22,8 C 81 % 1011,8 hPa 0,0 l/m 14,1 km/h (3 Bft) O-NO 61 2 min 0,000 mm 1,0 UV-I 363 W/m 13,6 C 13,8 C 22,5 km/h (4 Bft) 100,00 %
08.08.2017 08:22 16,9 C 22,8 C 81 % 1011,7 hPa 0,0 l/m 13,5 km/h (3 Bft) NO 44 2 min 0,000 mm 1,0 UV-I 369 W/m 13,6 C 14,0 C 19,3 km/h (3 Bft) 100,00 %
08.08.2017 08:24 17,0 C 22,8 C 81 % 1011,7 hPa 0,0 l/m 11,5 km/h (2 Bft) NO 51 2 min 0,000 mm 1,0 UV-I 374 W/m 13,7 C 14,8 C 17,7 km/h (3 Bft) 96,00 %
08.08.2017 08:26 17,1 C 22,8 C 81 % 1011,7 hPa 0,0 l/m 16,3 km/h (3 Bft) O-NO 60 2 min 0,000 mm 1,1 UV-I 380 W/m 13,8 C 13,4 C 22,5 km/h (4 Bft) 100,00 %
08.08.2017 08:28 17,1 C 22,8 C 80 % 1011,7 hPa 0,0 l/m 16,7 km/h (3 Bft) O-NO 63 2 min 0,000 mm 1,1 UV-I 386 W/m 13,6 C 13,3 C 22,5 km/h (4 Bft) 100,00 %
08.08.2017 08:30 17,2 C 22,8 C 80 % 1011,6 hPa 0,0 l/m 17,4 km/h (3 Bft) O-NO 63 2 min 0,000 mm 1,1 UV-I 391 W/m 13,7 C 13,2 C 22,5 km/h (4 Bft) 98,21 %
08.08.2017 08:32 17,2 C 22,8 C 80 % 1011,7 hPa 0,0 l/m 14,4 km/h (3 Bft) O-NO 57 2 min 0,000 mm 1,1 UV-I 398 W/m 13,7 C 14,0 C 20,9 km/h (4 Bft) 97,73 %
08.08.2017 08:34 17,3 C 22,8 C 80 % 1011,7 hPa 0,0 l/m 17,9 km/h (3 Bft) O-NO 63 2 min 0,000 mm 1,2 UV-I 404 W/m 13,8 C 13,2 C 22,5 km/h (4 Bft) 97,62 %
08.08.2017 08:36 17,3 C 22,8 C 80 % 1011,6 hPa 0,0 l/m 13,4 km/h (3 Bft) O-NO 63 2 min 0,000 mm 1,2 UV-I 409 W/m 13,8 C 14,5 C 20,9 km/h (4 Bft) 98,00 %
08.08.2017 08:38 17,5 C 22,8 C 80 % 1011,6 hPa 0,0 l/m 14,3 km/h (3 Bft) O 85 2 min 0,000 mm 1,3 UV-I 413 W/m 14,0 C 14,4 C 22,5 km/h (4 Bft) 96,00 %
08.08.2017 08:40 17,6 C 22,8 C 79 % 1011,6 hPa 0,0 l/m 15,3 km/h (3 Bft) O-NO 73 2 min 0,000 mm 1,3 UV-I 418 W/m 13,9 C 14,3 C 20,9 km/h (4 Bft) 97,37 %
08.08.2017 08:42 17,7 C 22,8 C 79 % 1011,6 hPa 0,0 l/m 12,8 km/h (3 Bft) O-NO 74 2 min 0,000 mm 1,3 UV-I 426 W/m 14,0 C 15,1 C 19,3 km/h (3 Bft) 98,11 %
08.08.2017 08:44 17,7 C 22,8 C 79 % 1011,6 hPa 0,0 l/m 12,2 km/h (2 Bft) O-NO 71 2 min 0,000 mm 1,4 UV-I 431 W/m 14,0 C 15,3 C 17,7 km/h (3 Bft) 97,56 %
08.08.2017 08:46 17,8 C 22,8 C 79 % 1011,4 hPa 0,0 l/m 13,2 km/h (3 Bft) O-NO 59 2 min 0,000 mm 1,4 UV-I 438 W/m 14,1 C 15,1 C 17,7 km/h (3 Bft) 98,11 %
08.08.2017 08:48 17,9 C 22,8 C 78 % 1011,4 hPa 0,0 l/m 14,9 km/h (3 Bft) O-NO 66 2 min 0,000 mm 1,4 UV-I 442 W/m 14,0 C 14,7 C 20,9 km/h (4 Bft) 97,14 %
08.08.2017 08:50 17,9 C 22,8 C 79 % 1011,4 hPa 0,0 l/m 13,2 km/h (3 Bft) NO 56 2 min 0,000 mm 1,5 UV-I 449 W/m 14,2 C 15,2 C 20,9 km/h (4 Bft) 98,39 %
08.08.2017 08:52 18,0 C 22,8 C 79 % 1011,4 hPa 0,0 l/m 14,4 km/h (3 Bft) O-NO 59 2 min 0,000 mm 1,5 UV-I 454 W/m 14,3 C 15,0 C 19,3 km/h (3 Bft) 97,73 %
08.08.2017 08:54 18,1 C 22,8 C 79 % 1011,4 hPa 0,0 l/m 16,0 km/h (3 Bft) O-NO 71 2 min 0,000 mm 1,5 UV-I 460 W/m 14,4 C 14,7 C 20,9 km/h (4 Bft) 97,37 %
08.08.2017 08:56 18,1 C 22,8 C 79 % 1011,4 hPa 0,0 l/m 16,0 km/h (3 Bft) NO 46 2 min 0,000 mm 1,6 UV-I 465 W/m 14,4 C 14,7 C 20,9 km/h (4 Bft) 96,49 %
08.08.2017 08:58 18,2 C 22,8 C 78 % 1011,4 hPa 0,0 l/m 16,2 km/h (3 Bft) O-NO 64 2 min 0,000 mm 1,6 UV-I 470 W/m 14,3 C 14,8 C 20,9 km/h (4 Bft) 97,87 %
08.08.2017 09:00 18,3 C 22,8 C 77 % 1011,3 hPa 0,0 l/m 12,8 km/h (3 Bft) O-NO 75 2 min 0,254 mm 1,6 UV-I 476 W/m 14,2 C 15,8 C 17,7 km/h (3 Bft) 97,87 %
08.08.2017 09:02 18,3 C 22,8 C 78 % 1011,3 hPa 0,0 l/m 16,5 km/h (3 Bft) NO 53 2 min 0,000 mm 1,7 UV-I 481 W/m 14,4 C 14,8 C 20,9 km/h (4 Bft) 95,12 %
08.08.2017 09:04 18,4 C 22,8 C 78 % 1011,4 hPa 0,0 l/m 13,7 km/h (3 Bft) NO 55 2 min 0,000 mm 1,7 UV-I 487 W/m 14,5 C 15,7 C 17,7 km/h (3 Bft) 97,73 %
08.08.2017 09:06 18,6 C 22,8 C 77 % 1011,4 hPa 0,0 l/m 14,2 km/h (3 Bft) NO 53 2 min 0,000 mm 1,8 UV-I 493 W/m 14,5 C 15,8 C 19,3 km/h (3 Bft) 100,00 %
08.08.2017 09:08 18,6 C 22,8 C 77 % 1011,4 hPa 0,0 l/m 14,5 km/h (3 Bft) O-NO 57 2 min 0,000 mm 1,8 UV-I 498 W/m 14,5 C 15,7 C 20,9 km/h (4 Bft) 96,55 %
08.08.2017 09:10 18,6 C 22,8 C 76 % 1011,4 hPa 0,0 l/m 16,7 km/h (3 Bft) O-NO 78 2 min 0,000 mm 1,9 UV-I 502 W/m 14,3 C 15,1 C 20,9 km/h (4 Bft) 97,44 %
08.08.2017 09:12 18,7 C 22,8 C 77 % 1011,4 hPa 0,0 l/m 11,9 km/h (2 Bft) NO 42 2 min 0,000 mm 1,9 UV-I 509 W/m 14,6 C 16,6 C 19,3 km/h (3 Bft) 96,36 %
08.08.2017 09:14 18,8 C 22,8 C 78 % 1011,5 hPa 0,0 l/m 12,9 km/h (3 Bft) O-NO 66 2 min 0,000 mm 2,0 UV-I 513 W/m 14,9 C 16,4 C 17,7 km/h (3 Bft) 97,44 %
08.08.2017 09:16 18,9 C 22,8 C 76 % 1011,5 hPa 0,0 l/m 12,2 km/h (2 Bft) O-NO 63 2 min 0,000 mm 2,0 UV-I 519 W/m 14,6 C 16,7 C 19,3 km/h (3 Bft) 98,11 %
08.08.2017 09:18 18,9 C 22,8 C 76 % 1011,6 hPa 0,0 l/m 11,9 km/h (2 Bft) O-NO 75 2 min 0,000 mm 2,0 UV-I 524 W/m 14,6 C 16,8 C 17,7 km/h (3 Bft) 96,00 %
08.08.2017 09:20 19,1 C 22,8 C 77 % 1011,7 hPa 0,0 l/m 13,5 km/h (3 Bft) O-NO 64 2 min 0,000 mm 2,1 UV-I 531 W/m 15,0 C 16,6 C 19,3 km/h (3 Bft) 96,15 %
08.08.2017 09:22 19,2 C 22,8 C 75 % 1011,7 hPa 0,0 l/m 15,8 km/h (3 Bft) O-NO 70 2 min 0,000 mm 2,1 UV-I 534 W/m 14,7 C 16,1 C 20,9 km/h (4 Bft) 98,46 %
08.08.2017 09:24 19,1 C 22,8 C 75 % 1011,6 hPa 0,0 l/m 12,2 km/h (2 Bft) NO 44 2 min 0,000 mm 2,2 UV-I 540 W/m 14,6 C 16,9 C 17,7 km/h (3 Bft) 97,56 %
08.08.2017 09:26 19,1 C 22,8 C 75 % 1011,6 hPa 0,0 l/m 9,6 km/h (2 Bft) O-NO 58 2 min 0,000 mm 2,2 UV-I 545 W/m 14,6 C 17,8 C 16,1 km/h (3 Bft) 94,00 %
08.08.2017 09:28 19,2 C 22,8 C 75 % 1011,5 hPa 0,0 l/m 11,3 km/h (2 Bft) O-NO 69 2 min 0,000 mm 2,3 UV-I 549 W/m 14,7 C 17,3 C 17,7 km/h (3 Bft) 96,23 %
08.08.2017 09:30 19,3 C 22,8 C 76 % 1011,5 hPa 0,0 l/m 10,5 km/h (2 Bft) NO 44 2 min 0,000 mm 2,3 UV-I 555 W/m 15,0 C 17,7 C 16,1 km/h (3 Bft) 97,73 %
08.08.2017 09:32 19,6 C 22,8 C 78 % 1011,6 hPa 0,0 l/m 9,7 km/h (2 Bft) NO 47 2 min 0,000 mm 2,4 UV-I 560 W/m 15,7 C 18,3 C 16,1 km/h (3 Bft) 98,00 %
08.08.2017 09:34 19,7 C 22,8 C 77 % 1011,6 hPa 0,0 l/m 8,7 km/h (2 Bft) O-NO 61 2 min 0,000 mm 2,4 UV-I 565 W/m 15,5 C 18,8 C 14,5 km/h (3 Bft) 97,56 %
08.08.2017 09:36 19,8 C 22,8 C 75 % 1011,5 hPa 0,0 l/m 8,9 km/h (2 Bft) NO 52 2 min 0,000 mm 2,5 UV-I 569 W/m 15,2 C 18,8 C 14,5 km/h (3 Bft) 97,56 %
08.08.2017 09:38 19,8 C 22,8 C 77 % 1011,6 hPa 0,0 l/m 8,8 km/h (2 Bft) O-NO 61 2 min 0,000 mm 2,5 UV-I 574 W/m 15,6 C 18,8 C 14,5 km/h (3 Bft) 94,00 %
08.08.2017 09:40 19,9 C 22,8 C 75 % 1011,6 hPa 0,0 l/m 13,2 km/h (3 Bft) O-NO 63 2 min 0,000 mm 2,6 UV-I 578 W/m 15,3 C 17,6 C 19,3 km/h (3 Bft) 97,56 %
08.08.2017 09:42 20,0 C 22,8 C 75 % 1011,6 hPa 0,0 l/m 8,8 km/h (2 Bft) NO 56 2 min 0,000 mm 2,6 UV-I 583 W/m 15,4 C 19,1 C 19,3 km/h (3 Bft) 96,77 %
08.08.2017 09:44 20,0 C 22,8 C 73 % 1011,5 hPa 0,0 l/m 11,9 km/h (2 Bft) NO 48 2 min 0,000 mm 2,7 UV-I 589 W/m 15,0 C 18,1 C 17,7 km/h (3 Bft) 98,57 %
08.08.2017 09:46 20,0 C 22,8 C 73 % 1011,5 hPa 0,0 l/m 11,9 km/h (2 Bft) NO 50 2 min 0,000 mm 2,7 UV-I 595 W/m 15,0 C 18,1 C 17,7 km/h (3 Bft) 96,67 %
08.08.2017 09:48 20,0 C 22,8 C 72 % 1011,6 hPa 0,0 l/m 12,8 km/h (3 Bft) O-NO 57 2 min 0,000 mm 2,8 UV-I 600 W/m 14,8 C 17,8 C 19,3 km/h (3 Bft) 95,71 %
08.08.2017 09:50 20,0 C 22,8 C 73 % 1011,5 hPa 0,0 l/m 12,5 km/h (3 Bft) O-NO 67 2 min 0,000 mm 2,9 UV-I 604 W/m 15,0 C 17,9 C 19,3 km/h (3 Bft) 97,62 %
08.08.2017 09:52 20,1 C 22,8 C 74 % 1011,5 hPa 0,0 l/m 8,1 km/h (2 Bft) O-NO 72 2 min 0,000 mm 2,9 UV-I 609 W/m 15,3 C 19,4 C 14,5 km/h (3 Bft) 96,15 %
08.08.2017 09:54 20,1 C 22,8 C 74 % 1011,4 hPa 0,0 l/m 10,9 km/h (2 Bft) NO 44 2 min 0,000 mm 3,0 UV-I 612 W/m 15,3 C 18,5 C 17,7 km/h (3 Bft) 97,44 %
08.08.2017 09:56 20,3 C 22,8 C 75 % 1011,5 hPa 0,0 l/m 9,4 km/h (2 Bft) NO 45 2 min 0,000 mm 3,0 UV-I 618 W/m 15,7 C 19,2 C 16,1 km/h (3 Bft) 96,00 %
08.08.2017 09:58 20,4 C 22,8 C 75 % 1011,5 hPa 0,0 l/m 11,8 km/h (2 Bft) NO 46 2 min 0,000 mm 3,0 UV-I 622 W/m 15,8 C 18,5 C 17,7 km/h (3 Bft) 96,00 %
08.08.2017 10:00 20,4 C 22,8 C 73 % 1011,5 hPa 0,0 l/m 9,2 km/h (2 Bft) NO 52 2 min 0,355 mm 3,1 UV-I 628 W/m 15,4 C 19,3 C 14,5 km/h (3 Bft) 97,37 %
08.08.2017 10:02 20,5 C 22,8 C 73 % 1011,4 hPa 0,0 l/m 8,4 km/h (2 Bft) NO 46 2 min 0,000 mm 3,1 UV-I 632 W/m 15,5 C 19,7 C 11,3 km/h (2 Bft) 98,11 %
08.08.2017 10:04 20,6 C 22,8 C 72 % 1011,5 hPa 0,0 l/m 8,9 km/h (2 Bft) O-NO 69 2 min 0,000 mm 3,2 UV-I 636 W/m 15,4 C 19,7 C 14,5 km/h (3 Bft) 97,56 %
08.08.2017 10:06 20,6 C 22,8 C 73 % 1011,5 hPa 0,0 l/m 9,3 km/h (2 Bft) NO 44 2 min 0,000 mm 3,2 UV-I 642 W/m 15,6 C 19,5 C 14,5 km/h (3 Bft) 100,00 %
08.08.2017 10:08 20,7 C 22,8 C 73 % 1011,4 hPa 0,0 l/m 9,4 km/h (2 Bft) O-NO 63 2 min 0,000 mm 3,3 UV-I 647 W/m 15,7 C 19,6 C 14,5 km/h (3 Bft) 100,00 %
08.08.2017 10:10 20,7 C 22,8 C 72 % 1011,4 hPa 0,0 l/m 8,0 km/h (2 Bft) O-NO 78 2 min 0,000 mm 3,3 UV-I 652 W/m 15,5 C 20,1 C 16,1 km/h (3 Bft) 97,87 %
08.08.2017 10:12 20,8 C 22,8 C 73 % 1011,4 hPa 0,0 l/m 9,5 km/h (2 Bft) N-NO 24 2 min 0,000 mm 3,4 UV-I 656 W/m 15,8 C 19,7 C 12,9 km/h (3 Bft) 100,00 %
08.08.2017 10:14 21,0 C 22,8 C 73 % 1011,4 hPa 0,0 l/m 11,3 km/h (2 Bft) NO 38 2 min 0,000 mm 3,4 UV-I 661 W/m 16,0 C 19,4 C 17,7 km/h (3 Bft) 100,00 %
08.08.2017 10:16 21,1 C 22,8 C 72 % 1011,3 hPa 0,0 l/m 12,0 km/h (2 Bft) O 88 2 min 0,000 mm 3,5 UV-I 664 W/m 15,8 C 19,3 C 17,7 km/h (3 Bft) 100,00 %
08.08.2017 10:18 21,0 C 22,8 C 70 % 1011,2 hPa 0,0 l/m 13,5 km/h (3 Bft) NO 43 2 min 0,000 mm 3,5 UV-I 668 W/m 15,3 C 18,8 C 20,9 km/h (4 Bft) 100,00 %
08.08.2017 10:20 20,9 C 22,8 C 72 % 1011,2 hPa 0,0 l/m 8,5 km/h (2 Bft) O 85 2 min 0,000 mm 3,6 UV-I 671 W/m 15,7 C 20,1 C 16,1 km/h (3 Bft) 100,00 %
08.08.2017 10:22 21,1 C 22,8 C 73 % 1011,3 hPa 0,0 l/m 13,4 km/h (3 Bft) O-NO 67 2 min 0,000 mm 3,6 UV-I 676 W/m 16,1 C 18,9 C 20,9 km/h (4 Bft) 100,00 %
08.08.2017 10:24 21,2 C 22,8 C 72 % 1011,2 hPa 0,0 l/m 14,9 km/h (3 Bft) NO 51 2 min 0,000 mm 3,7 UV-I 680 W/m 15,9 C 18,7 C 20,9 km/h (4 Bft) 100,00 %
08.08.2017 10:26 21,3 C 22,8 C 72 % 1011,1 hPa 0,0 l/m 12,4 km/h (3 Bft) O-NO 57 2 min 0,000 mm 3,7 UV-I 684 W/m 16,0 C 19,4 C 19,3 km/h (3 Bft) 97,73 %
08.08.2017 10:28 21,4 C 22,8 C 71 % 1011,1 hPa 0,0 l/m 14,8 km/h (3 Bft) NO 53 2 min 0,000 mm 3,8 UV-I 688 W/m 15,9 C 19,0 C 19,3 km/h (3 Bft) 97,78 %
08.08.2017 10:30 21,3 C 22,8 C 70 % 1011,1 hPa 0,0 l/m 12,7 km/h (3 Bft) NO 44 2 min 0,000 mm 3,9 UV-I 693 W/m 15,6 C 19,4 C 19,3 km/h (3 Bft) 98,08 %
08.08.2017 10:32 21,3 C 22,8 C 73 % 1011,0 hPa 0,0 l/m 12,1 km/h (2 Bft) NO 39 2 min 0,000 mm 3,9 UV-I 697 W/m 16,3 C 19,5 C 22,5 km/h (4 Bft) 97,62 %
08.08.2017 10:34 21,4 C 22,8 C 72 % 1011,0 hPa 0,0 l/m 12,9 km/h (3 Bft) NO 55 2 min 0,000 mm 3,9 UV-I 702 W/m 16,1 C 19,4 C 20,9 km/h (4 Bft) 97,73 %
08.08.2017 10:36 21,4 C 22,8 C 70 % 1010,9 hPa 0,0 l/m 12,9 km/h (3 Bft) N-NO 17 2 min 0,000 mm 4,0 UV-I 705 W/m 15,7 C 19,4 C 20,9 km/h (4 Bft) 98,00 %
08.08.2017 10:38 21,5 C 22,8 C 71 % 1011,0 hPa 0,0 l/m 14,3 km/h (3 Bft) O-NO 71 2 min 0,000 mm 4,0 UV-I 708 W/m 16,0 C 19,2 C 20,9 km/h (4 Bft) 96,00 %
08.08.2017 10:40 21,6 C 22,8 C 72 % 1010,9 hPa 0,0 l/m 14,3 km/h (3 Bft) O-NO 70 2 min 0,000 mm 4,1 UV-I 713 W/m 16,3 C 19,3 C 17,7 km/h (3 Bft) 95,74 %
08.08.2017 10:42 21,6 C 22,8 C 70 % 1010,9 hPa 0,0 l/m 11,8 km/h (2 Bft) NO 40 2 min 0,000 mm 4,1 UV-I 717 W/m 15,9 C 19,9 C 17,7 km/h (3 Bft) 97,37 %
08.08.2017 10:44 21,8 C 22,8 C 73 % 1010,8 hPa 0,0 l/m 8,7 km/h (2 Bft) NO 55 2 min 0,000 mm 4,2 UV-I 717 W/m 16,7 C 21,0 C 20,9 km/h (4 Bft) 98,11 %
08.08.2017 10:46 21,8 C 22,8 C 71 % 1010,8 hPa 0,0 l/m 14,6 km/h (3 Bft) NO 35 2 min 0,000 mm 4,2 UV-I 720 W/m 16,3 C 19,5 C 22,5 km/h (4 Bft) 97,56 %
08.08.2017 10:48 21,8 C 22,8 C 69 % 1010,8 hPa 0,0 l/m 11,6 km/h (2 Bft) NO 50 2 min 0,000 mm 4,3 UV-I 725 W/m 15,9 C 20,2 C 16,1 km/h (3 Bft) 98,31 %
08.08.2017 10:50 21,9 C 22,8 C 71 % 1010,8 hPa 0,0 l/m 10,1 km/h (2 Bft) NO 40 2 min 0,000 mm 4,3 UV-I 729 W/m 16,4 C 20,7 C 17,7 km/h (3 Bft) 97,37 %
08.08.2017 10:52 22,1 C 22,8 C 71 % 1010,8 hPa 0,0 l/m 10,5 km/h (2 Bft) NO 39 2 min 0,000 mm 4,4 UV-I 734 W/m 16,6 C 20,8 C 19,3 km/h (3 Bft) 95,12 %
08.08.2017 10:54 22,2 C 22,8 C 68 % 1010,8 hPa 0,0 l/m 10,2 km/h (2 Bft) O-NO 67 2 min 0,000 mm 4,4 UV-I 737 W/m 16,0 C 21,0 C 16,1 km/h (3 Bft) 98,31 %
08.08.2017 10:56 22,2 C 22,8 C 67 % 1010,7 hPa 0,0 l/m 9,4 km/h (2 Bft) O-NO 68 2 min 0,000 mm 4,5 UV-I 738 W/m 15,8 C 21,2 C 16,1 km/h (3 Bft) 97,14 %
08.08.2017 10:58 22,2 C 22,8 C 69 % 1010,8 hPa 0,0 l/m 7,9 km/h (2 Bft) O-NO 65 2 min 0,000 mm 4,5 UV-I 744 W/m 16,2 C 21,7 C 12,9 km/h (3 Bft) 98,11 %
08.08.2017 11:00 22,5 C 22,8 C 70 % 1010,8 hPa 0,0 l/m 10,5 km/h (2 Bft) O-NO 70 2 min 0,458 mm 4,6 UV-I 748 W/m 16,7 C 21,3 C 19,3 km/h (3 Bft) 100,00 %
08.08.2017 11:02 22,7 C 22,8 C 69 % 1010,7 hPa 0,0 l/m 10,1 km/h (2 Bft) O 93 2 min 0,000 mm 4,6 UV-I 751 W/m 16,7 C 21,6 C 17,7 km/h (3 Bft) 100,00 %
08.08.2017 11:04 22,7 C 22,8 C 67 % 1010,8 hPa 0,0 l/m 10,3 km/h (2 Bft) O-NO 63 2 min 0,000 mm 4,7 UV-I 752 W/m 16,2 C 21,5 C 16,1 km/h (3 Bft) 100,00 %
08.08.2017 11:06 22,7 C 22,8 C 66 % 1010,8 hPa 0,0 l/m 11,0 km/h (2 Bft) NO 54 2 min 0,000 mm 4,7 UV-I 755 W/m 16,0 C 21,4 C 16,1 km/h (3 Bft) 100,00 %
08.08.2017 11:08 22,7 C 23,3 C 67 % 1010,8 hPa 0,0 l/m 10,5 km/h (2 Bft) NO 39 2 min 0,000 mm 4,8 UV-I 756 W/m 16,2 C 21,5 C 17,7 km/h (3 Bft) 100,00 %
08.08.2017 11:10 22,8 C 23,3 C 66 % 1010,8 hPa 0,0 l/m 14,4 km/h (3 Bft) O-NO 67 2 min 0,000 mm 4,8 UV-I 765 W/m 16,1 C 20,8 C 19,3 km/h (3 Bft) 100,00 %
08.08.2017 11:12 22,8 C 23,3 C 66 % 1010,7 hPa 0,0 l/m 13,4 km/h (3 Bft) NO 44 2 min 0,000 mm 4,9 UV-I 766 W/m 16,1 C 21,0 C 17,7 km/h (3 Bft) 100,00 %
08.08.2017 11:14 22,8 C 23,3 C 67 % 1010,7 hPa 0,0 l/m 13,7 km/h (3 Bft) O-NO 73 2 min 0,000 mm 4,9 UV-I 769 W/m 16,3 C 20,9 C 19,3 km/h (3 Bft) 100,00 %
08.08.2017 11:16 22,8 C 23,3 C 68 % 1010,7 hPa 0,0 l/m 10,9 km/h (2 Bft) O-NO 76 2 min 0,000 mm 4,9 UV-I 772 W/m 16,6 C 21,5 C 14,5 km/h (3 Bft) 100,00 %
08.08.2017 11:18 22,8 C 23,3 C 65 % 1010,6 hPa 0,0 l/m 12,9 km/h (3 Bft) O-NO 59 2 min 0,000 mm 5,0 UV-I 774 W/m 15,9 C 21,1 C 22,5 km/h (4 Bft) 100,00 %
08.08.2017 11:20 22,9 C 23,3 C 69 % 1010,6 hPa 0,0 l/m 13,5 km/h (3 Bft) NO 39 2 min 0,000 mm 5,0 UV-I 777 W/m 16,9 C 21,1 C 22,5 km/h (4 Bft) 100,00 %
08.08.2017 11:22 23,1 C 23,3 C 69 % 1010,6 hPa 0,0 l/m 14,5 km/h (3 Bft) NO 40 2 min 0,000 mm 5,1 UV-I 781 W/m 17,1 C 21,1 C 19,3 km/h (3 Bft) 100,00 %
08.08.2017 11:24 23,2 C 23,3 C 66 % 1010,5 hPa 0,0 l/m 12,1 km/h (2 Bft) NO 56 2 min 0,000 mm 5,1 UV-I 784 W/m 16,5 C 21,7 C 19,3 km/h (3 Bft) 98,11 %
08.08.2017 11:26 23,2 C 23,3 C 64 % 1010,5 hPa 0,0 l/m 14,6 km/h (3 Bft) NO 42 2 min 0,000 mm 5,1 UV-I 787 W/m 16,0 C 21,2 C 20,9 km/h (4 Bft) 100,00 %
08.08.2017 11:28 23,2 C 23,3 C 66 % 1010,5 hPa 0,0 l/m 12,4 km/h (3 Bft) NO 55 2 min 0,000 mm 5,2 UV-I 789 W/m 16,5 C 21,6 C 17,7 km/h (3 Bft) 100,00 %
08.08.2017 11:30 23,2 C 23,3 C 68 % 1010,5 hPa 0,0 l/m 6,8 km/h (2 Bft) NO 39 2 min 0,000 mm 5,2 UV-I 790 W/m 17,0 C 23,1 C 12,9 km/h (3 Bft) 100,00 %
08.08.2017 11:32 23,3 C 23,3 C 68 % 1010,5 hPa 0,0 l/m 8,0 km/h (2 Bft) O-NO 71 2 min 0,000 mm 5,2 UV-I 792 W/m 17,1 C 22,8 C 12,9 km/h (3 Bft) 100,00 %
08.08.2017 11:34 23,6 C 23,3 C 68 % 1010,5 hPa 0,0 l/m 12,8 km/h (3 Bft) NO 44 2 min 0,000 mm 5,3 UV-I 799 W/m 17,3 C 22,0 C 17,7 km/h (3 Bft) 100,00 %
08.08.2017 11:36 23,7 C 23,3 C 65 % 1010,5 hPa 0,0 l/m 10,8 km/h (2 Bft) O 94 2 min 0,000 mm 5,4 UV-I 800 W/m 16,7 C 22,5 C 16,1 km/h (3 Bft) 97,87 %
08.08.2017 11:38 23,7 C 23,3 C 67 % 1010,5 hPa 0,0 l/m 16,9 km/h (3 Bft) N-NO 33 2 min 0,000 mm 5,4 UV-I 802 W/m 17,2 C 21,4 C 22,5 km/h (4 Bft) 100,00 %
08.08.2017 11:40 23,7 C 23,3 C 64 % 1010,5 hPa 0,0 l/m 14,9 km/h (3 Bft) O-NO 67 2 min 0,000 mm 5,4 UV-I 793 W/m 16,5 C 21,7 C 19,3 km/h (3 Bft) 97,56 %
08.08.2017 11:42 23,5 C 23,3 C 65 % 1010,5 hPa 0,0 l/m 15,2 km/h (3 Bft) O-NO 72 2 min 0,000 mm 5,4 UV-I 803 W/m 16,5 C 21,5 C 20,9 km/h (4 Bft) 100,00 %
08.08.2017 11:44 23,4 C 23,3 C 65 % 1010,5 hPa 0,0 l/m 16,7 km/h (3 Bft) O-NO 61 2 min 0,000 mm 5,5 UV-I 813 W/m 16,4 C 21,1 C 22,5 km/h (4 Bft) 100,00 %
08.08.2017 11:46 23,6 C 23,3 C 67 % 1010,5 hPa 0,0 l/m 12,3 km/h (3 Bft) NO 53 2 min 0,000 mm 5,6 UV-I 814 W/m 17,1 C 22,1 C 19,3 km/h (3 Bft) 100,00 %
08.08.2017 11:48 23,6 C 23,3 C 66 % 1010,5 hPa 0,0 l/m 16,0 km/h (3 Bft) NO 49 2 min 0,000 mm 5,6 UV-I 816 W/m 16,9 C 21,4 C 22,5 km/h (4 Bft) 100,00 %
08.08.2017 11:50 23,7 C 23,3 C 65 % 1010,4 hPa 0,0 l/m 14,9 km/h (3 Bft) O-NO 67 2 min 0,000 mm 5,6 UV-I 817 W/m 16,7 C 21,7 C 20,9 km/h (4 Bft) 100,00 %
08.08.2017 11:52 23,7 C 23,3 C 64 % 1010,4 hPa 0,0 l/m 10,7 km/h (2 Bft) O-NO 66 2 min 0,000 mm 5,6 UV-I 819 W/m 16,5 C 22,6 C 16,1 km/h (3 Bft) 100,00 %
08.08.2017 11:54 23,7 C 23,3 C 68 % 1010,3 hPa 0,0 l/m 12,4 km/h (3 Bft) N-NO 28 2 min 0,000 mm 5,7 UV-I 825 W/m 17,4 C 22,2 C 19,3 km/h (3 Bft) 97,73 %
08.08.2017 11:56 23,9 C 23,3 C 67 % 1010,3 hPa 0,0 l/m 13,5 km/h (3 Bft) N-NO 30 2 min 0,000 mm 5,8 UV-I 830 W/m 17,4 C 22,2 C 17,7 km/h (3 Bft) 100,00 %
08.08.2017 11:58 24,1 C 23,3 C 64 % 1010,2 hPa 0,0 l/m 16,1 km/h (3 Bft) O-NO 65 2 min 0,000 mm 5,8 UV-I 838 W/m 16,9 C 22,0 C 24,1 km/h (4 Bft) 100,00 %
08.08.2017 12:00 24,1 C 23,3 C 65 % 1010,1 hPa 0,0 l/m 14,5 km/h (3 Bft) N-NO 33 2 min 0,533 mm 5,8 UV-I 842 W/m 17,1 C 22,3 C 24,1 km/h (4 Bft) 100,00 %
08.08.2017 12:02 24,2 C 23,3 C 64 % 1010,1 hPa 0,0 l/m 17,4 km/h (3 Bft) N-NO 22 2 min 0,000 mm 5,9 UV-I 845 W/m 16,9 C 22,0 C 22,5 km/h (4 Bft) 100,00 %
08.08.2017 12:04 24,3 C 23,3 C 66 % 1010,0 hPa 0,0 l/m 15,7 km/h (3 Bft) NO 48 2 min 0,000 mm 5,9 UV-I 851 W/m 17,5 C 22,4 C 22,5 km/h (4 Bft) 100,00 %
08.08.2017 12:06 24,3 C 23,3 C 62 % 1010,0 hPa 0,0 l/m 16,0 km/h (3 Bft) O 79 2 min 0,000 mm 5,9 UV-I 842 W/m 16,5 C 22,3 C 24,1 km/h (4 Bft) 100,00 %
08.08.2017 12:08 24,2 C 23,3 C 62 % 1010,0 hPa 0,0 l/m 17,0 km/h (3 Bft) O-NO 65 2 min 0,000 mm 5,8 UV-I 838 W/m 16,4 C 22,0 C 25,7 km/h (4 Bft) 98,39 %
08.08.2017 12:10 24,2 C 23,3 C 63 % 1010,0 hPa 0,0 l/m 18,2 km/h (3 Bft) O-NO 66 2 min 0,000 mm 5,8 UV-I 818 W/m 16,7 C 21,9 C 25,7 km/h (4 Bft) 100,00 %
08.08.2017 12:12 24,2 C 23,3 C 63 % 1010,0 hPa 0,0 l/m 13,8 km/h (3 Bft) NO 54 2 min 0,000 mm 5,8 UV-I 816 W/m 16,7 C 22,5 C 20,9 km/h (4 Bft) 100,00 %
08.08.2017 12:14 24,3 C 23,3 C 66 % 1010,0 hPa 0,0 l/m 17,3 km/h (3 Bft) N-NO 23 2 min 0,000 mm 5,7 UV-I 780 W/m 17,5 C 22,1 C 24,1 km/h (4 Bft) 100,00 %
08.08.2017 12:16 24,3 C 23,3 C 65 % 1009,9 hPa 0,0 l/m 12,1 km/h (2 Bft) N-NO 31 2 min 0,000 mm 5,7 UV-I 792 W/m 17,3 C 23,0 C 17,7 km/h (3 Bft) 100,00 %
08.08.2017 12:18 24,3 C 23,3 C 62 % 1009,9 hPa 0,0 l/m 16,1 km/h (3 Bft) O-NO 78 2 min 0,000 mm 5,7 UV-I 779 W/m 16,5 C 22,3 C 24,1 km/h (4 Bft) 100,00 %
08.08.2017 12:20 24,3 C 23,3 C 62 % 1009,8 hPa 0,0 l/m 19,1 km/h (3 Bft) O-NO 65 2 min 0,000 mm 5,6 UV-I 746 W/m 16,5 C 21,9 C 29,0 km/h (5 Bft) 100,00 %
08.08.2017 12:22 24,4 C 23,3 C 62 % 1009,8 hPa 0,0 l/m 20,2 km/h (4 Bft) O-NO 77 2 min 0,000 mm 5,8 UV-I 791 W/m 16,6 C 21,9 C 27,4 km/h (4 Bft) 97,92 %
08.08.2017 12:24 24,3 C 23,3 C 62 % 1009,7 hPa 0,0 l/m 16,7 km/h (3 Bft) NO 44 2 min 0,000 mm 6,0 UV-I 834 W/m 16,5 C 22,2 C 25,7 km/h (4 Bft) 96,15 %
08.08.2017 12:26 24,5 C 23,3 C 66 % 1009,7 hPa 0,0 l/m 14,5 km/h (3 Bft) O-NO 59 2 min 0,000 mm 6,2 UV-I 864 W/m 17,7 C 22,8 C 24,1 km/h (4 Bft) 97,44 %
08.08.2017 12:28 24,6 C 23,3 C 63 % 1009,7 hPa 0,0 l/m 14,5 km/h (3 Bft) O-NO 59 2 min 0,000 mm 6,2 UV-I 852 W/m 17,1 C 22,9 C 24,1 km/h (4 Bft) 98,21 %
08.08.2017 12:30 24,7 C 23,3 C 64 % 1009,7 hPa 0,0 l/m 11,7 km/h (2 Bft) O-NO 64 2 min 0,000 mm 6,2 UV-I 861 W/m 17,4 C 23,5 C 17,7 km/h (3 Bft) 100,00 %
08.08.2017 12:32 24,8 C 23,3 C 64 % 1009,7 hPa 0,0 l/m 15,9 km/h (3 Bft) NO 51 2 min 0,000 mm 6,2 UV-I 863 W/m 17,5 C 22,9 C 20,9 km/h (4 Bft) 96,92 %
08.08.2017 12:34 24,8 C 23,3 C 61 % 1009,7 hPa 0,0 l/m 19,9 km/h (4 Bft) O 79 2 min 0,000 mm 6,1 UV-I 850 W/m 16,8 C 22,4 C 24,1 km/h (4 Bft) 94,00 %
08.08.2017 12:36 24,8 C 23,3 C 63 % 1009,7 hPa 0,0 l/m 17,3 km/h (3 Bft) N-NO 30 2 min 0,000 mm 6,1 UV-I 843 W/m 17,3 C 22,7 C 25,7 km/h (4 Bft) 97,87 %
08.08.2017 12:38 24,9 C 23,3 C 64 % 1009,7 hPa 0,0 l/m 13,3 km/h (3 Bft) O-NO 59 2 min 0,000 mm 6,1 UV-I 819 W/m 17,6 C 23,5 C 20,9 km/h (4 Bft) 95,12 %
08.08.2017 12:40 24,9 C 23,3 C 59 % 1009,7 hPa 0,0 l/m 21,5 km/h (4 Bft) O-NO 69 2 min 0,000 mm 6,0 UV-I 818 W/m 16,3 C 22,4 C 27,4 km/h (4 Bft) 96,43 %
08.08.2017 12:42 24,8 C 23,3 C 60 % 1009,7 hPa 0,0 l/m 20,5 km/h (4 Bft) O-NO 69 2 min 0,000 mm 6,2 UV-I 848 W/m 16,5 C 22,3 C 27,4 km/h (4 Bft) 97,56 %
08.08.2017 12:44 24,8 C 23,3 C 62 % 1009,6 hPa 0,0 l/m 17,8 km/h (3 Bft) NO 45 2 min 0,000 mm 6,3 UV-I 861 W/m 17,0 C 22,7 C 24,1 km/h (4 Bft) 97,56 %
08.08.2017 12:46 24,9 C 23,3 C 63 % 1009,6 hPa 0,0 l/m 17,5 km/h (3 Bft) NO 38 2 min 0,000 mm 6,2 UV-I 857 W/m 17,4 C 22,8 C 24,1 km/h (4 Bft) 98,21 %
08.08.2017 12:48 25,1 C 23,3 C 61 % 1009,6 hPa 0,0 l/m 18,0 km/h (3 Bft) NO 53 2 min 0,000 mm 6,1 UV-I 817 W/m 17,0 C 23,0 C 24,1 km/h (4 Bft) 97,14 %
08.08.2017 12:50 25,1 C 23,3 C 62 % 1009,6 hPa 0,0 l/m 19,1 km/h (3 Bft) O 79 2 min 0,000 mm 6,2 UV-I 860 W/m 17,3 C 22,9 C 24,1 km/h (4 Bft) 97,56 %
08.08.2017 12:52 25,1 C 23,3 C 61 % 1009,6 hPa 0,0 l/m 18,6 km/h (3 Bft) O-NO 76 2 min 0,000 mm 6,3 UV-I 866 W/m 17,0 C 23,0 C 27,4 km/h (4 Bft) 98,48 %
08.08.2017 12:54 25,1 C 23,3 C 63 % 1009,5 hPa 0,0 l/m 13,1 km/h (3 Bft) NO 43 2 min 0,000 mm 6,3 UV-I 864 W/m 17,5 C 23,7 C 22,5 km/h (4 Bft) 100,00 %
08.08.2017 12:56 25,3 C 23,3 C 64 % 1009,6 hPa 0,0 l/m 16,7 km/h (3 Bft) N-NO 24 2 min 0,000 mm 6,3 UV-I 861 W/m 18,0 C 23,4 C 25,7 km/h (4 Bft) 97,87 %
08.08.2017 12:58 25,3 C 23,3 C 62 % 1009,6 hPa 0,0 l/m 20,9 km/h (4 Bft) NO 46 2 min 0,000 mm 6,3 UV-I 860 W/m 17,5 C 23,0 C 27,4 km/h (4 Bft) 97,73 %
08.08.2017 13:00 25,2 C 23,3 C 60 % 1009,6 hPa 0,0 l/m 20,5 km/h (4 Bft) O-NO 76 2 min 0,610 mm 6,3 UV-I 861 W/m 16,9 C 22,9 C 29,0 km/h (5 Bft) 100,00 %
08.08.2017 13:02 25,2 C 23,3 C 60 % 1009,6 hPa 0,0 l/m 21,5 km/h (4 Bft) O-NO 60 2 min 0,000 mm 6,1 UV-I 823 W/m 16,9 C 22,8 C 27,4 km/h (4 Bft) 97,22 %
08.08.2017 13:04 25,3 C 23,3 C 64 % 1009,5 hPa 0,0 l/m 16,7 km/h (3 Bft) NO 55 2 min 0,000 mm 6,2 UV-I 846 W/m 18,0 C 23,4 C 24,1 km/h (4 Bft) 95,45 %
08.08.2017 13:06 25,4 C 23,3 C 61 % 1009,7 hPa 0,0 l/m 12,7 km/h (3 Bft) O-NO 76 2 min 0,000 mm 6,2 UV-I 839 W/m 17,3 C 24,1 C 19,3 km/h (3 Bft) 96,61 %
08.08.2017 13:08 25,5 C 23,3 C 62 % 1009,6 hPa 0,0 l/m 18,3 km/h (3 Bft) NO 53 2 min 0,000 mm 6,3 UV-I 851 W/m 17,7 C 23,5 C 22,5 km/h (4 Bft) 97,56 %
08.08.2017 13:10 25,5 C 23,9 C 60 % 1009,7 hPa 0,0 l/m 20,2 km/h (4 Bft) O-NO 61 2 min 0,000 mm 6,3 UV-I 855 W/m 17,2 C 23,3 C 27,4 km/h (4 Bft) 97,73 %
08.08.2017 13:12 25,4 C 23,9 C 60 % 1009,7 hPa 0,0 l/m 19,2 km/h (3 Bft) O-NO 63 2 min 0,000 mm 6,3 UV-I 860 W/m 17,1 C 23,3 C 25,7 km/h (4 Bft) 96,23 %
08.08.2017 13:14 25,4 C 23,9 C 61 % 1009,6 hPa 0,0 l/m 17,8 km/h (3 Bft) NO 53 2 min 0,000 mm 6,3 UV-I 863 W/m 17,3 C 23,4 C 24,1 km/h (4 Bft) 97,56 %
08.08.2017 13:16 25,4 C 23,9 C 62 % 1009,5 hPa 0,0 l/m 15,5 km/h (3 Bft) O 90 2 min 0,000 mm 6,3 UV-I 862 W/m 17,6 C 23,7 C 20,9 km/h (4 Bft) 96,00 %
08.08.2017 13:18 25,6 C 23,9 C 63 % 1009,5 hPa 0,0 l/m 16,0 km/h (3 Bft) O-NO 67 2 min 0,000 mm 6,3 UV-I 862 W/m 18,0 C 23,9 C 22,5 km/h (4 Bft) 97,87 %
08.08.2017 13:20 25,7 C 23,9 C 63 % 1009,4 hPa 0,0 l/m 19,9 km/h (4 Bft) NO 46 2 min 0,000 mm 6,3 UV-I 860 W/m 18,1 C 23,6 C 25,7 km/h (4 Bft) 96,00 %
08.08.2017 13:22 25,7 C 23,9 C 63 % 1009,4 hPa 0,0 l/m 17,9 km/h (3 Bft) O-NO 60 2 min 0,000 mm 6,3 UV-I 858 W/m 18,1 C 23,8 C 24,1 km/h (4 Bft) 100,00 %
08.08.2017 13:24 25,8 C 23,9 C 61 % 1009,4 hPa 0,0 l/m 15,6 km/h (3 Bft) NO 49 2 min 0,000 mm 6,2 UV-I 849 W/m 17,7 C 24,2 C 20,9 km/h (4 Bft) 96,43 %
08.08.2017 13:26 25,8 C 23,9 C 61 % 1009,3 hPa 0,0 l/m 18,7 km/h (3 Bft) NO 40 2 min 0,000 mm 6,2 UV-I 842 W/m 17,7 C 23,8 C 29,0 km/h (5 Bft) 97,37 %
08.08.2017 13:28 25,9 C 23,9 C 60 % 1009,3 hPa 0,0 l/m 17,5 km/h (3 Bft) O-NO 78 2 min 0,000 mm 6,2 UV-I 841 W/m 17,5 C 24,1 C 24,1 km/h (4 Bft) 97,73 %
08.08.2017 13:30 25,9 C 23,9 C 61 % 1009,2 hPa 0,0 l/m 12,8 km/h (3 Bft) O-NO 62 2 min 0,000 mm 6,1 UV-I 840 W/m 17,8 C 24,7 C 19,3 km/h (3 Bft) 98,11 %
08.08.2017 13:32 26,0 C 23,9 C 61 % 1009,3 hPa 0,0 l/m 19,6 km/h (3 Bft) NO 34 2 min 0,000 mm 6,2 UV-I 843 W/m 17,9 C 24,0 C 27,4 km/h (4 Bft) 98,00 %
08.08.2017 13:34 26,0 C 23,9 C 60 % 1009,2 hPa 0,0 l/m 19,8 km/h (3 Bft) O-NO 71 2 min 0,000 mm 6,2 UV-I 845 W/m 17,6 C 24,0 C 25,7 km/h (4 Bft) 97,87 %
08.08.2017 13:36 25,9 C 23,9 C 59 % 1009,2 hPa 0,0 l/m 19,9 km/h (4 Bft) O-NO 74 2 min 0,000 mm 6,2 UV-I 846 W/m 17,3 C 23,8 C 24,1 km/h (4 Bft) 97,56 %
08.08.2017 13:38 25,9 C 23,9 C 60 % 1009,2 hPa 0,0 l/m 18,3 km/h (3 Bft) O-NO 65 2 min 0,000 mm 6,2 UV-I 842 W/m 17,5 C 24,0 C 24,1 km/h (4 Bft) 98,11 %
08.08.2017 13:40 26,0 C 23,9 C 60 % 1009,1 hPa 0,0 l/m 18,9 km/h (3 Bft) O-NO 62 2 min 0,000 mm 6,2 UV-I 845 W/m 17,6 C 24,1 C 25,7 km/h (4 Bft) 98,00 %
08.08.2017 13:42 26,1 C 23,9 C 62 % 1009,1 hPa 0,0 l/m 15,1 km/h (3 Bft) NO 52 2 min 0,000 mm 6,2 UV-I 850 W/m 18,2 C 24,6 C 22,5 km/h (4 Bft) 94,87 %
08.08.2017 13:44 26,2 C 23,9 C 63 % 1009,1 hPa 0,0 l/m 20,0 km/h (4 Bft) NO 53 2 min 0,000 mm 6,2 UV-I 851 W/m 18,6 C 24,2 C 29,0 km/h (5 Bft) 94,23 %
08.08.2017 13:46 26,2 C 23,9 C 63 % 1009,1 hPa 0,0 l/m 17,3 km/h (3 Bft) O-NO 70 2 min 0,000 mm 6,1 UV-I 847 W/m 18,6 C 24,5 C 22,5 km/h (4 Bft) 97,92 %
08.08.2017 13:48 26,2 C 23,9 C 60 % 1009,1 hPa 0,0 l/m 19,9 km/h (4 Bft) NO 39 2 min 0,000 mm 6,1 UV-I 846 W/m 17,8 C 24,2 C 29,0 km/h (5 Bft) 97,56 %
08.08.2017 13:50 26,3 C 23,9 C 62 % 1009,1 hPa 0,0 l/m 16,1 km/h (3 Bft) O-NO 59 2 min 0,000 mm 6,1 UV-I 845 W/m 18,4 C 24,8 C 25,7 km/h (4 Bft) 97,73 %
08.08.2017 13:52 26,3 C 23,9 C 65 % 1009,0 hPa 0,0 l/m 16,5 km/h (3 Bft) N 355 2 min 0,000 mm 6,1 UV-I 842 W/m 19,2 C 24,7 C 24,1 km/h (4 Bft) 96,23 %
08.08.2017 13:54 26,4 C 23,9 C 62 % 1009,0 hPa 0,0 l/m 19,2 km/h (3 Bft) NO 49 2 min 0,000 mm 6,0 UV-I 834 W/m 18,5 C 24,5 C 24,1 km/h (4 Bft) 95,45 %
08.08.2017 13:56 26,6 C 23,9 C 59 % 1008,9 hPa 0,0 l/m 14,2 km/h (3 Bft) N-NO 32 2 min 0,000 mm 6,0 UV-I 828 W/m 17,9 C 25,3 C 20,9 km/h (4 Bft) 97,56 %
08.08.2017 13:58 26,7 C 23,9 C 58 % 1008,9 hPa 0,0 l/m 17,6 km/h (3 Bft) O-NO 68 2 min 0,000 mm 6,0 UV-I 830 W/m 17,7 C 25,1 C 27,4 km/h (4 Bft) 98,21 %
08.08.2017 14:00 26,8 C 23,9 C 63 % 1008,9 hPa 0,0 l/m 13,2 km/h (3 Bft) NO 38 2 min 0,635 mm 6,0 UV-I 830 W/m 19,1 C 25,7 C 20,9 km/h (4 Bft) 97,37 %
08.08.2017 14:02 26,9 C 23,9 C 60 % 1008,9 hPa 0,0 l/m 18,7 km/h (3 Bft) NO 36 2 min 0,000 mm 6,0 UV-I 830 W/m 18,5 C 25,2 C 27,4 km/h (4 Bft) 98,21 %
08.08.2017 14:04 26,9 C 23,9 C 61 % 1008,9 hPa 0,0 l/m 15,9 km/h (3 Bft) NO 56 2 min 0,000 mm 5,9 UV-I 828 W/m 18,7 C 25,5 C 22,5 km/h (4 Bft) 96,15 %
08.08.2017 14:06 26,9 C 23,9 C 62 % 1009,0 hPa 0,0 l/m 19,6 km/h (3 Bft) O-NO 74 2 min 0,000 mm 5,9 UV-I 823 W/m 19,0 C 25,2 C 27,4 km/h (4 Bft) 97,18 %
08.08.2017 14:08 26,8 C 23,9 C 58 % 1008,9 hPa 0,0 l/m 16,1 km/h (3 Bft) NO 38 2 min 0,000 mm 5,9 UV-I 825 W/m 17,8 C 25,4 C 22,5 km/h (4 Bft) 97,56 %
08.08.2017 14:10 26,8 C 23,9 C 58 % 1008,9 hPa 0,0 l/m 19,8 km/h (3 Bft) NO 44 2 min 0,000 mm 5,8 UV-I 822 W/m 17,8 C 25,0 C 29,0 km/h (5 Bft) 100,00 %
08.08.2017 14:12 26,9 C 23,9 C 58 % 1008,9 hPa 0,0 l/m 15,8 km/h (3 Bft) NO 48 2 min 0,000 mm 5,8 UV-I 823 W/m 17,9 C 25,5 C 24,1 km/h (4 Bft) 100,00 %
08.08.2017 14:14 27,1 C 23,9 C 60 % 1008,8 hPa 0,0 l/m 16,2 km/h (3 Bft) O-NO 64 2 min 0,000 mm 5,8 UV-I 820 W/m 18,6 C 25,7 C 24,1 km/h (4 Bft) 100,00 %
08.08.2017 14:16 27,2 C 23,9 C 56 % 1008,8 hPa 0,0 l/m 20,8 km/h (4 Bft) O-NO 57 2 min 0,000 mm 5,8 UV-I 820 W/m 17,6 C 25,4 C 27,4 km/h (4 Bft) 98,00 %
08.08.2017 14:18 27,2 C 23,9 C 57 % 1008,8 hPa 0,0 l/m 14,3 km/h (3 Bft) O-NO 65 2 min 0,000 mm 5,8 UV-I 811 W/m 17,9 C 26,0 C 22,5 km/h (4 Bft) 98,00 %
08.08.2017 14:20 27,1 C 23,9 C 56 % 1008,8 hPa 0,0 l/m 16,2 km/h (3 Bft) N-NO 17 2 min 0,000 mm 5,7 UV-I 812 W/m 17,5 C 25,7 C 24,1 km/h (4 Bft) 97,22 %
08.08.2017 14:22 27,1 C 23,9 C 60 % 1008,7 hPa 0,0 l/m 17,1 km/h (3 Bft) NO 42 2 min 0,000 mm 5,7 UV-I 811 W/m 18,6 C 25,6 C 22,5 km/h (4 Bft) 96,36 %
08.08.2017 14:24 27,1 C 23,9 C 62 % 1008,8 hPa 0,0 l/m 15,3 km/h (3 Bft) NO 35 2 min 0,000 mm 5,7 UV-I 810 W/m 19,2 C 25,8 C 19,3 km/h (3 Bft) 94,87 %
08.08.2017 14:26 27,2 C 23,9 C 58 % 1008,8 hPa 0,0 l/m 14,9 km/h (3 Bft) NO 36 2 min 0,000 mm 5,7 UV-I 809 W/m 18,2 C 26,0 C 22,5 km/h (4 Bft) 96,00 %
08.08.2017 14:28 27,3 C 23,9 C 58 % 1008,8 hPa 0,0 l/m 17,9 km/h (3 Bft) NO 51 2 min 0,000 mm 5,6 UV-I 806 W/m 18,3 C 25,8 C 29,0 km/h (5 Bft) 98,11 %
08.08.2017 14:30 27,2 C 23,9 C 55 % 1008,8 hPa 0,0 l/m 17,8 km/h (3 Bft) NO 49 2 min 0,000 mm 5,6 UV-I 785 W/m 17,4 C 25,7 C 25,7 km/h (4 Bft) 97,87 %
08.08.2017 14:32 27,3 C 23,9 C 56 % 1008,7 hPa 0,0 l/m 19,7 km/h (3 Bft) O 81 2 min 0,000 mm 5,5 UV-I 793 W/m 17,7 C 25,7 C 25,7 km/h (4 Bft) 97,56 %
08.08.2017 14:34 27,3 C 23,9 C 56 % 1008,6 hPa 0,0 l/m 17,5 km/h (3 Bft) O-NO 57 2 min 0,000 mm 5,5 UV-I 792 W/m 17,7 C 25,9 C 24,1 km/h (4 Bft) 98,11 %
08.08.2017 14:36 27,3 C 23,9 C 56 % 1008,6 hPa 0,0 l/m 20,7 km/h (4 Bft) NO 40 2 min 0,000 mm 5,4 UV-I 789 W/m 17,7 C 25,6 C 32,2 km/h (5 Bft) 97,37 %
08.08.2017 14:38 27,2 C 23,9 C 56 % 1008,6 hPa 0,0 l/m 20,1 km/h (4 Bft) O-NO 58 2 min 0,000 mm 5,4 UV-I 786 W/m 17,6 C 25,5 C 29,0 km/h (5 Bft) 96,23 %
08.08.2017 14:40 27,1 C 23,9 C 57 % 1008,5 hPa 0,0 l/m 21,5 km/h (4 Bft) NO 36 2 min 0,000 mm 5,4 UV-I 785 W/m 17,8 C 25,3 C 27,4 km/h (4 Bft) 97,73 %
08.08.2017 14:42 27,1 C 23,9 C 57 % 1008,5 hPa 0,0 l/m 19,0 km/h (3 Bft) NO 42 2 min 0,000 mm 5,3 UV-I 784 W/m 17,8 C 25,5 C 29,0 km/h (5 Bft) 97,56 %
08.08.2017 14:44 27,2 C 23,9 C 58 % 1008,4 hPa 0,0 l/m 18,9 km/h (3 Bft) O-NO 63 2 min 0,000 mm 5,0 UV-I 774 W/m 18,2 C 25,6 C 29,0 km/h (5 Bft) 96,00 %
08.08.2017 14:46 27,3 C 23,9 C 56 % 1008,4 hPa 0,0 l/m 15,5 km/h (3 Bft) NO 55 2 min 0,000 mm 5,3 UV-I 778 W/m 17,7 C 26,0 C 22,5 km/h (4 Bft) 96,00 %
08.08.2017 14:48 27,5 C 23,9 C 57 % 1008,4 hPa 0,0 l/m 16,9 km/h (3 Bft) O 81 2 min 0,000 mm 5,3 UV-I 775 W/m 18,2 C 26,2 C 27,4 km/h (4 Bft) 98,00 %
08.08.2017 14:50 27,5 C 23,9 C 57 % 1008,4 hPa 0,0 l/m 19,1 km/h (3 Bft) NO 48 2 min 0,000 mm 5,2 UV-I 775 W/m 18,2 C 26,0 C 25,7 km/h (4 Bft) 100,00 %
08.08.2017 14:52 27,6 C 23,9 C 58 % 1008,4 hPa 0,0 l/m 16,8 km/h (3 Bft) NO 42 2 min 0,000 mm 5,2 UV-I 772 W/m 18,6 C 26,3 C 24,1 km/h (4 Bft) 100,00 %
08.08.2017 14:54 27,4 C 23,9 C 59 % 1008,4 hPa 0,0 l/m 17,3 km/h (3 Bft) NO 49 2 min 0,000 mm 5,1 UV-I 767 W/m 18,7 C 26,0 C 27,4 km/h (4 Bft) 100,00 %
08.08.2017 14:56 27,4 C 23,9 C 57 % 1008,5 hPa 0,0 l/m 20,8 km/h (4 Bft) NO 42 2 min 0,000 mm 5,1 UV-I 762 W/m 18,1 C 25,7 C 27,4 km/h (4 Bft) 100,00 %
08.08.2017 14:58 27,4 C 24,4 C 56 % 1008,5 hPa 0,0 l/m 19,3 km/h (3 Bft) O-NO 71 2 min 0,000 mm 5,0 UV-I 761 W/m 17,8 C 25,8 C 29,0 km/h (5 Bft) 100,00 %
08.08.2017 15:00 27,5 C 24,4 C 56 % 1008,5 hPa 0,0 l/m 19,2 km/h (3 Bft) O-NO 63 2 min 0,635 mm 5,0 UV-I 760 W/m 17,9 C 26,0 C 25,7 km/h (4 Bft) 100,00 %
08.08.2017 15:02 27,5 C 24,4 C 55 % 1008,5 hPa 0,0 l/m 18,6 km/h (3 Bft) O-NO 67 2 min 0,000 mm 5,0 UV-I 756 W/m 17,6 C 26,0 C 27,4 km/h (4 Bft) 100,00 %
08.08.2017 15:04 27,5 C 24,4 C 55 % 1008,5 hPa 0,0 l/m 20,0 km/h (4 Bft) NO 51 2 min 0,000 mm 4,9 UV-I 753 W/m 17,6 C 25,9 C 29,0 km/h (5 Bft) 97,56 %
08.08.2017 15:06 27,6 C 24,4 C 56 % 1008,6 hPa 0,0 l/m 19,1 km/h (3 Bft) O-NO 61 2 min 0,000 mm 4,9 UV-I 743 W/m 18,0 C 26,1 C 29,0 km/h (5 Bft) 96,77 %
08.08.2017 15:08 27,6 C 24,4 C 55 % 1008,5 hPa 0,0 l/m 21,9 km/h (4 Bft) NO 55 2 min 0,000 mm 4,8 UV-I 740 W/m 17,7 C 25,9 C 29,0 km/h (5 Bft) 100,00 %
08.08.2017 15:10 27,6 C 24,4 C 56 % 1008,5 hPa 0,0 l/m 19,3 km/h (3 Bft) NO 45 2 min 0,000 mm 4,8 UV-I 738 W/m 18,0 C 26,1 C 29,0 km/h (5 Bft) 98,11 %
08.08.2017 15:13 27,7 C 24,4 C 54 % 1008,6 hPa 0,0 l/m 17,2 km/h (3 Bft) NO 40 3 min 0,000 mm 4,7 UV-I 735 W/m 17,5 C 26,4 C 22,5 km/h (4 Bft) 100,00 %
08.08.2017 15:14 27,7 C 24,4 C 55 % 1008,6 hPa 0,0 l/m 18,6 km/h (3 Bft) NO 44 1 min 0,000 mm 4,7 UV-I 731 W/m 17,8 C 26,3 C 22,5 km/h (4 Bft) 100,00 %
08.08.2017 15:16 27,7 C 24,4 C 55 % 1008,6 hPa 0,0 l/m 17,6 km/h (3 Bft) N-NO 30 2 min 0,000 mm 4,6 UV-I 727 W/m 17,8 C 26,3 C 24,1 km/h (4 Bft) 98,00 %
08.08.2017 15:18 27,8 C 24,4 C 56 % 1008,6 hPa 0,0 l/m 16,3 km/h (3 Bft) NO 45 2 min 0,000 mm 4,6 UV-I 725 W/m 18,2 C 26,6 C 22,5 km/h (4 Bft) 100,00 %
08.08.2017 15:20 27,8 C 24,4 C 54 % 1008,6 hPa 0,0 l/m 13,4 km/h (3 Bft) NO 51 2 min 0,000 mm 4,6 UV-I 724 W/m 17,6 C 26,9 C 24,1 km/h (4 Bft) 100,00 %
08.08.2017 15:22 27,9 C 24,4 C 58 % 1008,6 hPa 0,0 l/m 15,5 km/h (3 Bft) NO 47 2 min 0,000 mm 4,5 UV-I 717 W/m 18,9 C 26,8 C 20,9 km/h (4 Bft) 100,00 %
08.08.2017 15:24 27,9 C 24,4 C 56 % 1008,6 hPa 0,0 l/m 18,2 km/h (3 Bft) NO 52 2 min 0,000 mm 4,4 UV-I 714 W/m 18,3 C 26,5 C 25,7 km/h (4 Bft) 100,00 %
08.08.2017 15:26 27,8 C 24,4 C 56 % 1008,5 hPa 0,0 l/m 20,2 km/h (4 Bft) NO 37 2 min 0,000 mm 4,3 UV-I 682 W/m 18,2 C 26,3 C 29,0 km/h (5 Bft) 96,23 %
08.08.2017 15:28 27,6 C 24,4 C 57 % 1008,6 hPa 0,0 l/m 17,1 km/h (3 Bft) N-NO 31 2 min 0,000 mm 4,1 UV-I 640 W/m 18,3 C 26,3 C 27,4 km/h (4 Bft) 100,00 %
08.08.2017 15:30 27,7 C 24,4 C 55 % 1008,6 hPa 0,0 l/m 15,9 km/h (3 Bft) NO 49 2 min 0,000 mm 3,6 UV-I 488 W/m 17,8 C 26,5 C 24,1 km/h (4 Bft) 100,00 %
08.08.2017 15:32 27,7 C 24,4 C 53 % 1008,6 hPa 0,0 l/m 17,7 km/h (3 Bft) O-NO 58 2 min 0,000 mm 4,1 UV-I 643 W/m 17,2 C 26,3 C 24,1 km/h (4 Bft) 98,00 %
08.08.2017 15:34 27,8 C 24,4 C 56 % 1008,6 hPa 0,0 l/m 13,2 km/h (3 Bft) NO 49 2 min 0,000 mm 3,7 UV-I 696 W/m 18,2 C 26,9 C 19,3 km/h (3 Bft) 100,00 %
08.08.2017 15:36 27,8 C 24,4 C 56 % 1008,6 hPa 0,0 l/m 15,7 km/h (3 Bft) O-NO 63 2 min 0,000 mm 4,0 UV-I 655 W/m 18,2 C 26,6 C 24,1 km/h (4 Bft) 100,00 %
08.08.2017 15:38 27,8 C 24,4 C 54 % 1008,7 hPa 0,0 l/m 15,8 km/h (3 Bft) NO 40 2 min 0,000 mm 4,0 UV-I 675 W/m 17,6 C 26,6 C 24,1 km/h (4 Bft) 100,00 %
08.08.2017 15:40 27,9 C 24,4 C 56 % 1008,7 hPa 0,0 l/m 16,0 km/h (3 Bft) NO 53 2 min 0,000 mm 3,8 UV-I 497 W/m 18,3 C 26,7 C 20,9 km/h (4 Bft) 100,00 %
08.08.2017 15:42 28,1 C 24,4 C 55 % 1008,7 hPa 0,0 l/m 16,6 km/h (3 Bft) N-NO 31 2 min 0,000 mm 4,0 UV-I 673 W/m 18,2 C 26,9 C 25,7 km/h (4 Bft) 100,00 %
08.08.2017 15:44 28,1 C 24,4 C 55 % 1008,6 hPa 0,0 l/m 15,7 km/h (3 Bft) O 82 2 min 0,000 mm 3,9 UV-I 661 W/m 18,2 C 27,0 C 25,7 km/h (4 Bft) 100,00 %
08.08.2017 15:46 28,0 C 24,4 C 52 % 1008,6 hPa 0,0 l/m 19,4 km/h (3 Bft) NO 53 2 min 0,000 mm 3,6 UV-I 586 W/m 17,2 C 26,6 C 29,0 km/h (5 Bft) 100,00 %
08.08.2017 15:48 27,9 C 24,4 C 54 % 1008,6 hPa 0,0 l/m 18,8 km/h (3 Bft) O-NO 66 2 min 0,000 mm 3,7 UV-I 631 W/m 17,7 C 26,5 C 24,1 km/h (4 Bft) 100,00 %
08.08.2017 15:50 27,9 C 24,4 C 55 % 1008,6 hPa 0,0 l/m 16,0 km/h (3 Bft) NO 47 2 min 0,000 mm 3,6 UV-I 582 W/m 18,0 C 26,7 C 24,1 km/h (4 Bft) 100,00 %
08.08.2017 15:52 27,8 C 24,4 C 54 % 1008,6 hPa 0,0 l/m 16,2 km/h (3 Bft) O-NO 57 2 min 0,000 mm 3,7 UV-I 641 W/m 17,6 C 26,6 C 25,7 km/h (4 Bft) 100,00 %
08.08.2017 15:54 27,9 C 24,4 C 56 % 1008,6 hPa 0,0 l/m 13,9 km/h (3 Bft) O-NO 61 2 min 0,000 mm 3,7 UV-I 659 W/m 18,3 C 26,9 C 29,0 km/h (5 Bft) 100,00 %
08.08.2017 15:56 28,0 C 24,4 C 53 % 1008,5 hPa 0,0 l/m 15,3 km/h (3 Bft) NO 44 2 min 0,000 mm 3,7 UV-I 654 W/m 17,5 C 26,9 C 22,5 km/h (4 Bft) 98,00 %
08.08.2017 15:58 28,1 C 24,4 C 56 % 1008,5 hPa 0,0 l/m 12,1 km/h (2 Bft) NO 47 2 min 0,000 mm 3,6 UV-I 641 W/m 18,5 C 27,3 C 19,3 km/h (3 Bft) 100,00 %
08.08.2017 16:00 28,1 C 24,4 C 54 % 1008,6 hPa 0,0 l/m 14,4 km/h (3 Bft) NO 36 2 min 0,000 mm 3,5 UV-I 589 W/m 17,9 C 27,1 C 19,3 km/h (3 Bft) 100,00 %
08.08.2017 16:02 28,1 C 24,4 C 53 % 1008,6 hPa 0,0 l/m 19,5 km/h (3 Bft) O-NO 57 2 min 0,558 mm 3,5 UV-I 624 W/m 17,6 C 26,7 C 27,4 km/h (4 Bft) 100,00 %
08.08.2017 16:04 28,0 C 24,4 C 53 % 1008,6 hPa 0,0 l/m 19,0 km/h (3 Bft) NO 53 2 min 0,000 mm 3,4 UV-I 618 W/m 17,5 C 26,6 C 24,1 km/h (4 Bft) 100,00 %
08.08.2017 16:06 28,1 C 24,4 C 54 % 1008,6 hPa 0,0 l/m 16,5 km/h (3 Bft) NO 51 2 min 0,000 mm 3,4 UV-I 625 W/m 17,9 C 26,9 C 25,7 km/h (4 Bft) 100,00 %
08.08.2017 16:08 28,1 C 24,4 C 56 % 1008,6 hPa 0,0 l/m 16,7 km/h (3 Bft) NO 44 2 min 0,000 mm 3,4 UV-I 624 W/m 18,5 C 26,9 C 22,5 km/h (4 Bft) 100,00 %
08.08.2017 16:10 27,9 C 24,4 C 56 % 1008,6 hPa 0,0 l/m 15,2 km/h (3 Bft) NO 46 2 min 0,000 mm 3,3 UV-I 609 W/m 18,3 C 26,8 C 20,9 km/h (4 Bft) 98,00 %
08.08.2017 16:12 28,1 C 24,4 C 53 % 1008,6 hPa 0,0 l/m 15,9 km/h (3 Bft) O-NO 71 2 min 0,000 mm 3,2 UV-I 606 W/m 17,6 C 27,0 C 25,7 km/h (4 Bft) 97,73 %
08.08.2017 16:14 28,1 C 24,4 C 53 % 1008,6 hPa 0,0 l/m 17,3 km/h (3 Bft) O-NO 67 2 min 0,000 mm 3,2 UV-I 583 W/m 17,6 C 26,9 C 22,5 km/h (4 Bft) 98,11 %
08.08.2017 16:16 28,1 C 24,4 C 52 % 1008,6 hPa 0,0 l/m 17,6 km/h (3 Bft) NO 38 2 min 0,000 mm 3,1 UV-I 585 W/m 17,3 C 26,8 C 24,1 km/h (4 Bft) 97,73 %
08.08.2017 16:18 28,0 C 24,4 C 53 % 1008,6 hPa 0,0 l/m 21,1 km/h (4 Bft) NO 46 2 min 0,000 mm 3,1 UV-I 586 W/m 17,5 C 26,5 C 27,4 km/h (4 Bft) 97,62 %
08.08.2017 16:20 28,0 C 24,4 C 53 % 1008,6 hPa 0,0 l/m 19,2 km/h (3 Bft) O-NO 70 2 min 0,000 mm 3,0 UV-I 575 W/m 17,5 C 26,6 C 25,7 km/h (4 Bft) 98,08 %
08.08.2017 16:22 28,0 C 24,4 C 53 % 1008,6 hPa 0,0 l/m 17,4 km/h (3 Bft) O-NO 60 2 min 0,000 mm 3,0 UV-I 567 W/m 17,5 C 26,7 C 24,1 km/h (4 Bft) 98,00 %
08.08.2017 16:24 28,1 C 24,4 C 53 % 1008,6 hPa 0,0 l/m 14,3 km/h (3 Bft) NO 52 2 min 0,000 mm 2,9 UV-I 538 W/m 17,6 C 27,1 C 20,9 km/h (4 Bft) 95,83 %
08.08.2017 16:26 28,1 C 24,4 C 54 % 1008,5 hPa 0,0 l/m 17,1 km/h (3 Bft) NO 49 2 min 0,000 mm 2,9 UV-I 492 W/m 17,9 C 26,9 C 29,0 km/h (5 Bft) 100,00 %
08.08.2017 16:28 28,2 C 24,4 C 54 % 1008,6 hPa 0,0 l/m 14,7 km/h (3 Bft) N-NO 30 2 min 0,000 mm 2,8 UV-I 482 W/m 18,0 C 27,2 C 25,7 km/h (4 Bft) 96,00 %
08.08.2017 16:30 28,2 C 24,4 C 53 % 1008,5 hPa 0,0 l/m 12,3 km/h (3 Bft) NO 45 2 min 0,000 mm 2,7 UV-I 457 W/m 17,7 C 27,4 C 17,7 km/h (3 Bft) 98,00 %
08.08.2017 16:32 28,1 C 24,4 C 52 % 1008,5 hPa 0,0 l/m 13,8 km/h (3 Bft) NO 46 2 min 0,000 mm 2,7 UV-I 476 W/m 17,3 C 27,2 C 19,3 km/h (3 Bft) 97,37 %
08.08.2017 16:34 28,1 C 24,4 C 53 % 1008,5 hPa 0,0 l/m 13,1 km/h (3 Bft) NO 49 2 min 0,000 mm 2,7 UV-I 457 W/m 17,6 C 27,2 C 27,4 km/h (4 Bft) 97,73 %
08.08.2017 16:36 28,1 C 24,4 C 52 % 1008,5 hPa 0,0 l/m 17,7 km/h (3 Bft) O-NO 78 2 min 0,000 mm 2,6 UV-I 385 W/m 17,3 C 26,8 C 24,1 km/h (4 Bft) 98,21 %
08.08.2017 16:38 28,0 C 24,4 C 52 % 1008,5 hPa 0,0 l/m 18,4 km/h (3 Bft) O-NO 65 2 min 0,000 mm 2,6 UV-I 496 W/m 17,2 C 26,7 C 22,5 km/h (4 Bft) 97,73 %
08.08.2017 16:40 28,0 C 24,4 C 53 % 1008,5 hPa 0,0 l/m 19,9 km/h (4 Bft) NO 50 2 min 0,000 mm 2,5 UV-I 498 W/m 17,5 C 26,5 C 25,7 km/h (4 Bft) 97,87 %
08.08.2017 16:42 28,0 C 24,4 C 54 % 1008,6 hPa 0,0 l/m 15,7 km/h (3 Bft) O-NO 61 2 min 0,000 mm 2,5 UV-I 497 W/m 17,8 C 26,9 C 27,4 km/h (4 Bft) 96,00 %
08.08.2017 16:44 28,0 C 24,4 C 52 % 1008,5 hPa 0,0 l/m 18,1 km/h (3 Bft) NO 47 2 min 0,000 mm 2,4 UV-I 452 W/m 17,2 C 26,7 C 24,1 km/h (4 Bft) 94,00 %
08.08.2017 16:46 27,9 C 24,4 C 53 % 1008,5 hPa 0,0 l/m 15,7 km/h (3 Bft) NO 52 2 min 0,000 mm 2,4 UV-I 392 W/m 17,4 C 26,8 C 22,5 km/h (4 Bft) 97,30 %
08.08.2017 16:48 27,9 C 24,4 C 55 % 1008,4 hPa 0,0 l/m 13,9 km/h (3 Bft) NO 46 2 min 0,000 mm 2,3 UV-I 428 W/m 18,0 C 26,9 C 20,9 km/h (4 Bft) 96,23 %
08.08.2017 16:50 27,9 C 24,4 C 54 % 1008,4 hPa 0,0 l/m 15,9 km/h (3 Bft) N-NO 28 2 min 0,000 mm 2,3 UV-I 440 W/m 17,7 C 26,7 C 22,5 km/h (4 Bft) 97,56 %
08.08.2017 16:52 28,0 C 24,4 C 54 % 1008,5 hPa 0,0 l/m 12,0 km/h (2 Bft) O-NO 66 2 min 0,000 mm 2,3 UV-I 426 W/m 17,8 C 27,2 C 20,9 km/h (4 Bft) 96,43 %
08.08.2017 16:54 28,1 C 24,4 C 54 % 1008,4 hPa 0,0 l/m 17,9 km/h (3 Bft) NO 46 2 min 0,000 mm 2,2 UV-I 406 W/m 17,9 C 26,8 C 24,1 km/h (4 Bft) 100,00 %
08.08.2017 16:56 28,1 C 24,4 C 55 % 1008,3 hPa 0,0 l/m 17,4 km/h (3 Bft) NO 49 2 min 0,000 mm 2,2 UV-I 415 W/m 18,2 C 26,9 C 22,5 km/h (4 Bft) 96,00 %
08.08.2017 16:58 28,1 C 24,4 C 55 % 1008,3 hPa 0,0 l/m 17,4 km/h (3 Bft) O-NO 61 2 min 0,000 mm 2,1 UV-I 420 W/m 18,2 C 26,9 C 25,7 km/h (4 Bft) 95,74 %
08.08.2017 17:00 28,1 C 24,4 C 52 % 1008,3 hPa 0,0 l/m 20,4 km/h (4 Bft) O-NO 69 2 min 0,458 mm 2,1 UV-I 422 W/m 17,3 C 26,6 C 29,0 km/h (5 Bft) 98,00 %
08.08.2017 17:02 28,1 C 24,4 C 52 % 1008,3 hPa 0,0 l/m 23,4 km/h (4 Bft) O-NO 70 2 min 0,000 mm 2,1 UV-I 422 W/m 17,3 C 26,5 C 32,2 km/h (5 Bft) 98,11 %
08.08.2017 17:04 27,9 C 24,4 C 53 % 1008,4 hPa 0,0 l/m 18,6 km/h (3 Bft) O-NO 65 2 min 0,000 mm 2,0 UV-I 417 W/m 17,4 C 26,5 C 27,4 km/h (4 Bft) 97,37 %
08.08.2017 17:06 27,9 C 24,4 C 52 % 1008,4 hPa 0,0 l/m 20,8 km/h (4 Bft) NO 53 2 min 0,000 mm 2,0 UV-I 408 W/m 17,1 C 26,4 C 25,7 km/h (4 Bft) 98,21 %
08.08.2017 17:08 27,9 C 24,4 C 54 % 1008,3 hPa 0,0 l/m 20,3 km/h (4 Bft) NO 47 2 min 0,000 mm 1,9 UV-I 407 W/m 17,7 C 26,4 C 30,6 km/h (5 Bft) 97,37 %
08.08.2017 17:10 27,9 C 24,4 C 53 % 1008,3 hPa 0,0 l/m 15,4 km/h (3 Bft) O 80 2 min 0,000 mm 1,9 UV-I 442 W/m 17,4 C 26,8 C 22,5 km/h (4 Bft) 96,23 %
08.08.2017 17:12 27,9 C 24,4 C 54 % 1008,4 hPa 0,0 l/m 16,2 km/h (3 Bft) O-NO 60 2 min 0,000 mm 1,9 UV-I 459 W/m 17,7 C 26,7 C 22,5 km/h (4 Bft) 97,14 %
08.08.2017 17:14 27,9 C 24,4 C 53 % 1008,4 hPa 0,0 l/m 17,3 km/h (3 Bft) NO 45 2 min 0,000 mm 1,8 UV-I 452 W/m 17,4 C 26,6 C 24,1 km/h (4 Bft) 98,31 %
08.08.2017 17:16 27,9 C 24,4 C 56 % 1008,4 hPa 0,0 l/m 13,5 km/h (3 Bft) O-NO 67 2 min 0,000 mm 1,8 UV-I 436 W/m 18,3 C 27,0 C 20,9 km/h (4 Bft) 93,18 %
08.08.2017 17:18 28,0 C 24,4 C 53 % 1008,3 hPa 0,0 l/m 18,9 km/h (3 Bft) O 81 2 min 0,000 mm 1,7 UV-I 439 W/m 17,5 C 26,6 C 30,6 km/h (5 Bft) 100,00 %
08.08.2017 17:20 27,9 C 24,4 C 53 % 1008,4 hPa 0,0 l/m 19,8 km/h (3 Bft) O-NO 57 2 min 0,000 mm 1,7 UV-I 439 W/m 17,4 C 26,4 C 25,7 km/h (4 Bft) 96,23 %
08.08.2017 17:22 27,9 C 24,4 C 53 % 1008,4 hPa 0,0 l/m 21,1 km/h (4 Bft) O-NO 62 2 min 0,000 mm 1,6 UV-I 431 W/m 17,4 C 26,3 C 29,0 km/h (5 Bft) 97,14 %
08.08.2017 17:24 27,8 C 24,4 C 54 % 1008,4 hPa 0,0 l/m 21,3 km/h (4 Bft) O-NO 63 2 min 0,000 mm 1,6 UV-I 413 W/m 17,6 C 26,2 C 27,4 km/h (4 Bft) 96,77 %
08.08.2017 17:26 27,8 C 24,4 C 53 % 1008,4 hPa 0,0 l/m 21,1 km/h (4 Bft) O-NO 61 2 min 0,000 mm 1,4 UV-I 348 W/m 17,3 C 26,2 C 30,6 km/h (5 Bft) 97,56 %
08.08.2017 17:28 27,7 C 24,4 C 53 % 1008,4 hPa 0,0 l/m 19,7 km/h (3 Bft) NO 42 2 min 0,000 mm 1,3 UV-I 282 W/m 17,2 C 26,2 C 29,0 km/h (5 Bft) 97,73 %
08.08.2017 17:30 27,7 C 24,4 C 53 % 1008,4 hPa 0,0 l/m 19,6 km/h (3 Bft) NO 53 2 min 0,000 mm 1,3 UV-I 307 W/m 17,2 C 26,2 C 30,6 km/h (5 Bft) 95,74 %
08.08.2017 17:32 27,6 C 24,4 C 54 % 1008,4 hPa 0,0 l/m 20,4 km/h (4 Bft) NO 41 2 min 0,000 mm 1,3 UV-I 331 W/m 17,4 C 26,0 C 29,0 km/h (5 Bft) 98,00 %
08.08.2017 17:34 27,5 C 24,4 C 53 % 1008,4 hPa 0,0 l/m 15,9 km/h (3 Bft) O-NO 58 2 min 0,000 mm 1,2 UV-I 329 W/m 17,0 C 26,2 C 22,5 km/h (4 Bft) 93,33 %
08.08.2017 17:36 27,4 C 24,4 C 53 % 1008,4 hPa 0,0 l/m 17,6 km/h (3 Bft) O-NO 78 2 min 0,000 mm 1,2 UV-I 296 W/m 17,0 C 26,0 C 24,1 km/h (4 Bft) 98,44 %
08.08.2017 17:38 27,4 C 24,4 C 54 % 1008,5 hPa 0,0 l/m 20,7 km/h (4 Bft) O 89 0 min 0,000 mm 1,1 UV-I 201 W/m 17,3 C 25,7 C 25,7 km/h (4 Bft) 97,92 %
08.08.2017 17:40 27,3 C 24,4 C 55 % 1008,4 hPa 0,0 l/m 14,3 km/h (3 Bft) NO 39 2 min 0,000 mm 1,1 UV-I 246 W/m 17,4 C 26,2 C 22,5 km/h (4 Bft) 95,74 %
08.08.2017 17:42 27,2 C 24,4 C 56 % 1008,4 hPa 0,0 l/m 11,4 km/h (2 Bft) NO 55 2 min 0,000 mm 1,1 UV-I 262 W/m 17,6 C 26,4 C 16,1 km/h (3 Bft) 98,00 %
08.08.2017 17:44 27,2 C 24,4 C 57 % 1008,4 hPa 0,0 l/m 12,5 km/h (3 Bft) NO 42 0 min 0,000 mm 1,0 UV-I 210 W/m 17,9 C 26,3 C 24,1 km/h (4 Bft) 95,12 %
08.08.2017 17:46 27,1 C 24,4 C 56 % 1008,4 hPa 0,0 l/m 16,6 km/h (3 Bft) N-NO 26 2 min 0,000 mm 1,0 UV-I 244 W/m 17,5 C 25,7 C 27,4 km/h (4 Bft) 100,00 %
08.08.2017 17:48 27,1 C 24,4 C 58 % 1008,4 hPa 0,0 l/m 11,6 km/h (2 Bft) O-NO 70 2 min 0,000 mm 1,0 UV-I 249 W/m 18,1 C 26,3 C 14,5 km/h (3 Bft) 100,00 %
08.08.2017 17:50 27,1 C 24,4 C 56 % 1008,4 hPa 0,0 l/m 14,3 km/h (3 Bft) O-NO 75 0 min 0,000 mm 0,8 UV-I 154 W/m 17,5 C 25,9 C 20,9 km/h (4 Bft) 100,00 %
08.08.2017 17:52 27,0 C 24,4 C 56 % 1008,5 hPa 0,0 l/m 14,0 km/h (3 Bft) NO 54 0 min 0,000 mm 0,8 UV-I 143 W/m 17,5 C 25,8 C 20,9 km/h (4 Bft) 100,00 %
08.08.2017 17:54 26,9 C 24,4 C 57 % 1008,5 hPa 0,0 l/m 13,7 km/h (3 Bft) O-NO 72 0 min 0,000 mm 0,8 UV-I 130 W/m 17,6 C 25,8 C 20,9 km/h (4 Bft) 100,00 %
08.08.2017 17:56 26,8 C 24,4 C 56 % 1008,4 hPa 0,0 l/m 13,5 km/h (3 Bft) NO 39 0 min 0,000 mm 0,7 UV-I 127 W/m 17,3 C 25,7 C 19,3 km/h (3 Bft) 100,00 %
08.08.2017 17:58 26,8 C 24,4 C 57 % 1008,4 hPa 0,0 l/m 13,6 km/h (3 Bft) NO 49 0 min 0,000 mm 0,7 UV-I 186 W/m 17,6 C 25,7 C 19,3 km/h (3 Bft) 100,00 %
08.08.2017 18:00 26,7 C 24,4 C 58 % 1008,4 hPa 0,0 l/m 13,3 km/h (3 Bft) O-NO 57 0 min 0,000 mm 0,7 UV-I 206 W/m 17,7 C 25,6 C 17,7 km/h (3 Bft) 100,00 %
08.08.2017 18:03 26,7 C 24,4 C 58 % 1008,4 hPa 0,0 l/m 10,6 km/h (2 Bft) O-NO 67 0 min 0,330 mm 0,7 UV-I 192 W/m 17,7 C 25,9 C 16,1 km/h (3 Bft) 97,40 %
08.08.2017 18:04 26,7 C 24,4 C 57 % 1008,4 hPa 0,0 l/m 12,1 km/h (2 Bft) O-NO 76 0 min 0,000 mm 0,7 UV-I 146 W/m 17,5 C 25,7 C 16,1 km/h (3 Bft) 100,00 %
08.08.2017 18:06 26,6 C 24,4 C 59 % 1008,4 hPa 0,0 l/m 10,3 km/h (2 Bft) NO 51 0 min 0,000 mm 0,7 UV-I 186 W/m 17,9 C 25,9 C 20,9 km/h (4 Bft) 95,45 %
08.08.2017 18:08 26,6 C 24,4 C 57 % 1008,3 hPa 0,0 l/m 14,7 km/h (3 Bft) O-NO 63 0 min 0,000 mm 0,7 UV-I 196 W/m 17,4 C 25,3 C 24,1 km/h (4 Bft) 98,00 %
08.08.2017 18:10 26,7 C 24,4 C 59 % 1008,3 hPa 0,0 l/m 12,1 km/h (2 Bft) NO 45 2 min 0,000 mm 0,8 UV-I 297 W/m 18,0 C 25,7 C 19,3 km/h (3 Bft) 97,62 %
08.08.2017 18:12 26,8 C 24,4 C 58 % 1008,3 hPa 0,0 l/m 13,7 km/h (3 Bft) NO 53 2 min 0,000 mm 0,8 UV-I 365 W/m 17,8 C 25,6 C 20,9 km/h (4 Bft) 96,15 %
08.08.2017 18:14 26,9 C 24,4 C 57 % 1008,3 hPa 0,0 l/m 16,4 km/h (3 Bft) O-NO 61 2 min 0,000 mm 0,8 UV-I 353 W/m 17,6 C 25,5 C 24,1 km/h (4 Bft) 100,00 %
08.08.2017 18:16 26,9 C 24,4 C 58 % 1008,3 hPa 0,0 l/m 12,0 km/h (2 Bft) O-NO 69 2 min 0,000 mm 0,8 UV-I 349 W/m 17,9 C 26,0 C 16,1 km/h (3 Bft) 97,01 %
08.08.2017 18:18 27,0 C 24,4 C 58 % 1008,3 hPa 0,0 l/m 8,9 km/h (2 Bft) N-NO 33 2 min 0,000 mm 0,8 UV-I 331 W/m 18,0 C 26,5 C 14,5 km/h (3 Bft) 97,78 %
08.08.2017 18:20 27,0 C 24,4 C 58 % 1008,4 hPa 0,0 l/m 13,3 km/h (3 Bft) O-NO 62 2 min 0,000 mm 0,7 UV-I 288 W/m 18,0 C 25,9 C 17,7 km/h (3 Bft) 97,87 %
08.08.2017 18:22 27,0 C 25,0 C 58 % 1008,4 hPa 0,0 l/m 12,2 km/h (2 Bft) O-NO 69 2 min 0,000 mm 0,7 UV-I 276 W/m 18,0 C 26,1 C 20,9 km/h (4 Bft) 98,00 %
08.08.2017 18:24 27,0 C 24,4 C 58 % 1008,5 hPa 0,0 l/m 6,0 km/h (2 Bft) O-NO 57 2 min 0,000 mm 0,7 UV-I 312 W/m 18,0 C 27,0 C 9,7 km/h (2 Bft) 98,00 %
08.08.2017 18:26 27,0 C 24,4 C 59 % 1008,5 hPa 0,0 l/m 10,1 km/h (2 Bft) O-NO 68 2 min 0,000 mm 0,7 UV-I 287 W/m 18,3 C 26,4 C 16,1 km/h (3 Bft) 97,37 %
08.08.2017 18:28 27,0 C 24,4 C 59 % 1008,5 hPa 0,0 l/m 12,6 km/h (3 Bft) O-NO 57 2 min 0,000 mm 0,6 UV-I 188 W/m 18,3 C 26,0 C 17,7 km/h (3 Bft) 97,73 %
08.08.2017 18:30 26,9 C 25,0 C 57 % 1008,5 hPa 0,0 l/m 17,0 km/h (3 Bft) O-NO 61 2 min 0,000 mm 0,6 UV-I 178 W/m 17,6 C 25,4 C 22,5 km/h (4 Bft) 96,23 %
08.08.2017 18:32 26,8 C 25,0 C 59 % 1008,5 hPa 0,0 l/m 14,9 km/h (3 Bft) O-NO 73 2 min 0,000 mm 0,6 UV-I 253 W/m 18,1 C 25,5 C 20,9 km/h (4 Bft) 98,11 %
08.08.2017 18:34 26,8 C 24,4 C 58 % 1008,5 hPa 0,0 l/m 20,2 km/h (4 Bft) O-NO 58 2 min 0,000 mm 0,6 UV-I 260 W/m 17,8 C 25,0 C 25,7 km/h (4 Bft) 97,37 %
08.08.2017 18:36 26,8 C 24,4 C 58 % 1008,6 hPa 0,0 l/m 14,7 km/h (3 Bft) O-NO 59 2 min 0,000 mm 0,6 UV-I 257 W/m 17,8 C 25,5 C 20,9 km/h (4 Bft) 100,00 %
08.08.2017 18:38 26,8 C 24,4 C 58 % 1008,6 hPa 0,0 l/m 14,9 km/h (3 Bft) O-NO 72 2 min 0,000 mm 0,5 UV-I 291 W/m 17,8 C 25,5 C 19,3 km/h (3 Bft) 100,00 %
08.08.2017 18:40 26,8 C 24,4 C 58 % 1008,7 hPa 0,0 l/m 9,3 km/h (2 Bft) N-NO 32 2 min 0,000 mm 0,5 UV-I 284 W/m 17,8 C 26,3 C 16,1 km/h (3 Bft) 94,74 %
08.08.2017 18:42 26,9 C 24,4 C 60 % 1008,7 hPa 0,0 l/m 8,6 km/h (2 Bft) O-NO 68 2 min 0,000 mm 0,5 UV-I 279 W/m 18,5 C 26,5 C 14,5 km/h (3 Bft) 100,00 %
08.08.2017 18:44 26,9 C 24,4 C 58 % 1008,8 hPa 0,0 l/m 11,7 km/h (2 Bft) O-NO 74 2 min 0,000 mm 0,5 UV-I 252 W/m 17,9 C 26,0 C 17,7 km/h (3 Bft) 98,11 %
08.08.2017 18:46 26,8 C 24,4 C 59 % 1008,7 hPa 0,0 l/m 12,3 km/h (3 Bft) O 80 2 min 0,000 mm 0,5 UV-I 228 W/m 18,1 C 25,8 C 17,7 km/h (3 Bft) 100,00 %
08.08.2017 18:48 26,8 C 25,0 C 58 % 1008,7 hPa 0,0 l/m 14,0 km/h (3 Bft) NO 53 2 min 0,000 mm 0,0 UV-I 198 W/m 17,8 C 25,6 C 19,3 km/h (3 Bft) 100,00 %
08.08.2017 18:50 26,8 C 24,4 C 58 % 1008,7 hPa 0,0 l/m 14,9 km/h (3 Bft) O-NO 61 2 min 0,000 mm 0,0 UV-I 194 W/m 17,8 C 25,5 C 22,5 km/h (4 Bft) 100,00 %
08.08.2017 18:52 26,7 C 24,4 C 58 % 1008,7 hPa 0,0 l/m 12,3 km/h (3 Bft) O-NO 65 2 min 0,000 mm 0,0 UV-I 200 W/m 17,7 C 25,7 C 17,7 km/h (3 Bft) 100,00 %
08.08.2017 18:54 26,6 C 24,4 C 59 % 1008,8 hPa 0,0 l/m 10,8 km/h (2 Bft) NO 46 2 min 0,000 mm 0,0 UV-I 164 W/m 17,9 C 25,8 C 17,7 km/h (3 Bft) 100,00 %
08.08.2017 18:56 26,5 C 24,4 C 59 % 1008,8 hPa 0,0 l/m 9,2 km/h (2 Bft) NO 55 0 min 0,000 mm 0,0 UV-I 118 W/m 17,8 C 26,0 C 14,5 km/h (3 Bft) 100,00 %
08.08.2017 18:58 26,4 C 24,4 C 60 % 1008,8 hPa 0,0 l/m 11,5 km/h (2 Bft) O-NO 66 0 min 0,000 mm 0,0 UV-I 114 W/m 18,0 C 25,5 C 19,3 km/h (3 Bft) 100,00 %
08.08.2017 19:00 26,3 C 24,4 C 60 % 1008,9 hPa 0,0 l/m 11,9 km/h (2 Bft) O-NO 59 0 min 0,228 mm 0,0 UV-I 103 W/m 17,9 C 25,3 C 17,7 km/h (3 Bft) 100,00 %
08.08.2017 19:02 26,2 C 24,4 C 60 % 1008,9 hPa 0,0 l/m 12,9 km/h (3 Bft) NO 51 0 min 0,000 mm 0,0 UV-I 101 W/m 17,8 C 25,0 C 17,7 km/h (3 Bft) 100,00 %
08.08.2017 19:04 26,1 C 24,4 C 60 % 1008,9 hPa 0,0 l/m 10,4 km/h (2 Bft) O-NO 72 0 min 0,000 mm 0,0 UV-I 98 W/m 17,7 C 25,3 C 17,7 km/h (3 Bft) 94,34 %
08.08.2017 19:06 26,0 C 24,4 C 60 % 1008,9 hPa 0,0 l/m 11,9 km/h (2 Bft) O-NO 59 0 min 0,000 mm 0,0 UV-I 96 W/m 17,6 C 25,0 C 17,7 km/h (3 Bft) 100,00 %
08.08.2017 19:08 25,9 C 24,4 C 61 % 1009,0 hPa 0,0 l/m 13,5 km/h (3 Bft) O-NO 67 0 min 0,000 mm 0,0 UV-I 93 W/m 17,8 C 24,6 C 19,3 km/h (3 Bft) 100,00 %
08.08.2017 19:10 25,9 C 24,4 C 61 % 1009,0 hPa 0,0 l/m 13,2 km/h (3 Bft) NO 53 0 min 0,000 mm 0,0 UV-I 100 W/m 17,8 C 24,6 C 17,7 km/h (3 Bft) 100,00 %
08.08.2017 19:12 25,8 C 24,4 C 61 % 1009,1 hPa 0,0 l/m 11,6 km/h (2 Bft) NO 55 2 min 0,000 mm 0,0 UV-I 117 W/m 17,7 C 24,8 C 16,1 km/h (3 Bft) 100,00 %
08.08.2017 19:14 25,8 C 24,4 C 61 % 1009,1 hPa 0,0 l/m 12,9 km/h (3 Bft) NO 56 2 min 0,000 mm 0,0 UV-I 135 W/m 17,7 C 24,6 C 19,3 km/h (3 Bft) 100,00 %
08.08.2017 19:16 25,8 C 24,4 C 61 % 1009,1 hPa 0,0 l/m 13,7 km/h (3 Bft) O-NO 75 2 min 0,000 mm 0,0 UV-I 132 W/m 17,7 C 24,5 C 17,7 km/h (3 Bft) 98,11 %
08.08.2017 19:18 25,8 C 24,4 C 62 % 1009,1 hPa 0,0 l/m 11,5 km/h (2 Bft) O 85 2 min 0,000 mm 0,0 UV-I 124 W/m 18,0 C 24,8 C 17,7 km/h (3 Bft) 97,56 %
08.08.2017 19:20 25,8 C 24,4 C 61 % 1009,1 hPa 0,0 l/m 12,9 km/h (3 Bft) O 96 2 min 0,000 mm 0,0 UV-I 122 W/m 17,7 C 24,6 C 19,3 km/h (3 Bft) 100,00 %
08.08.2017 19:22 25,8 C 24,4 C 61 % 1009,0 hPa 0,0 l/m 16,2 km/h (3 Bft) O-NO 68 2 min 0,000 mm 0,0 UV-I 110 W/m 17,7 C 24,1 C 20,9 km/h (4 Bft) 98,11 %
08.08.2017 19:24 25,8 C 24,4 C 61 % 1009,0 hPa 0,0 l/m 12,9 km/h (3 Bft) O-NO 62 2 min 0,000 mm 0,0 UV-I 100 W/m 17,7 C 24,6 C 17,7 km/h (3 Bft) 100,00 %
08.08.2017 19:26 25,7 C 24,4 C 61 % 1009,0 hPa 0,0 l/m 13,4 km/h (3 Bft) O-NO 59 2 min 0,000 mm 0,0 UV-I 94 W/m 17,6 C 24,4 C 19,3 km/h (3 Bft) 100,00 %
08.08.2017 19:28 25,7 C 24,4 C 61 % 1009,0 hPa 0,0 l/m 9,1 km/h (2 Bft) NO 46 2 min 0,000 mm 0,0 UV-I 94 W/m 17,6 C 25,1 C 16,1 km/h (3 Bft) 100,00 %
08.08.2017 19:30 25,6 C 24,4 C 62 % 1009,0 hPa 0,0 l/m 8,8 km/h (2 Bft) O-NO 78 2 min 0,000 mm 0,0 UV-I 93 W/m 17,8 C 25,1 C 16,1 km/h (3 Bft) 100,00 %
08.08.2017 19:32 25,6 C 24,4 C 63 % 1009,1 hPa 0,0 l/m 8,4 km/h (2 Bft) N-NO 33 2 min 0,000 mm 0,0 UV-I 78 W/m 18,0 C 25,1 C 12,9 km/h (3 Bft) 100,00 %
08.08.2017 19:34 25,4 C 24,4 C 63 % 1009,1 hPa 0,0 l/m 10,7 km/h (2 Bft) O-NO 73 0 min 0,000 mm 0,0 UV-I 73 W/m 17,8 C 24,5 C 20,9 km/h (4 Bft) 100,00 %
08.08.2017 19:36 25,3 C 24,4 C 63 % 1009,1 hPa 0,0 l/m 13,9 km/h (3 Bft) NO 55 0 min 0,000 mm 0,0 UV-I 69 W/m 17,7 C 23,8 C 17,7 km/h (3 Bft) 98,11 %
08.08.2017 19:38 25,2 C 24,4 C 63 % 1009,1 hPa 0,0 l/m 10,0 km/h (2 Bft) NO 54 0 min 0,000 mm 0,0 UV-I 65 W/m 17,6 C 24,4 C 22,5 km/h (4 Bft) 100,00 %
08.08.2017 19:40 25,2 C 24,4 C 63 % 1009,3 hPa 0,0 l/m 13,3 km/h (3 Bft) O-NO 73 2 min 0,000 mm 0,0 UV-I 71 W/m 17,6 C 23,8 C 19,3 km/h (3 Bft) 100,00 %
08.08.2017 19:42 25,2 C 24,4 C 64 % 1009,3 hPa 0,0 l/m 6,8 km/h (2 Bft) NO 46 2 min 0,000 mm 0,0 UV-I 67 W/m 17,9 C 25,1 C 9,7 km/h (2 Bft) 100,00 %
08.08.2017 19:44 25,1 C 24,4 C 63 % 1009,3 hPa 0,0 l/m 6,1 km/h (2 Bft) O-NO 67 2 min 0,000 mm 0,0 UV-I 66 W/m 17,5 C 25,1 C 8,0 km/h (2 Bft) 100,00 %
08.08.2017 19:46 25,1 C 24,4 C 64 % 1009,4 hPa 0,0 l/m 9,2 km/h (2 Bft) O-NO 75 2 min 0,000 mm 0,0 UV-I 58 W/m 17,8 C 24,4 C 14,5 km/h (3 Bft) 98,11 %
08.08.2017 19:48 25,0 C 24,4 C 64 % 1009,3 hPa 0,0 l/m 8,9 km/h (2 Bft) O-NO 60 2 min 0,000 mm 0,0 UV-I 53 W/m 17,7 C 24,4 C 12,9 km/h (3 Bft) 100,00 %
08.08.2017 19:50 24,9 C 24,4 C 64 % 1009,4 hPa 0,0 l/m 7,5 km/h (2 Bft) O-NO 77 0 min 0,000 mm 0,0 UV-I 47 W/m 17,6 C 24,6 C 11,3 km/h (2 Bft) 97,87 %
08.08.2017 19:52 24,8 C 24,4 C 65 % 1009,4 hPa 0,0 l/m 5,5 km/h (1 Bft) O-NO 64 0 min 0,000 mm 0,0 UV-I 40 W/m 17,8 C 24,8 C 9,7 km/h (2 Bft) 100,00 %
08.08.2017 19:54 24,8 C 24,4 C 65 % 1009,6 hPa 0,0 l/m 5,2 km/h (1 Bft) NO 53 0 min 0,000 mm 0,0 UV-I 34 W/m 17,8 C 24,8 C 9,7 km/h (2 Bft) 98,11 %
08.08.2017 19:56 24,7 C 24,4 C 65 % 1009,5 hPa 0,0 l/m 5,2 km/h (1 Bft) N-NO 31 0 min 0,000 mm 0,0 UV-I 30 W/m 17,7 C 24,7 C 8,0 km/h (2 Bft) 95,12 %
08.08.2017 19:58 24,6 C 24,4 C 66 % 1009,6 hPa 0,0 l/m 3,8 km/h (1 Bft) O-NO 57 0 min 0,000 mm 0,0 UV-I 28 W/m 17,8 C 24,6 C 4,8 km/h (1 Bft) 95,74 %
08.08.2017 20:00 24,5 C 24,4 C 67 % 1009,6 hPa 0,0 l/m 4,1 km/h (1 Bft) NO 41 0 min 0,000 mm 0,0 UV-I 26 W/m 18,0 C 24,5 C 9,7 km/h (2 Bft) 98,11 %
08.08.2017 20:02 24,4 C 24,4 C 68 % 1009,5 hPa 0,0 l/m 6,0 km/h (2 Bft) NO 49 0 min 0,127 mm 0,0 UV-I 26 W/m 18,1 C 24,4 C 12,9 km/h (3 Bft) 97,37 %
08.08.2017 20:04 24,4 C 24,4 C 67 % 1009,6 hPa 0,0 l/m 6,7 km/h (2 Bft) NO 49 0 min 0,000 mm 0,0 UV-I 25 W/m 17,9 C 24,3 C 12,9 km/h (3 Bft) 97,87 %
08.08.2017 20:06 24,3 C 24,4 C 67 % 1009,7 hPa 0,0 l/m 6,5 km/h (2 Bft) O-NO 71 0 min 0,000 mm 0,0 UV-I 25 W/m 17,8 C 24,3 C 11,3 km/h (2 Bft) 97,87 %
08.08.2017 20:08 24,3 C 24,4 C 67 % 1009,8 hPa 0,0 l/m 5,0 km/h (1 Bft) O 82 2 min 0,000 mm 0,0 UV-I 26 W/m 17,8 C 24,3 C 8,0 km/h (2 Bft) 98,21 %
08.08.2017 20:10 24,3 C 24,4 C 67 % 1009,7 hPa 0,0 l/m 6,4 km/h (2 Bft) O-NO 59 2 min 0,000 mm 0,0 UV-I 26 W/m 17,8 C 24,3 C 9,7 km/h (2 Bft) 94,87 %
08.08.2017 20:12 24,2 C 24,4 C 67 % 1009,7 hPa 0,0 l/m 7,7 km/h (2 Bft) O-NO 71 2 min 0,000 mm 0,0 UV-I 26 W/m 17,7 C 23,8 C 12,9 km/h (3 Bft) 96,00 %
08.08.2017 20:14 24,2 C 24,4 C 67 % 1009,6 hPa 0,0 l/m 8,3 km/h (2 Bft) NO 56 2 min 0,000 mm 0,0 UV-I 25 W/m 17,7 C 23,7 C 12,9 km/h (3 Bft) 98,08 %
08.08.2017 20:16 24,2 C 24,4 C 67 % 1009,7 hPa 0,0 l/m 8,1 km/h (2 Bft) O-NO 67 2 min 0,000 mm 0,0 UV-I 23 W/m 17,7 C 23,7 C 14,5 km/h (3 Bft) 94,44 %
08.08.2017 20:18 24,2 C 24,4 C 67 % 1009,7 hPa 0,0 l/m 6,0 km/h (2 Bft) NO 42 0 min 0,000 mm 0,0 UV-I 15 W/m 17,7 C 24,2 C 9,7 km/h (2 Bft) 98,00 %
08.08.2017 20:20 24,1 C 24,4 C 67 % 1009,6 hPa 0,0 l/m 4,3 km/h (1 Bft) O 79 0 min 0,000 mm 0,0 UV-I 18 W/m 17,6 C 24,1 C 8,0 km/h (2 Bft) 98,00 %
08.08.2017 20:22 24,1 C 24,4 C 67 % 1009,7 hPa 0,0 l/m 7,3 km/h (2 Bft) O-NO 61 0 min 0,000 mm 0,0 UV-I 15 W/m 17,6 C 23,8 C 9,7 km/h (2 Bft) 98,00 %
08.08.2017 20:24 24,0 C 24,4 C 68 % 1009,7 hPa 0,0 l/m 4,2 km/h (1 Bft) O-NO 63 0 min 0,000 mm 0,0 UV-I 14 W/m 17,7 C 24,0 C 9,7 km/h (2 Bft) 97,14 %
08.08.2017 20:26 23,9 C 24,4 C 68 % 1009,8 hPa 0,0 l/m 2,9 km/h (1 Bft) O-NO 65 0 min 0,000 mm 0,0 UV-I 13 W/m 17,6 C 23,9 C 8,0 km/h (2 Bft) 98,21 %
08.08.2017 20:28 23,8 C 24,4 C 68 % 1010,0 hPa 0,0 l/m 1,1 km/h (1 Bft) NO 51 0 min 0,000 mm 0,0 UV-I 12 W/m 17,5 C 23,8 C 6,4 km/h (2 Bft) 97,56 %
08.08.2017 20:30 23,8 C 24,4 C 69 % 1010,0 hPa 0,0 l/m 2,1 km/h (1 Bft) NO 51 0 min 0,000 mm 0,0 UV-I 12 W/m 17,8 C 23,8 C 4,8 km/h (1 Bft) 100,00 %
08.08.2017 20:32 23,7 C 24,4 C 69 % 1010,1 hPa 0,0 l/m 4,3 km/h (1 Bft) NO 51 0 min 0,000 mm 0,0 UV-I 9 W/m 17,7 C 23,7 C 6,4 km/h (2 Bft) 100,00 %
08.08.2017 20:34 23,7 C 24,4 C 69 % 1010,1 hPa 0,0 l/m 4,3 km/h (1 Bft) NO 51 0 min 0,000 mm 0,0 UV-I 7 W/m 17,7 C 23,7 C 4,8 km/h (1 Bft) 100,00 %
08.08.2017 20:36 23,7 C 24,4 C 69 % 1010,1 hPa 0,0 l/m 3,1 km/h (1 Bft) NO 51 0 min 0,000 mm 0,0 UV-I 5 W/m 17,7 C 23,7 C 4,8 km/h (1 Bft) 98,00 %
08.08.2017 20:38 23,7 C 24,4 C 69 % 1010,1 hPa 0,0 l/m 1,7 km/h (1 Bft) NO 51 0 min 0,000 mm 0,0 UV-I 5 W/m 17,7 C 23,7 C 3,2 km/h (1 Bft) 97,56 %
08.08.2017 20:40 23,6 C 24,4 C 69 % 1010,1 hPa 0,0 l/m 2,4 km/h (1 Bft) O 92 0 min 0,000 mm 0,0 UV-I 5 W/m 17,6 C 23,6 C 4,8 km/h (1 Bft) 98,11 %
08.08.2017 20:42 23,6 C 24,4 C 71 % 1010,2 hPa 0,0 l/m 1,7 km/h (1 Bft) O-SO 117 0 min 0,000 mm 0,0 UV-I 1 W/m 18,0 C 23,6 C 3,2 km/h (1 Bft) 97,37 %
08.08.2017 20:44 23,4 C 24,4 C 71 % 1010,3 hPa 0,0 l/m 1,9 km/h (1 Bft) O-SO 117 0 min 0,000 mm 0,0 UV-I 0 W/m 17,8 C 23,4 C 3,2 km/h (1 Bft) 98,21 %
08.08.2017 20:46 23,3 C 24,4 C 72 % 1010,3 hPa 0,0 l/m 1,8 km/h (1 Bft) O-SO 102 0 min 0,000 mm 0,0 UV-I 0 W/m 18,0 C 23,3 C 4,8 km/h (1 Bft) 97,87 %
08.08.2017 20:48 23,3 C 24,4 C 72 % 1010,3 hPa 0,0 l/m 2,1 km/h (1 Bft) O 101 0 min 0,000 mm 0,0 UV-I 0 W/m 18,0 C 23,3 C 4,8 km/h (1 Bft) 97,22 %
08.08.2017 20:50 23,2 C 24,4 C 72 % 1010,2 hPa 0,0 l/m 1,5 km/h (1 Bft) O 101 0 min 0,000 mm 0,0 UV-I 0 W/m 17,9 C 23,2 C 3,2 km/h (1 Bft) 97,87 %
08.08.2017 20:52 23,1 C 24,4 C 73 % 1010,2 hPa 0,0 l/m 0,4 km/h (0 Bft) O 101 0 min 0,000 mm 0,0 UV-I 0 W/m 18,0 C 23,1 C 3,2 km/h (1 Bft) 96,00 %
08.08.2017 20:54 22,9 C 24,4 C 73 % 1010,3 hPa 0,0 l/m 0,0 km/h (0 Bft) O 101 0 min 0,000 mm 0,0 UV-I 0 W/m 17,8 C 22,9 C 0,0 km/h (0 Bft) 98,00 %
08.08.2017 20:56 22,8 C 24,4 C 73 % 1010,4 hPa 0,0 l/m 0,0 km/h (0 Bft) O 101 0 min 0,000 mm 0,0 UV-I 0 W/m 17,7 C 22,8 C 0,0 km/h (0 Bft) 97,37 %
08.08.2017 20:58 22,8 C 24,4 C 74 % 1010,4 hPa 0,0 l/m 0,0 km/h (0 Bft) O 101 0 min 0,000 mm 0,0 UV-I 0 W/m 17,9 C 22,8 C 0,0 km/h (0 Bft) 96,00 %
08.08.2017 21:00 22,8 C 24,4 C 74 % 1010,4 hPa 0,0 l/m 0,0 km/h (0 Bft) O 101 0 min 0,000 mm 0,0 UV-I 0 W/m 17,9 C 22,8 C 0,0 km/h (0 Bft) 98,00 %
08.08.2017 21:02 22,7 C 24,4 C 75 % 1010,4 hPa 0,0 l/m 0,0 km/h (0 Bft) O 101 0 min 0,026 mm 0,0 UV-I 0 W/m 18,0 C 22,7 C 0,0 km/h (0 Bft) 98,00 %
08.08.2017 21:04 22,6 C 24,4 C 76 % 1010,4 hPa 0,0 l/m 0,0 km/h (0 Bft) O 101 0 min 0,000 mm 0,0 UV-I 0 W/m 18,1 C 22,6 C 0,0 km/h (0 Bft) 97,87 %
08.08.2017 21:06 22,5 C 24,4 C 76 % 1010,4 hPa 0,0 l/m 2,3 km/h (1 Bft) O 101 0 min 0,000 mm 0,0 UV-I 0 W/m 18,0 C 22,5 C 3,2 km/h (1 Bft) 97,87 %
08.08.2017 21:08 22,4 C 24,4 C 76 % 1010,4 hPa 0,0 l/m 1,6 km/h (1 Bft) O 101 0 min 0,000 mm 0,0 UV-I 0 W/m 18,0 C 22,4 C 4,8 km/h (1 Bft) 98,00 %
08.08.2017 21:10 22,3 C 24,4 C 76 % 1010,4 hPa 0,0 l/m 2,7 km/h (1 Bft) O 101 0 min 0,000 mm 0,0 UV-I 0 W/m 17,9 C 22,3 C 4,8 km/h (1 Bft) 95,74 %
08.08.2017 21:12 22,3 C 24,4 C 75 % 1010,4 hPa 0,0 l/m 2,4 km/h (1 Bft) O 101 0 min 0,000 mm 0,0 UV-I 0 W/m 17,6 C 22,3 C 4,8 km/h (1 Bft) 100,00 %
08.08.2017 21:14 22,3 C 24,4 C 74 % 1010,4 hPa 0,0 l/m 1,8 km/h (1 Bft) O 101 0 min 0,000 mm 0,0 UV-I 0 W/m 17,4 C 22,3 C 3,2 km/h (1 Bft) 96,23 %
08.08.2017 21:16 22,4 C 24,4 C 74 % 1010,3 hPa 0,0 l/m 2,3 km/h (1 Bft) O 92 0 min 0,000 mm 0,0 UV-I 0 W/m 17,5 C 22,4 C 4,8 km/h (1 Bft) 97,87 %
08.08.2017 21:18 22,3 C 24,4 C 75 % 1010,3 hPa 0,0 l/m 1,9 km/h (1 Bft) NO 43 0 min 0,000 mm 0,0 UV-I 0 W/m 17,6 C 22,3 C 6,4 km/h (2 Bft) 97,37 %
08.08.2017 21:20 22,2 C 24,4 C 75 % 1010,4 hPa 0,0 l/m 4,4 km/h (1 Bft) N-NO 30 0 min 0,000 mm 0,0 UV-I 0 W/m 17,5 C 22,2 C 6,4 km/h (2 Bft) 95,74 %
08.08.2017 21:22 22,2 C 24,4 C 75 % 1010,5 hPa 0,0 l/m 3,4 km/h (1 Bft) NO 53 0 min 0,000 mm 0,0 UV-I 0 W/m 17,5 C 22,2 C 6,4 km/h (2 Bft) 98,00 %
08.08.2017 21:24 22,2 C 24,4 C 75 % 1010,4 hPa 0,0 l/m 4,4 km/h (1 Bft) NO 53 0 min 0,000 mm 0,0 UV-I 0 W/m 17,5 C 22,2 C 6,4 km/h (2 Bft) 97,87 %
08.08.2017 21:26 22,2 C 24,4 C 76 % 1010,4 hPa 0,0 l/m 4,1 km/h (1 Bft) NO 54 0 min 0,000 mm 0,0 UV-I 0 W/m 17,8 C 22,2 C 4,8 km/h (1 Bft) 97,62 %
08.08.2017 21:28 22,2 C 24,4 C 75 % 1010,4 hPa 0,0 l/m 2,9 km/h (1 Bft) NO 54 0 min 0,000 mm 0,0 UV-I 0 W/m 17,5 C 22,2 C 4,8 km/h (1 Bft) 98,18 %
08.08.2017 21:30 22,2 C 24,4 C 75 % 1010,5 hPa 0,0 l/m 2,3 km/h (1 Bft) NO 54 0 min 0,000 mm 0,0 UV-I 0 W/m 17,5 C 22,2 C 3,2 km/h (1 Bft) 97,44 %
08.08.2017 21:33 22,2 C 24,4 C 75 % 1010,6 hPa 0,0 l/m 4,1 km/h (1 Bft) NO 46 0 min 0,000 mm 0,0 UV-I 0 W/m 17,5 C 22,2 C 9,7 km/h (2 Bft) 97,56 %
08.08.2017 21:34 22,2 C 24,4 C 75 % 1010,6 hPa 0,0 l/m 4,3 km/h (1 Bft) NO 47 0 min 0,000 mm 0,0 UV-I 0 W/m 17,5 C 22,2 C 4,8 km/h (1 Bft) 100,00 %
08.08.2017 21:36 22,2 C 24,4 C 75 % 1010,7 hPa 0,0 l/m 2,6 km/h (1 Bft) O 81 0 min 0,000 mm 0,0 UV-I 0 W/m 17,5 C 22,2 C 6,4 km/h (2 Bft) 96,00 %
08.08.2017 21:38 22,2 C 24,4 C 75 % 1010,8 hPa 0,0 l/m 4,9 km/h (1 Bft) O-NO 71 0 min 0,000 mm 0,0 UV-I 0 W/m 17,5 C 22,2 C 8,0 km/h (2 Bft) 97,56 %
08.08.2017 21:40 22,3 C 24,4 C 74 % 1010,8 hPa 0,0 l/m 4,7 km/h (1 Bft) O-NO 66 0 min 0,000 mm 0,0 UV-I 0 W/m 17,4 C 22,3 C 8,0 km/h (2 Bft) 98,11 %
08.08.2017 21:42 22,3 C 24,4 C 74 % 1010,8 hPa 0,0 l/m 2,2 km/h (1 Bft) O-NO 66 0 min 0,000 mm 0,0 UV-I 0 W/m 17,4 C 22,3 C 4,8 km/h (1 Bft) 97,37 %
08.08.2017 21:44 22,4 C 24,4 C 75 % 1010,8 hPa 0,0 l/m 1,2 km/h (1 Bft) O-NO 66 0 min 0,000 mm 0,0 UV-I 0 W/m 17,7 C 22,4 C 3,2 km/h (1 Bft) 96,00 %
08.08.2017 21:46 22,4 C 24,4 C 74 % 1010,8 hPa 0,0 l/m 2,0 km/h (1 Bft) O-NO 66 0 min 0,000 mm 0,0 UV-I 0 W/m 17,5 C 22,4 C 3,2 km/h (1 Bft) 98,21 %
08.08.2017 21:48 22,4 C 24,4 C 74 % 1010,7 hPa 0,0 l/m 2,5 km/h (1 Bft) O-NO 66 0 min 0,000 mm 0,0 UV-I 0 W/m 17,5 C 22,4 C 4,8 km/h (1 Bft) 97,14 %
08.08.2017 21:50 22,4 C 24,4 C 74 % 1010,7 hPa 0,0 l/m 3,2 km/h (1 Bft) O-NO 66 0 min 0,000 mm 0,0 UV-I 0 W/m 17,5 C 22,4 C 4,8 km/h (1 Bft) 98,25 %
08.08.2017 21:52 22,4 C 24,4 C 74 % 1010,6 hPa 0,0 l/m 2,7 km/h (1 Bft) O-NO 66 0 min 0,000 mm 0,0 UV-I 0 W/m 17,5 C 22,4 C 4,8 km/h (1 Bft) 98,00 %
08.08.2017 21:54 22,5 C 24,4 C 73 % 1010,6 hPa 0,0 l/m 3,3 km/h (1 Bft) O-NO 68 0 min 0,000 mm 0,0 UV-I 0 W/m 17,4 C 22,5 C 6,4 km/h (2 Bft) 100,00 %
08.08.2017 21:56 22,4 C 24,4 C 73 % 1010,7 hPa 0,0 l/m 3,2 km/h (1 Bft) O-NO 68 0 min 0,000 mm 0,0 UV-I 0 W/m 17,3 C 22,4 C 4,8 km/h (1 Bft) 97,56 %
08.08.2017 21:58 22,4 C 24,4 C 74 % 1010,7 hPa 0,0 l/m 4,2 km/h (1 Bft) O-NO 68 0 min 0,000 mm 0,0 UV-I 0 W/m 17,5 C 22,4 C 6,4 km/h (2 Bft) 94,00 %
08.08.2017 22:00 22,4 C 24,4 C 74 % 1010,7 hPa 0,0 l/m 3,9 km/h (1 Bft) O-NO 68 0 min 0,025 mm 0,0 UV-I 0 W/m 17,5 C 22,4 C 6,4 km/h (2 Bft) 97,87 %
08.08.2017 22:02 22,3 C 24,4 C 75 % 1010,7 hPa 0,0 l/m 4,7 km/h (1 Bft) O-NO 73 0 min 0,000 mm 0,0 UV-I 0 W/m 17,6 C 22,3 C 6,4 km/h (2 Bft) 95,74 %
08.08.2017 22:04 22,2 C 24,4 C 74 % 1010,8 hPa 0,0 l/m 2,7 km/h (1 Bft) O-NO 73 0 min 0,000 mm 0,0 UV-I 0 W/m 17,3 C 22,2 C 4,8 km/h (1 Bft) 98,00 %
08.08.2017 22:06 22,2 C 24,4 C 74 % 1011,0 hPa 0,0 l/m 0,2 km/h (0 Bft) O-NO 73 0 min 0,000 mm 0,0 UV-I 0 W/m 17,3 C 22,2 C 1,6 km/h (1 Bft) 97,87 %
08.08.2017 22:08 22,2 C 24,4 C 75 % 1011,1 hPa 0,0 l/m 2,5 km/h (1 Bft) SW 218 0 min 0,000 mm 0,0 UV-I 0 W/m 17,5 C 22,2 C 6,4 km/h (2 Bft) 97,87 %
08.08.2017 22:10 22,1 C 24,4 C 77 % 1011,2 hPa 0,0 l/m 6,5 km/h (2 Bft) SW 228 0 min 0,000 mm 0,0 UV-I 0 W/m 17,9 C 22,1 C 9,7 km/h (2 Bft) 97,44 %
08.08.2017 22:12 21,9 C 24,4 C 77 % 1011,3 hPa 0,0 l/m 7,2 km/h (2 Bft) SW 217 0 min 0,000 mm 0,0 UV-I 0 W/m 17,7 C 21,6 C 9,7 km/h (2 Bft) 98,11 %
08.08.2017 22:14 21,8 C 24,4 C 78 % 1011,4 hPa 0,0 l/m 5,3 km/h (1 Bft) SW 220 0 min 0,000 mm 0,0 UV-I 0 W/m 17,8 C 21,8 C 6,4 km/h (2 Bft) 96,00 %
08.08.2017 22:16 21,7 C 24,4 C 78 % 1011,6 hPa 0,0 l/m 7,8 km/h (2 Bft) S-SW 209 0 min 0,000 mm 0,0 UV-I 0 W/m 17,7 C 21,2 C 11,3 km/h (2 Bft) 98,00 %
08.08.2017 22:18 21,6 C 24,4 C 78 % 1011,8 hPa 0,0 l/m 10,3 km/h (2 Bft) S-SW 199 0 min 0,000 mm 0,0 UV-I 0 W/m 17,6 C 20,3 C 12,9 km/h (3 Bft) 97,37 %
08.08.2017 22:20 21,5 C 24,4 C 79 % 1011,8 hPa 0,0 l/m 8,9 km/h (2 Bft) SW 225 0 min 0,000 mm 0,0 UV-I 0 W/m 17,7 C 20,6 C 12,9 km/h (3 Bft) 98,21 %
08.08.2017 22:22 21,5 C 24,4 C 79 % 1011,8 hPa 0,0 l/m 5,8 km/h (2 Bft) SW 221 0 min 0,000 mm 0,0 UV-I 0 W/m 17,7 C 21,5 C 9,7 km/h (2 Bft) 97,56 %
08.08.2017 22:24 21,4 C 24,4 C 79 % 1011,7 hPa 0,0 l/m 2,8 km/h (1 Bft) W-SW 244 0 min 0,000 mm 0,0 UV-I 0 W/m 17,6 C 21,4 C 6,4 km/h (2 Bft) 98,11 %
08.08.2017 22:26 21,4 C 24,4 C 79 % 1011,8 hPa 0,0 l/m 1,9 km/h (1 Bft) W-SW 255 0 min 0,000 mm 0,0 UV-I 0 W/m 17,6 C 21,4 C 3,2 km/h (1 Bft) 97,37 %
08.08.2017 22:28 21,5 C 24,4 C 79 % 1011,7 hPa 0,0 l/m 0,6 km/h (0 Bft) W-SW 255 0 min 0,000 mm 0,0 UV-I 0 W/m 17,7 C 21,5 C 3,2 km/h (1 Bft) 98,00 %
08.08.2017 22:30 21,5 C 24,4 C 79 % 1011,7 hPa 0,0 l/m 1,3 km/h (1 Bft) W-SW 255 0 min 0,000 mm 0,0 UV-I 0 W/m 17,7 C 21,5 C 3,2 km/h (1 Bft) 100,00 %
08.08.2017 22:32 21,6 C 24,4 C 79 % 1011,8 hPa 0,0 l/m 2,6 km/h (1 Bft) W-SW 255 0 min 0,000 mm 0,0 UV-I 0 W/m 17,8 C 21,6 C 3,2 km/h (1 Bft) 100,00 %
08.08.2017 22:34 21,6 C 24,4 C 79 % 1011,8 hPa 0,0 l/m 1,5 km/h (1 Bft) W-SW 255 0 min 0,000 mm 0,0 UV-I 0 W/m 17,8 C 21,6 C 3,2 km/h (1 Bft) 100,00 %
08.08.2017 22:36 21,5 C 24,4 C 79 % 1011,8 hPa 0,0 l/m 1,1 km/h (1 Bft) W-SW 255 0 min 0,000 mm 0,0 UV-I 0 W/m 17,7 C 21,5 C 3,2 km/h (1 Bft) 100,00 %
08.08.2017 22:38 21,5 C 24,4 C 79 % 1011,8 hPa 0,0 l/m 3,2 km/h (1 Bft) W-SW 255 0 min 0,000 mm 0,0 UV-I 0 W/m 17,7 C 21,5 C 6,4 km/h (2 Bft) 100,00 %
08.08.2017 22:40 21,5 C 24,4 C 79 % 1011,9 hPa 0,0 l/m 7,2 km/h (2 Bft) W-SW 250 0 min 0,000 mm 0,0 UV-I 0 W/m 17,7 C 21,2 C 17,7 km/h (3 Bft) 100,00 %
08.08.2017 22:42 21,5 C 24,4 C 78 % 1011,9 hPa 0,0 l/m 11,3 km/h (2 Bft) W-SW 250 0 min 0,000 mm 0,0 UV-I 0 W/m 17,5 C 19,9 C 19,3 km/h (3 Bft) 98,11 %
08.08.2017 22:44 21,6 C 24,4 C 78 % 1012,0 hPa 0,0 l/m 10,1 km/h (2 Bft) W 279 0 min 0,000 mm 0,0 UV-I 0 W/m 17,6 C 20,4 C 16,1 km/h (3 Bft) 100,00 %
08.08.2017 22:46 21,6 C 24,4 C 77 % 1012,1 hPa 0,0 l/m 11,3 km/h (2 Bft) W-SW 255 0 min 0,000 mm 0,0 UV-I 0 W/m 17,4 C 20,1 C 20,9 km/h (4 Bft) 100,00 %
08.08.2017 22:48 21,6 C 24,4 C 76 % 1012,2 hPa 0,0 l/m 11,2 km/h (2 Bft) SW 221 0 min 0,000 mm 0,0 UV-I 0 W/m 17,2 C 20,1 C 19,3 km/h (3 Bft) 100,00 %
08.08.2017 22:50 21,7 C 24,4 C 75 % 1012,1 hPa 0,0 l/m 12,1 km/h (2 Bft) W-SW 240 0 min 0,000 mm 0,0 UV-I 0 W/m 17,1 C 20,0 C 25,7 km/h (4 Bft) 100,00 %
08.08.2017 22:52 21,7 C 24,4 C 74 % 1011,9 hPa 0,0 l/m 12,8 km/h (3 Bft) SW 232 0 min 0,000 mm 0,0 UV-I 0 W/m 16,9 C 19,8 C 22,5 km/h (4 Bft) 100,00 %
08.08.2017 22:54 21,7 C 24,4 C 73 % 1011,8 hPa 0,0 l/m 11,6 km/h (2 Bft) W-SW 242 0 min 0,000 mm 0,0 UV-I 0 W/m 16,6 C 20,1 C 20,9 km/h (4 Bft) 100,00 %
08.08.2017 22:56 21,7 C 24,4 C 73 % 1011,8 hPa 0,0 l/m 8,4 km/h (2 Bft) W-SW 241 0 min 0,000 mm 0,0 UV-I 0 W/m 16,6 C 21,0 C 16,1 km/h (3 Bft) 98,00 %
08.08.2017 22:58 21,7 C 24,4 C 72 % 1012,0 hPa 0,0 l/m 13,6 km/h (3 Bft) W-SW 251 0 min 0,000 mm 0,0 UV-I 0 W/m 16,4 C 19,6 C 27,4 km/h (4 Bft) 100,00 %
08.08.2017 23:00 21,7 C 24,4 C 73 % 1012,0 hPa 0,0 l/m 11,9 km/h (2 Bft) W 269 0 min 0,026 mm 0,0 UV-I 0 W/m 16,6 C 20,0 C 19,3 km/h (3 Bft) 100,00 %
08.08.2017 23:02 21,7 C 24,4 C 72 % 1012,0 hPa 0,0 l/m 13,9 km/h (3 Bft) W-SW 251 0 min 0,000 mm 0,0 UV-I 0 W/m 16,4 C 19,5 C 25,7 km/h (4 Bft) 97,37 %
08.08.2017 23:04 21,7 C 24,4 C 73 % 1012,0 hPa 0,0 l/m 14,5 km/h (3 Bft) W-SW 247 0 min 0,000 mm 0,0 UV-I 0 W/m 16,6 C 19,4 C 20,9 km/h (4 Bft) 100,00 %
08.08.2017 23:06 21,7 C 24,4 C 73 % 1012,2 hPa 0,0 l/m 14,4 km/h (3 Bft) W 260 0 min 0,000 mm 0,0 UV-I 0 W/m 16,6 C 19,4 C 20,9 km/h (4 Bft) 100,00 %
08.08.2017 23:08 21,6 C 24,4 C 73 % 1012,4 hPa 0,0 l/m 15,4 km/h (3 Bft) W-SW 258 0 min 0,000 mm 0,0 UV-I 0 W/m 16,5 C 19,1 C 24,1 km/h (4 Bft) 100,00 %
08.08.2017 23:10 21,6 C 24,4 C 73 % 1012,5 hPa 0,0 l/m 16,6 km/h (3 Bft) W 259 0 min 0,000 mm 0,0 UV-I 0 W/m 16,5 C 18,9 C 25,7 km/h (4 Bft) 100,00 %
08.08.2017 23:12 21,5 C 24,4 C 73 % 1012,6 hPa 0,0 l/m 19,8 km/h (3 Bft) W-SW 246 0 min 0,000 mm 0,0 UV-I 0 W/m 16,4 C 18,2 C 27,4 km/h (4 Bft) 100,00 %
08.08.2017 23:14 21,4 C 24,4 C 72 % 1012,8 hPa 0,0 l/m 20,7 km/h (4 Bft) W 269 0 min 0,000 mm 0,0 UV-I 0 W/m 16,1 C 17,9 C 27,4 km/h (4 Bft) 97,87 %
08.08.2017 23:16 21,4 C 24,4 C 72 % 1013,1 hPa 0,0 l/m 19,8 km/h (3 Bft) W-SW 250 0 min 0,000 mm 0,0 UV-I 0 W/m 16,1 C 18,0 C 27,4 km/h (4 Bft) 100,00 %
08.08.2017 23:18 21,4 C 24,4 C 72 % 1013,4 hPa 0,0 l/m 19,4 km/h (3 Bft) W-SW 246 0 min 0,000 mm 0,0 UV-I 0 W/m 16,1 C 18,1 C 29,0 km/h (5 Bft) 97,56 %
08.08.2017 23:20 21,4 C 24,4 C 72 % 1013,5 hPa 0,0 l/m 18,6 km/h (3 Bft) SW 234 0 min 0,000 mm 0,0 UV-I 0 W/m 16,1 C 18,3 C 24,1 km/h (4 Bft) 100,00 %
08.08.2017 23:22 21,4 C 24,4 C 72 % 1013,8 hPa 0,0 l/m 20,6 km/h (4 Bft) W-SW 254 0 min 0,000 mm 0,0 UV-I 0 W/m 16,1 C 17,9 C 32,2 km/h (5 Bft) 100,00 %
08.08.2017 23:24 21,4 C 24,4 C 72 % 1014,0 hPa 0,0 l/m 23,9 km/h (4 Bft) W-SW 247 0 min 0,000 mm 0,0 UV-I 0 W/m 16,1 C 17,4 C 41,8 km/h (6 Bft) 100,00 %
08.08.2017 23:26 21,4 C 24,4 C 72 % 1014,3 hPa 0,0 l/m 22,5 km/h (4 Bft) W-SW 256 0 min 0,000 mm 0,0 UV-I 0 W/m 16,1 C 17,6 C 33,8 km/h (5 Bft) 100,00 %
08.08.2017 23:28 21,4 C 24,4 C 72 % 1014,4 hPa 0,0 l/m 24,1 km/h (4 Bft) W-SW 242 0 min 0,000 mm 0,0 UV-I 0 W/m 16,1 C 17,4 C 33,8 km/h (5 Bft) 100,00 %
08.08.2017 23:30 21,4 C 24,4 C 71 % 1014,5 hPa 0,0 l/m 25,2 km/h (4 Bft) W 261 0 min 0,000 mm 0,0 UV-I 0 W/m 15,9 C 17,3 C 37,0 km/h (5 Bft) 100,00 %
08.08.2017 23:32 21,4 C 24,4 C 71 % 1014,5 hPa 0,0 l/m 27,1 km/h (4 Bft) W-SW 239 0 min 0,000 mm 0,0 UV-I 0 W/m 15,9 C 17,0 C 45,1 km/h (6 Bft) 100,00 %
08.08.2017 23:34 21,4 C 24,4 C 71 % 1014,6 hPa 0,0 l/m 32,9 km/h (5 Bft) NW 306 0 min 0,000 mm 0,0 UV-I 0 W/m 15,9 C 16,4 C 56,3 km/h (7 Bft) 100,00 %
08.08.2017 23:36 21,4 C 24,4 C 70 % 1014,8 hPa 0,0 l/m 36,3 km/h (5 Bft) W-SW 252 0 min 0,000 mm 0,0 UV-I 0 W/m 15,7 C 16,1 C 57,9 km/h (7 Bft) 97,37 %
08.08.2017 23:38 21,4 C 24,4 C 70 % 1014,7 hPa 0,0 l/m 30,4 km/h (5 Bft) SW 234 0 min 0,000 mm 0,0 UV-I 0 W/m 15,7 C 16,6 C 56,3 km/h (7 Bft) 100,00 %
08.08.2017 23:40 21,3 C 24,4 C 70 % 1014,8 hPa 0,0 l/m 17,3 km/h (3 Bft) SW 236 0 min 0,000 mm 0,0 UV-I 0 W/m 15,6 C 18,4 C 24,1 km/h (4 Bft) 96,15 %
08.08.2017 23:42 21,3 C 24,4 C 70 % 1015,1 hPa 0,0 l/m 25,9 km/h (4 Bft) SW 223 0 min 0,000 mm 0,0 UV-I 0 W/m 15,6 C 17,0 C 49,9 km/h (6 Bft) 98,46 %
08.08.2017 23:44 21,3 C 24,4 C 70 % 1015,2 hPa 0,0 l/m 24,6 km/h (4 Bft) SW 229 0 min 0,000 mm 0,0 UV-I 0 W/m 15,6 C 17,2 C 43,5 km/h (6 Bft) 97,73 %
08.08.2017 23:46 21,2 C 23,9 C 71 % 1015,3 hPa 0,0 l/m 27,6 km/h (4 Bft) W 265 0 min 0,000 mm 0,0 UV-I 0 W/m 15,7 C 16,7 C 45,1 km/h (6 Bft) 100,00 %
08.08.2017 23:48 20,9 C 23,9 C 74 % 1015,5 hPa 0,0 l/m 22,2 km/h (4 Bft) W-SW 255 0 min 0,000 mm 0,0 UV-I 0 W/m 16,1 C 17,0 C 46,7 km/h (6 Bft) 100,00 %
08.08.2017 23:50 20,6 C 23,9 C 77 % 1015,7 hPa 0,0 l/m 28,9 km/h (5 Bft) W-SW 257 0 min 0,000 mm 0,0 UV-I 0 W/m 16,4 C 15,7 C 41,8 km/h (6 Bft) 98,21 %
08.08.2017 23:52 20,1 C 23,9 C 79 % 1015,6 hPa 0,2 l/m 23,3 km/h (4 Bft) W 269 0 min 0,000 mm 0,0 UV-I 0 W/m 16,3 C 15,8 C 40,2 km/h (6 Bft) 100,00 %
08.08.2017 23:54 19,7 C 23,9 C 81 % 1015,7 hPa 0,2 l/m 24,0 km/h (4 Bft) W-SW 248 0 min 0,000 mm 0,0 UV-I 0 W/m 16,3 C 15,1 C 51,5 km/h (7 Bft) 97,73 %
08.08.2017 23:56 19,2 C 23,9 C 83 % 1015,9 hPa 0,0 l/m 21,0 km/h (4 Bft) W 271 0 min 0,000 mm 0,0 UV-I 0 W/m 16,2 C 15,0 C 27,4 km/h (4 Bft) 96,61 %
08.08.2017 23:58 18,9 C 23,9 C 84 % 1015,9 hPa 0,0 l/m 17,2 km/h (3 Bft) W-SW 257 0 min 0,000 mm 0,0 UV-I 0 W/m 16,1 C 15,4 C 32,2 km/h (5 Bft) 100,00 %
_ Min-Zeit 06:04 04:28 15:46 16:56 - 20:54 - - - - - - 06:04 07:08 20:54 00:02
Minimum _ 13,7 C 22,8 C 52 % 1008,3 hPa - 0,0 km/h (0 Bft) - - - - - - 11,6 C 11,1 C 0,0 km/h (0 Bft) 12,50 %
_ Max-Zeit 16:28 18:22 06:08 23:56 23:52 23:36 - - 06:30 14:00 12:44 12:52 13:52 16:30 23:36 00:00
Maximum _ 28,2 C 25,0 C 88 % 1015,9 hPa 0,2 l/m 36,3 km/h
W-SW (5 Bft)
- - 4 min 0,635 mm 6,3 UV-I 866 W/m 19,2 C 27,4 C 57,9 km/h
SW (7 Bft)
100,00 %
Durchschnitt _ 20,9 C 23,7 C 72 % 1011,1 hPa #0,4 l/m 11,2 km/h (2 Bft) O-NO - #13:06 h #5,563 mm 3,5 UV-I 464 W/m 15,4 C 19,7 C 17,0 km/h (3 Bft) 98,10 %